[[{"header":{"parameterUnit":"m.s-1","parameterCategory":1,"la1":31.0,"la2":29.5877,"lo1":-88.7671,"lo2":-86.6584,"dx":0.0162,"dy":0.0185,"nx":115,"ny":88,"refTime":"2022-12-26T06:00:00:Z","depth":0,"parameterNumber":2,"parameterNumberName":"U-component_of_WINDS"},"data":[0.0,0.0,0.0,0.0,0.0,0.0,0.0,0.0,0.0,0.0,0.0,0.0,0.0,0.0,0.0,0.0,0.0,0.0,0.0,0.0,0.0,0.0,0.0,0.0,0.0,0.0,0.0,0.0,0.0,0.0,0.0,0.0,0.0,0.0,0.0,0.0,0.0,0.0,0.0,0.0,0.0,0.0,0.0,0.0,0.0,0.0,0.0,0.0,0.0,0.0,0.0,0.0,0.0,0.0,0.0,0.0,0.0,0.0,0.0,0.0,0.0,0.0,0.0,0.0,0.0,0.0,0.0,0.0,0.0,0.0,0.0,0.0,0.0,0.0,0.0,0.0,0.0,0.0,0.0,0.0,0.0,0.0,0.0,0.0,0.0,0.0,0.0,0.0,0.0,0.0,0.0,0.0,0.0,0.0,0.0,0.0,0.0,0.0,0.0,0.0,0.0,0.0,0.0,0.0,0.0,0.0,0.0,0.0,0.0,0.0,0.0,0.0,0.0,0.0,0.0,0.0,0.0,0.0,0.0,0.0,0.0,0.0,0.0,0.0,0.0,0.0,0.0,0.0,0.0,0.0,0.0,0.0,0.0,0.0,0.0,0.0,0.0,0.0,0.0,0.0,0.0,0.0,0.0,0.0,0.0,0.0,0.0,0.0,0.0,0.0,0.0,0.0,0.0,0.0,0.0,0.0,0.0,0.0,0.0,0.0,0.0,0.0,0.0,0.0,0.0,0.0,0.0,0.0,0.0,0.0,0.0,0.0,0.0,0.0,0.0,0.0,0.0,0.0,0.0,0.0,0.0,0.0,0.0,0.0,0.0,0.0,0.0,0.0,0.0,0.0,0.0,0.0,0.0,0.0,0.0,0.0,0.0,0.0,0.0,0.0,0.0,0.0,0.0,0.0,0.0,0.0,0.0,0.0,0.0,0.0,0.0,0.0,0.0,0.0,0.0,0.0,0.0,0.0,0.0,0.0,0.0,0.0,0.0,0.0,0.0,0.0,0.0,0.0,0.0,0.0,0.0,0.0,0.0,0.0,0.0,0.0,0.0,0.0,0.0,0.0,0.0,0.0,0.0,0.0,0.0,0.0,0.0,0.0,0.0,0.0,0.0,0.0,0.0,0.0,0.0,0.0,0.0,0.0,0.0,0.0,0.0,0.0,0.0,0.0,0.0,0.0,0.0,0.0,0.0,0.0,0.0,0.0,0.0,0.0,0.0,0.0,0.0,0.0,0.0,0.0,0.0,0.0,0.0,0.0,0.0,0.0,0.0,0.0,0.0,0.0,0.0,0.0,0.0,0.0,0.0,0.0,0.0,0.0,0.0,0.0,0.0,0.0,0.0,0.0,0.0,0.0,0.0,0.0,0.0,0.0,0.0,0.0,0.0,0.0,0.0,0.0,0.0,0.0,0.0,0.0,0.0,0.0,0.0,0.0,0.0,0.0,0.0,0.0,0.0,0.0,0.0,0.0,0.0,0.0,0.0,0.0,0.0,0.0,0.0,0.0,0.0,0.0,0.0,0.0,0.0,0.0,0.0,0.0,0.0,0.0,0.0,0.0,0.0,0.0,0.0,0.0,0.0,0.0,0.0,0.0,0.0,0.0,0.0,0.0,0.0,0.0,0.0,0.0,0.0,0.0,0.0,0.0,0.0,0.0,0.0,0.0,0.0,0.0,0.0,0.0,0.0,0.0,0.0,0.0,0.0,0.0,0.0,0.0,0.0,0.0,0.0,0.0,0.0,0.0,0.0,0.0,0.0,0.0,0.0,0.0,0.0,0.0,0.0,0.0,0.0,0.0,0.0,0.0,0.0,0.0,0.0,0.0,0.0,0.0,0.0,0.0,0.0,0.0,0.0,0.0,0.0,0.0,0.0,0.0,0.0,0.0,0.0,0.0,0.0,0.0,0.0,0.0,0.0,0.0,0.0,0.0,0.0,0.0,0.0,0.0,0.0,0.0,0.0,0.0,0.0,0.0,0.0,0.0,0.0,0.0,0.0,0.0,0.0,0.0,0.0,0.0,0.0,0.0,0.0,0.0,0.0,0.0,0.0,0.0,0.0,0.0,0.0,0.0,0.0,0.0,0.0,0.0,0.0,0.0,0.0,0.0,0.0,0.0,0.0,0.0,0.0,0.0,0.0,0.0,0.0,0.0,0.0,0.0,0.0,0.0,0.0,0.0,0.0,0.0,0.0,0.0,0.0,0.0,0.0,0.0,0.0,0.0,0.0,0.0,0.0,0.0,0.0,0.0,0.0,0.0,0.0,0.0,0.0,0.0,0.0,0.0,0.0,0.0,0.0,0.0,0.0,0.0,0.0,0.0,0.0,0.0,0.0,0.0,0.0,0.0,0.0,0.0,0.0,0.0,0.0,0.0,0.0,0.0,0.0,0.0,0.0,0.0,0.0,0.0,0.0,0.0,0.0,0.0,0.0,0.0,0.0,0.0,0.0,0.0,0.0,0.0,0.0,0.0,0.0,0.0,0.0,0.0,0.0,0.0,0.0,0.0,0.0,0.0,0.0,0.0,0.0,0.0,0.0,0.0,0.0,0.0,0.0,0.0,0.0,0.0,0.0,0.0,0.0,0.0,0.0,0.0,0.0,0.0,0.0,0.0,0.0,0.0,0.0,0.0,0.0,0.0,0.0,0.0,0.0,0.0,0.0,0.0,0.0,0.0,0.0,0.0,0.0,0.0,0.0,0.0,0.0,0.0,0.0,0.0,0.0,0.0,0.0,0.0,0.0,0.0,0.0,0.0,0.0,0.0,0.0,0.0,0.0,0.0,0.0,0.0,0.0,0.0,0.0,0.0,0.0,0.0,0.0,0.0,0.0,0.0,0.0,0.0,0.0,0.0,0.0,0.0,0.0,0.0,0.0,0.0,0.0,0.0,0.0,0.0,0.0,0.0,0.0,0.0,0.0,0.0,0.0,0.0,0.0,0.0,0.0,0.0,0.0,0.0,0.0,0.0,0.0,0.0,0.0,0.0,0.0,0.0,0.0,0.0,0.0,0.0,0.0,0.0,0.0,0.0,0.0,0.0,0.0,0.0,0.0,0.0,0.0,0.0,0.0,0.0,0.0,0.0,0.0,0.0,0.0,0.0,0.0,0.0,0.0,0.0,0.0,0.0,0.0,0.0,0.0,0.0,0.0,0.0,0.0,0.0,0.0,0.0,0.0,0.0,0.0,0.0,0.0,0.0,0.0,0.0,0.0,0.0,0.0,0.0,0.0,0.0,0.0,0.0,0.0,0.0,0.0,0.0,0.0,0.0,0.0,0.0,0.0,0.0,0.0,0.0,0.0,0.0,0.0,0.0,0.0,0.0,0.0,0.0,0.0,0.0,0.0,0.0,0.0,0.0,0.0,0.0,0.0,0.0,0.0,0.0,0.0,0.0,0.0,0.0,0.0,0.0,0.0,0.0,0.0,0.0,0.0,0.0,0.0,0.0,0.0,0.0,0.0,0.0,0.0,0.0,0.0,0.0,0.0,0.0,0.0,0.0,0.0,0.0,0.0,0.0,0.0,0.0,0.0,0.0,0.0,0.0,0.0,0.0,0.0,0.0,0.0,0.0,0.0,0.0,0.0,0.0,0.0,0.0,0.0,0.0,0.0,0.0,0.0,0.0,0.0,0.0,0.0,0.0,0.0,0.0,0.0,0.0,0.0,0.0,0.0,0.0,0.0,0.0,0.0,0.0,0.0,0.0,0.0,0.0,0.0,0.0,0.0,0.0,0.0,0.0,0.0,0.0,0.0,0.0,0.0,0.0,0.0,0.0,0.0,0.0,0.0,0.0,0.0,0.0,0.0,0.0,0.0,0.0,0.0,0.0,0.0,0.0,0.0,0.0,0.0,0.0,0.0,0.0,0.0,0.0,0.0,0.0,0.0,0.0,0.0,0.0,0.0,0.0,0.0,0.0,0.0,0.0,0.0,0.0,0.0,0.0,0.0,0.0,0.0,0.0,0.0,0.0,0.0,0.0,0.0,0.0,0.0,0.0,0.0,0.0,0.0,0.0,0.0,0.0,0.0,0.0,0.0,0.0,0.0,0.0,0.0,0.0,0.0,0.0,0.0,0.0,0.0,0.0,0.0,0.0,0.0,0.0,0.0,0.0,0.0,0.0,0.0,0.0,0.0,0.0,0.0,0.0,0.0,0.0,0.0,0.0,0.0,0.0,0.0,0.0,0.0,0.0,0.0,0.0,0.0,0.0,0.0,0.0,0.0,0.0,0.0,0.0,0.0,0.0,0.0,0.0,0.0,0.0,-1.7812,0.0,0.0,0.0,-1.7402,0.0,0.0,0.0,0.0,0.0,0.0,0.0,0.0,0.0,0.0,0.0,0.0,0.0,0.0,0.0,0.0,0.0,0.0,0.0,0.0,0.0,0.0,0.0,0.0,0.0,0.0,0.0,0.0,0.0,0.0,0.0,0.0,0.0,0.0,0.0,0.0,0.0,0.0,0.0,0.0,0.0,0.0,0.0,0.0,0.0,0.0,0.0,0.0,0.0,0.0,0.0,0.0,0.0,0.0,0.0,0.0,0.0,0.0,0.0,0.0,0.0,0.0,0.0,0.0,0.0,0.0,0.0,0.0,0.0,0.0,0.0,0.0,0.0,0.0,0.0,0.0,0.0,0.0,0.0,0.0,0.0,0.0,0.0,0.0,0.0,0.0,0.0,0.0,0.0,0.0,0.0,0.0,0.0,0.0,0.0,0.0,0.0,0.0,0.0,0.0,0.0,0.0,0.0,0.0,0.0,0.0,0.0,0.0,0.0,0.0,-1.793,-1.7734,-1.791,-1.793,-1.7754,0.0,0.0,0.0,0.0,0.0,0.0,0.0,0.0,0.0,0.0,0.0,0.0,0.0,0.0,0.0,0.0,0.0,0.0,0.0,0.0,0.0,0.0,0.0,0.0,0.0,0.0,0.0,0.0,0.0,0.0,0.0,0.0,0.0,0.0,0.0,0.0,0.0,0.0,0.0,0.0,0.0,0.0,0.0,0.0,0.0,0.0,0.0,0.0,0.0,0.0,0.0,0.0,0.0,0.0,0.0,0.0,0.0,0.0,0.0,0.0,0.0,0.0,0.0,0.0,0.0,0.0,0.0,0.0,0.0,0.0,0.0,0.0,0.0,0.0,0.0,0.0,0.0,0.0,0.0,0.0,0.0,0.0,0.0,0.0,0.0,0.0,0.0,0.0,0.0,0.0,0.0,0.0,0.0,0.0,0.0,0.0,0.0,0.0,0.0,0.0,0.0,0.0,0.0,0.0,0.0,0.0,0.0,0.0,0.0,0.0,0.0,0.0,-1.8008,-1.8008,-1.8008,0.0,0.0,0.0,0.0,0.0,0.0,0.0,0.0,0.0,0.0,0.0,0.0,0.0,0.0,0.0,0.0,0.0,0.0,0.0,0.0,0.0,0.0,0.0,0.0,0.0,0.0,0.0,0.0,0.0,0.0,0.0,0.0,0.0,0.0,0.0,0.0,0.0,0.0,0.0,0.0,0.0,0.0,0.0,0.0,0.0,0.0,0.0,0.0,0.0,0.0,0.0,0.0,0.0,0.0,0.0,0.0,0.0,0.0,0.0,0.0,0.0,0.0,0.0,0.0,0.0,0.0,0.0,0.0,0.0,0.0,0.0,0.0,0.0,0.0,0.0,0.0,0.0,0.0,0.0,0.0,0.0,0.0,0.0,0.0,0.0,0.0,0.0,0.0,0.0,0.0,0.0,0.0,0.0,0.0,0.0,0.0,0.0,0.0,0.0,0.0,0.0,0.0,0.0,0.0,0.0,0.0,0.0,0.0,0.0,0.0,-1.8008,-1.8008,-1.8008,0.0,-1.8008,0.0,0.0,0.0,0.0,0.0,0.0,0.0,0.0,0.0,0.0,0.0,0.0,0.0,0.0,0.0,0.0,0.0,0.0,0.0,0.0,0.0,0.0,0.0,0.0,0.0,0.0,0.0,0.0,0.0,0.0,0.0,0.0,0.0,0.0,0.0,0.0,0.0,0.0,0.0,0.0,0.0,0.0,0.0,0.0,0.0,0.0,0.0,0.0,0.0,0.0,0.0,0.0,0.0,0.0,0.0,0.0,0.0,0.0,0.0,0.0,0.0,0.0,0.0,0.0,0.0,0.0,0.0,0.0,0.0,0.0,0.0,0.0,0.0,0.0,0.0,0.0,0.0,0.0,0.0,0.0,0.0,0.0,0.0,0.0,0.0,0.0,0.0,0.0,0.0,0.0,0.0,0.0,0.0,0.0,0.0,0.0,0.0,0.0,0.0,0.0,0.0,0.0,0.0,0.0,0.0,0.0,0.0,0.0,0.0,0.0,-1.8262,-1.8008,-1.8008,-1.8008,0.0,0.0,0.0,0.0,0.0,0.0,0.0,0.0,0.0,0.0,0.0,0.0,0.0,0.0,0.0,0.0,0.0,0.0,0.0,0.0,0.0,0.0,0.0,0.0,0.0,0.0,0.0,0.0,0.0,0.0,0.0,0.0,0.0,0.0,0.0,0.0,0.0,0.0,0.0,0.0,0.0,0.0,0.0,0.0,0.0,0.0,0.0,0.0,0.0,0.0,0.0,0.0,0.0,0.0,0.0,0.0,0.0,0.0,0.0,0.0,0.0,0.0,0.0,0.0,0.0,0.0,0.0,0.0,0.0,0.0,0.0,0.0,0.0,0.0,0.0,0.0,0.0,0.0,0.0,0.0,0.0,0.0,0.0,0.0,0.0,0.0,0.0,0.0,0.0,0.0,0.0,0.0,0.0,0.0,0.0,0.0,0.0,0.0,0.0,0.0,0.0,0.0,0.0,0.0,0.0,0.0,0.0,0.0,0.0,0.0,-1.8481,-1.832,-1.8027,-1.8008,-1.8008,-1.8008,0.0,0.0,0.0,0.0,0.0,0.0,0.0,0.0,0.0,0.0,0.0,0.0,0.0,0.0,0.0,0.0,0.0,0.0,0.0,0.0,0.0,0.0,0.0,0.0,0.0,0.0,0.0,0.0,0.0,0.0,0.0,0.0,0.0,0.0,0.0,0.0,0.0,0.0,0.0,0.0,0.0,0.0,0.0,0.0,0.0,0.0,0.0,0.0,0.0,0.0,0.0,0.0,0.0,0.0,0.0,0.0,0.0,0.0,0.0,0.0,0.0,0.0,0.0,0.0,0.0,0.0,0.0,0.0,0.0,0.0,0.0,0.0,0.0,0.0,0.0,0.0,0.0,0.0,0.0,0.0,0.0,0.0,0.0,0.0,0.0,0.0,0.0,0.0,0.0,0.0,0.0,0.0,0.0,0.0,0.0,0.0,0.0,0.0,0.0,0.0,0.0,0.0,0.0,0.0,0.0,0.0,0.0,0.0,-1.8598,-1.8227,-1.8047,-1.8027,-1.8008,-1.8008,0.0,0.0,0.0,0.0,0.0,0.0,0.0,0.0,0.0,0.0,0.0,0.0,0.0,0.0,0.0,0.0,0.0,0.0,0.0,0.0,0.0,0.0,0.0,0.0,0.0,0.0,0.0,0.0,0.0,0.0,0.0,0.0,0.0,0.0,0.0,0.0,0.0,0.0,0.0,0.0,0.0,0.0,0.0,0.0,0.0,0.0,0.0,0.0,0.0,0.0,0.0,0.0,0.0,0.0,0.0,0.0,0.0,0.0,0.0,0.0,0.0,0.0,0.0,0.0,0.0,0.0,0.0,0.0,0.0,0.0,0.0,0.0,0.0,0.0,0.0,0.0,0.0,0.0,0.0,0.0,0.0,0.0,0.0,0.0,0.0,0.0,0.0,0.0,0.0,0.0,0.0,0.0,0.0,0.0,0.0,0.0,0.0,0.0,0.0,0.0,0.0,0.0,0.0,0.0,0.0,0.0,0.0,0.0,0.0,-1.9043,-1.8906,-1.8828,-1.8828,-1.8828,-1.8711,0.0,0.0,0.0,0.0,0.0,0.0,0.0,0.0,0.0,0.0,0.0,0.0,0.0,0.0,0.0,0.0,0.0,0.0,0.0,0.0,0.0,0.0,0.0,0.0,0.0,0.0,0.0,0.0,0.0,0.0,0.0,0.0,0.0,0.0,0.0,0.0,0.0,0.0,0.0,0.0,0.0,0.0,0.0,0.0,0.0,0.0,0.0,0.0,0.0,0.0,0.0,0.0,0.0,0.0,0.0,0.0,0.0,0.0,0.0,0.0,0.0,0.0,0.0,0.0,0.0,0.0,0.0,0.0,0.0,0.0,0.0,0.0,0.0,0.0,0.0,0.0,0.0,0.0,0.0,0.0,0.0,0.0,0.0,0.0,0.0,0.0,0.0,0.0,0.0,0.0,0.0,0.0,0.0,0.0,0.0,0.0,0.0,0.0,0.0,0.0,0.0,0.0,0.0,0.0,0.0,0.0,0.0,0.0,0.0,-1.9277,-1.9277,-1.9277,-1.9277,-1.9277,-1.9082,0.0,0.0,0.0,0.0,0.0,0.0,0.0,0.0,0.0,0.0,0.0,0.0,0.0,0.0,0.0,0.0,0.0,0.0,0.0,0.0,0.0,0.0,0.0,0.0,0.0,0.0,0.0,0.0,0.0,0.0,0.0,0.0,0.0,0.0,0.0,0.0,0.0,0.0,0.0,0.0,0.0,0.0,0.0,0.0,0.0,0.0,0.0,0.0,0.0,0.0,0.0,0.0,0.0,0.0,0.0,0.0,0.0,0.0,0.0,0.0,0.0,0.0,0.0,0.0,0.0,0.0,0.0,0.0,0.0,0.0,0.0,0.0,0.0,0.0,0.0,0.0,0.0,0.0,0.0,0.0,0.0,0.0,0.0,0.0,0.0,0.0,0.0,0.0,0.0,0.0,0.0,0.0,0.0,0.0,0.0,0.0,0.0,0.0,0.0,0.0,0.0,0.0,0.0,0.0,0.0,0.0,0.0,0.0,-1.9336,-1.9316,-1.9355,-1.9414,-1.9316,-1.9375,-1.9121,0.0,0.0,0.0,0.0,0.0,0.0,0.0,0.0,0.0,0.0,0.0,0.0,0.0,0.0,0.0,0.0,0.0,0.0,0.0,0.0,0.0,0.0,0.0,0.0,0.0,0.0,0.0,0.0,0.0,0.0,0.0,0.0,0.0,0.0,0.0,0.0,0.0,0.0,0.0,0.0,0.0,0.0,0.0,0.0,0.0,0.0,0.0,0.0,0.0,0.0,0.0,0.0,0.0,0.0,0.0,0.0,0.0,0.0,0.0,0.0,0.0,0.0,0.0,0.0,0.0,0.0,0.0,0.0,0.0,0.0,0.0,0.0,0.0,0.0,0.0,0.0,0.0,0.0,0.0,0.0,0.0,0.0,0.0,0.0,0.0,0.0,0.0,0.0,0.0,0.0,0.0,0.0,0.0,0.0,0.0,0.0,0.0,0.0,0.0,0.0,0.0,0.0,0.0,0.0,0.0,0.0,0.0,0.0,0.0,-2.0233,-2.0801,-2.1074,-2.1074,-2.0781,-2.041,0.0,0.0,0.0,0.0,0.0,0.0,0.0,0.0,0.0,0.0,0.0,0.0,0.0,0.0,0.0,0.0,0.0,0.0,0.0,0.0,0.0,0.0,0.0,0.0,0.0,0.0,0.0,0.0,0.0,0.0,0.0,0.0,0.0,0.0,0.0,0.0,0.0,0.0,0.0,0.0,0.0,0.0,0.0,0.0,0.0,0.0,0.0,0.0,0.0,0.0,0.0,0.0,0.0,0.0,0.0,0.0,0.0,0.0,0.0,0.0,0.0,0.0,0.0,0.0,0.0,0.0,0.0,0.0,0.0,0.0,0.0,0.0,0.0,0.0,0.0,0.0,0.0,0.0,0.0,0.0,0.0,0.0,0.0,0.0,0.0,0.0,0.0,0.0,0.0,0.0,0.0,0.0,0.0,0.0,0.0,0.0,0.0,0.0,0.0,0.0,0.0,0.0,0.0,0.0,0.0,0.0,0.0,0.0,0.0,-2.1818,-2.1992,-2.2129,-2.2109,-2.1855,-2.1426,-2.082,0.0,0.0,0.0,0.0,0.0,0.0,0.0,0.0,0.0,0.0,0.0,0.0,0.0,0.0,0.0,0.0,0.0,0.0,0.0,0.0,0.0,0.0,0.0,0.0,0.0,0.0,0.0,0.0,0.0,0.0,0.0,0.0,0.0,0.0,0.0,0.0,0.0,0.0,0.0,0.0,0.0,0.0,0.0,0.0,0.0,0.0,0.0,0.0,0.0,0.0,0.0,0.0,0.0,0.0,0.0,0.0,0.0,0.0,0.0,0.0,0.0,0.0,0.0,0.0,0.0,0.0,0.0,0.0,0.0,0.0,0.0,0.0,0.0,0.0,0.0,0.0,0.0,0.0,0.0,0.0,0.0,0.0,0.0,0.0,0.0,0.0,0.0,0.0,0.0,0.0,0.0,0.0,0.0,0.0,0.0,0.0,0.0,0.0,0.0,0.0,0.0,0.0,0.0,0.0,0.0,0.0,0.0,0.0,-2.3926,-2.3101,-2.2691,-2.2676,-2.2617,-2.2146,0.0,0.0,0.0,0.0,0.0,0.0,0.0,0.0,0.0,0.0,0.0,0.0,0.0,0.0,0.0,0.0,0.0,0.0,0.0,0.0,0.0,0.0,0.0,0.0,0.0,0.0,0.0,0.0,0.0,0.0,0.0,0.0,0.0,0.0,0.0,0.0,0.0,0.0,0.0,0.0,0.0,0.0,0.0,0.0,0.0,0.0,0.0,0.0,0.0,0.0,0.0,0.0,0.0,0.0,0.0,0.0,0.0,0.0,0.0,0.0,0.0,0.0,0.0,0.0,0.0,0.0,0.0,0.0,0.0,0.0,0.0,0.0,0.0,0.0,0.0,0.0,0.0,0.0,0.0,0.0,0.0,0.0,0.0,0.0,0.0,0.0,0.0,0.0,0.0,0.0,0.0,0.0,0.0,0.0,0.0,0.0,0.0,0.0,0.0,0.0,0.0,0.0,0.0,0.0,0.0,0.0,0.0,0.0,0.0,-2.5625,-2.5276,-2.485,-2.4414,-2.3789,-2.3203,0.0,0.0,0.0,0.0,0.0,0.0,0.0,0.0,0.0,0.0,0.0,0.0,0.0,0.0,0.0,0.0,0.0,0.0,0.0,0.0,0.0,0.0,0.0,0.0,0.0,0.0,0.0,0.0,0.0,0.0,0.0,0.0,0.0,0.0,0.0,0.0,0.0,0.0,0.0,0.0,0.0,0.0,0.0,0.0,0.0,0.0,0.0,0.0,0.0,0.0,0.0,0.0,0.0,0.0,0.0,0.0,0.0,0.0,0.0,0.0,0.0,0.0,0.0,0.0,0.0,0.0,0.0,0.0,0.0,0.0,0.0,0.0,0.0,0.0,0.0,0.0,0.0,0.0,0.0,0.0,0.0,0.0,0.0,0.0,0.0,0.0,0.0,0.0,0.0,0.0,0.0,0.0,0.0,0.0,0.0,0.0,0.0,0.0,0.0,0.0,0.0,0.0,0.0,0.0,0.0,0.0,0.0,0.0,-2.5273,-2.6621,-2.7189,-2.7098,-2.6295,-2.4869,-2.3958,0.0,0.0,0.0,0.0,0.0,0.0,0.0,0.0,0.0,0.0,0.0,0.0,0.0,0.0,0.0,0.0,0.0,0.0,0.0,0.0,0.0,0.0,0.0,0.0,0.0,0.0,0.0,0.0,0.0,0.0,0.0,0.0,0.0,0.0,0.0,0.0,0.0,0.0,0.0,0.0,0.0,0.0,0.0,0.0,0.0,0.0,0.0,0.0,0.0,0.0,0.0,0.0,0.0,0.0,0.0,0.0,0.0,0.0,0.0,0.0,0.0,0.0,0.0,0.0,0.0,0.0,0.0,0.0,0.0,0.0,0.0,0.0,0.0,0.0,0.0,0.0,0.0,0.0,0.0,0.0,0.0,0.0,0.0,0.0,0.0,0.0,0.0,0.0,0.0,0.0,0.0,0.0,0.0,0.0,0.0,0.0,0.0,0.0,0.0,0.0,0.0,0.0,0.0,0.0,0.0,0.0,0.0,0.0,-2.6278,-2.7266,-2.8789,-2.9128,-2.8138,-2.5975,-2.4564,0.0,0.0,0.0,0.0,0.0,0.0,0.0,0.0,0.0,0.0,0.0,0.0,0.0,0.0,0.0,0.0,0.0,0.0,0.0,0.0,0.0,0.0,0.0,0.0,0.0,0.0,0.0,0.0,0.0,0.0,0.0,0.0,0.0,0.0,0.0,0.0,0.0,0.0,0.0,0.0,0.0,0.0,0.0,0.0,0.0,0.0,0.0,0.0,0.0,0.0,0.0,0.0,0.0,0.0,0.0,0.0,0.0,0.0,0.0,0.0,0.0,0.0,0.0,0.0,0.0,0.0,0.0,0.0,0.0,0.0,0.0,0.0,0.0,0.0,0.0,0.0,0.0,0.0,0.0,0.0,0.0,0.0,0.0,0.0,0.0,0.0,0.0,0.0,0.0,0.0,0.0,0.0,0.0,0.0,0.0,0.0,0.0,0.0,0.0,0.0,0.0,0.0,0.0,0.0,0.0,0.0,0.0,0.0,-2.748,-2.8984,-2.9153,-2.941,-2.9815,-2.7468,-2.563,0.0,0.0,0.0,0.0,0.0,0.0,0.0,0.0,0.0,0.0,0.0,0.0,0.0,0.0,0.0,0.0,0.0,0.0,0.0,0.0,0.0,0.0,0.0,0.0,0.0,0.0,0.0,0.0,0.0,0.0,0.0,0.0,0.0,0.0,0.0,0.0,0.0,0.0,0.0,0.0,0.0,0.0,0.0,0.0,0.0,0.0,0.0,0.0,-1.3027,0.0,0.0,0.0,0.0,0.0,0.0,0.0,0.0,0.0,0.0,0.0,0.0,0.0,0.0,0.0,0.0,0.0,0.0,0.0,0.0,0.0,0.0,0.0,0.0,0.0,0.0,0.0,0.0,0.0,0.0,0.0,0.0,0.0,0.0,0.0,0.0,0.0,0.0,0.0,0.0,0.0,0.0,0.0,0.0,0.0,0.0,0.0,0.0,0.0,0.0,0.0,0.0,0.0,0.0,0.0,0.0,0.0,0.0,0.0,-2.834,-2.9824,-3.0123,-3.0236,-3.0158,-2.8537,-2.6883,0.0,0.0,0.0,0.0,0.0,0.0,0.0,0.0,0.0,0.0,0.0,0.0,0.0,0.0,0.0,0.0,0.0,0.0,0.0,0.0,0.0,0.0,0.0,0.0,0.0,0.0,0.0,0.0,0.0,0.0,0.0,0.0,0.0,0.0,0.0,0.0,0.0,0.0,0.0,0.0,0.0,0.0,0.0,0.0,0.0,0.0,0.0,0.0,0.0,0.0,0.0,0.0,0.0,0.0,0.0,0.0,0.0,0.0,0.0,0.0,0.0,0.0,0.0,0.0,0.0,0.0,0.0,0.0,0.0,0.0,0.0,0.0,0.0,0.0,0.0,0.0,0.0,0.0,0.0,0.0,0.0,0.0,0.0,0.0,0.0,0.0,0.0,0.0,0.0,0.0,0.0,0.0,0.0,0.0,0.0,0.0,0.0,0.0,0.0,0.0,0.0,0.0,0.0,0.0,0.0,0.0,0.0,-2.7519,-2.9043,-3.0314,-3.1204,-3.1194,-3.0268,-2.9406,-2.8031,-2.616,0.0,0.0,0.0,0.0,0.0,0.0,0.0,0.0,0.0,0.0,0.0,0.0,0.0,0.0,0.0,0.0,0.0,0.0,0.0,0.0,0.0,0.0,0.0,0.0,0.0,0.0,0.0,0.0,0.0,0.0,0.0,0.0,0.0,0.0,0.0,0.0,0.0,0.0,-1.3065,-1.332,0.0,0.0,0.0,0.0,0.0,0.0,0.0,0.0,-1.4255,0.0,0.0,0.0,0.0,0.0,0.0,0.0,0.0,0.0,0.0,0.0,0.0,0.0,0.0,0.0,0.0,0.0,0.0,0.0,0.0,0.0,0.0,0.0,0.0,0.0,0.0,0.0,0.0,0.0,0.0,0.0,0.0,0.0,0.0,0.0,0.0,0.0,0.0,0.0,0.0,0.0,0.0,0.0,0.0,0.0,0.0,0.0,0.0,0.0,0.0,0.0,0.0,0.0,0.0,0.0,0.0,-2.6269,-2.7949,-2.9461,-3.0855,-3.1675,-3.1847,-3.1309,-3.0236,-2.8737,-2.6878,0.0,0.0,0.0,0.0,0.0,0.0,0.0,0.0,0.0,0.0,0.0,0.0,0.0,0.0,0.0,0.0,0.0,0.0,0.0,0.0,0.0,0.0,0.0,0.0,0.0,0.0,0.0,0.0,0.0,0.0,0.0,0.0,0.0,0.0,0.0,0.0,0.0,0.0,0.0,-1.4687,-1.491,0.0,0.0,0.0,0.0,0.0,0.0,0.0,0.0,-1.483,0.0,0.0,0.0,0.0,0.0,0.0,0.0,0.0,0.0,0.0,0.0,0.0,0.0,0.0,0.0,0.0,0.0,0.0,0.0,0.0,0.0,0.0,0.0,0.0,0.0,0.0,0.0,0.0,0.0,0.0,0.0,0.0,0.0,0.0,0.0,0.0,0.0,0.0,0.0,0.0,0.0,0.0,0.0,0.0,0.0,0.0,0.0,0.0,0.0,0.0,0.0,0.0,0.0,0.0,0.0,-2.7344,-2.9062,-3.0548,-3.1886,-3.2351,-3.2281,-3.1722,-3.0382,-2.869,0.0,0.0,0.0,0.0,0.0,0.0,0.0,0.0,0.0,0.0,0.0,0.0,0.0,0.0,0.0,0.0,0.0,0.0,0.0,0.0,0.0,0.0,0.0,0.0,0.0,0.0,0.0,0.0,0.0,0.0,0.0,0.0,0.0,0.0,0.0,0.0,0.0,0.0,0.0,0.0,-1.5311,-1.5738,-1.662,0.0,0.0,0.0,0.0,0.0,0.0,-1.6072,-1.5511,0.0,0.0,0.0,0.0,0.0,0.0,0.0,0.0,0.0,0.0,0.0,0.0,0.0,0.0,0.0,0.0,0.0,0.0,0.0,0.0,0.0,0.0,0.0,0.0,0.0,0.0,0.0,0.0,0.0,0.0,0.0,0.0,0.0,0.0,0.0,0.0,0.0,0.0,0.0,0.0,0.0,0.0,0.0,0.0,0.0,0.0,0.0,0.0,0.0,0.0,0.0,0.0,0.0,0.0,0.0,-2.8262,-3.0,-3.1504,-3.263,-3.2826,-3.2568,-3.1891,-3.0212,-2.8444,0.0,0.0,0.0,0.0,0.0,0.0,0.0,0.0,0.0,0.0,0.0,0.0,0.0,0.0,0.0,0.0,0.0,0.0,0.0,0.0,0.0,0.0,0.0,0.0,0.0,0.0,0.0,0.0,0.0,0.0,0.0,0.0,0.0,0.0,0.0,0.0,0.0,0.0,0.0,0.0,0.0,-1.6473,-1.7515,-1.7275,0.0,0.0,0.0,0.0,-1.7527,-1.6914,0.0,0.0,0.0,0.0,0.0,0.0,0.0,0.0,0.0,0.0,0.0,0.0,0.0,0.0,0.0,0.0,0.0,0.0,0.0,0.0,0.0,0.0,0.0,0.0,0.0,0.0,0.0,0.0,0.0,0.0,0.0,0.0,0.0,0.0,0.0,0.0,0.0,0.0,0.0,0.0,0.0,0.0,0.0,0.0,0.0,0.0,0.0,0.0,0.0,0.0,0.0,0.0,0.0,0.0,0.0,0.0,-2.8281,-3.0,-3.1385,-3.232,-3.27,-3.2702,-3.2308,-2.9777,-2.8314,0.0,0.0,0.0,0.0,0.0,0.0,0.0,0.0,0.0,0.0,0.0,0.0,0.0,0.0,0.0,0.0,0.0,0.0,0.0,0.0,0.0,0.0,0.0,0.0,0.0,0.0,0.0,0.0,0.0,0.0,0.0,0.0,0.0,0.0,0.0,0.0,0.0,0.0,0.0,0.0,0.0,-1.7235,-1.7903,-1.7889,-1.7862,0.0,0.0,-1.8677,-1.8718,-1.8624,0.0,0.0,0.0,0.0,0.0,0.0,0.0,0.0,0.0,0.0,0.0,0.0,0.0,0.0,0.0,0.0,0.0,0.0,0.0,0.0,0.0,0.0,0.0,0.0,0.0,0.0,0.0,0.0,0.0,0.0,0.0,0.0,0.0,0.0,0.0,0.0,0.0,0.0,0.0,0.0,0.0,0.0,0.0,0.0,0.0,0.0,0.0,0.0,0.0,0.0,0.0,0.0,0.0,0.0,0.0,-2.7676,-2.9355,-3.1094,-3.2536,-3.3617,-3.3129,-3.297,-3.3103,-3.0332,-2.871,0.0,0.0,0.0,0.0,0.0,0.0,0.0,0.0,0.0,0.0,0.0,0.0,0.0,0.0,0.0,0.0,0.0,0.0,0.0,0.0,0.0,0.0,0.0,0.0,0.0,0.0,0.0,0.0,0.0,0.0,0.0,0.0,0.0,0.0,0.0,0.0,0.0,0.0,0.0,0.0,0.0,0.0,-1.8691,-1.8931,0.0,0.0,0.0,-1.9359,-1.9199,0.0,0.0,0.0,0.0,0.0,0.0,0.0,0.0,0.0,0.0,0.0,0.0,0.0,0.0,0.0,0.0,0.0,0.0,0.0,0.0,0.0,0.0,0.0,0.0,0.0,0.0,0.0,0.0,0.0,0.0,0.0,0.0,0.0,0.0,0.0,0.0,0.0,0.0,0.0,0.0,0.0,0.0,0.0,0.0,0.0,0.0,0.0,0.0,0.0,0.0,0.0,0.0,0.0,0.0,0.0,0.0,0.0,-3.0176,-3.2012,-3.3516,-3.4629,-3.3759,-3.3455,-3.3946,-3.1328,0.0,0.0,0.0,0.0,0.0,0.0,0.0,0.0,0.0,0.0,0.0,0.0,0.0,0.0,0.0,0.0,0.0,0.0,0.0,0.0,0.0,0.0,0.0,0.0,0.0,0.0,0.0,-1.2508,0.0,0.0,0.0,0.0,0.0,0.0,0.0,0.0,0.0,0.0,0.0,0.0,0.0,0.0,-1.8624,-1.9372,-1.9853,-2.0307,0.0,0.0,-2.008,-1.9993,-1.9966,-1.9586,0.0,0.0,0.0,0.0,0.0,0.0,0.0,0.0,0.0,0.0,0.0,0.0,0.0,0.0,0.0,0.0,0.0,0.0,0.0,0.0,0.0,0.0,0.0,0.0,0.0,0.0,0.0,0.0,0.0,0.0,0.0,0.0,0.0,0.0,0.0,0.0,0.0,0.0,0.0,0.0,0.0,0.0,0.0,0.0,0.0,0.0,0.0,0.0,0.0,0.0,0.0,0.0,0.0,0.0,0.0,-3.0195,-3.2305,-3.3809,-3.4648,-3.4321,-3.4316,-3.4672,-3.281,-3.1432,0.0,0.0,0.0,0.0,0.0,0.0,0.0,0.0,0.0,0.0,0.0,0.0,0.0,0.0,0.0,0.0,0.0,0.0,0.0,0.0,0.0,0.0,0.0,0.0,0.0,0.0,0.0,0.0,0.0,0.0,0.0,0.0,0.0,0.0,0.0,0.0,0.0,0.0,0.0,0.0,0.0,-1.9457,-1.9733,-2.0481,-2.1136,0.0,0.0,-2.1109,-2.1427,-2.1467,-2.1078,-1.9867,0.0,0.0,0.0,0.0,0.0,0.0,0.0,0.0,0.0,0.0,0.0,0.0,0.0,0.0,0.0,0.0,0.0,0.0,0.0,0.0,0.0,0.0,0.0,0.0,0.0,0.0,0.0,0.0,0.0,0.0,0.0,0.0,0.0,0.0,0.0,0.0,0.0,0.0,0.0,0.0,0.0,0.0,0.0,0.0,0.0,0.0,0.0,0.0,0.0,0.0,0.0,0.0,0.0,-2.916,-3.0625,-3.2734,-3.4492,-3.582,-3.4804,-3.4758,-3.597,-3.3704,-3.2286,0.0,0.0,0.0,0.0,0.0,0.0,0.0,0.0,0.0,0.0,0.0,0.0,0.0,0.0,0.0,0.0,0.0,0.0,0.0,0.0,0.0,0.0,0.0,0.0,0.0,0.0,0.0,0.0,-1.629,-1.6632,-1.6607,0.0,0.0,0.0,0.0,0.0,0.0,0.0,0.0,0.0,0.0,-2.024,-2.1002,-2.159,0.0,0.0,-2.2111,-2.1951,-2.2071,-2.179,-2.1346,-2.0468,-1.9853,0.0,0.0,0.0,0.0,0.0,0.0,0.0,0.0,0.0,0.0,0.0,0.0,0.0,0.0,0.0,0.0,0.0,0.0,0.0,0.0,0.0,0.0,0.0,0.0,0.0,0.0,0.0,0.0,0.0,0.0,0.0,0.0,0.0,0.0,0.0,0.0,0.0,0.0,0.0,0.0,0.0,0.0,0.0,0.0,0.0,0.0,0.0,0.0,0.0,0.0,0.0,0.0,-2.9902,-3.1445,-3.3574,-3.5371,-3.6816,-3.5734,-3.5655,-3.6572,-3.5047,-3.3753,0.0,0.0,0.0,0.0,0.0,0.0,0.0,0.0,0.0,0.0,0.0,0.0,0.0,0.0,0.0,0.0,0.0,0.0,0.0,0.0,0.0,0.0,0.0,0.0,0.0,0.0,0.0,0.0,-1.7376,-1.7582,-1.7454,0.0,0.0,0.0,0.0,0.0,0.0,0.0,0.0,0.0,0.0,-2.1298,-2.1923,-2.2311,-2.2632,-2.2901,-2.2605,-2.2445,-2.2539,-2.2271,-2.1842,-2.1283,0.0,0.0,0.0,0.0,0.0,0.0,0.0,0.0,0.0,0.0,0.0,0.0,0.0,0.0,0.0,0.0,0.0,0.0,0.0,0.0,0.0,0.0,0.0,0.0,0.0,0.0,0.0,0.0,0.0,0.0,-2.0605,0.0,0.0,0.0,0.0,0.0,0.0,0.0,0.0,0.0,0.0,0.0,0.0,0.0,0.0,0.0,0.0,0.0,0.0,0.0,0.0,0.0,0.0,-3.0625,-3.2734,-3.4824,-3.6387,-3.7266,-3.7246,-3.7051,-3.6777,-3.7031,-3.6211,-3.4121,0.0,0.0,0.0,0.0,0.0,0.0,0.0,0.0,0.0,0.0,0.0,0.0,0.0,0.0,0.0,0.0,0.0,0.0,0.0,0.0,0.0,0.0,0.0,0.0,0.0,0.0,-1.7192,-1.7495,-1.7978,0.0,0.0,0.0,0.0,0.0,0.0,0.0,0.0,0.0,0.0,-2.1803,-2.2738,-2.211,-2.2498,-2.2954,-2.2968,-2.2645,-2.2539,-2.2901,-2.2914,-2.2739,0.0,0.0,0.0,0.0,0.0,0.0,0.0,0.0,0.0,0.0,0.0,0.0,0.0,0.0,0.0,0.0,0.0,0.0,0.0,0.0,0.0,0.0,0.0,0.0,0.0,0.0,0.0,-2.3443,-2.3164,0.0,0.0,0.0,0.0,0.0,0.0,0.0,0.0,0.0,0.0,0.0,-2.8926,-2.9375,0.0,0.0,0.0,0.0,0.0,0.0,0.0,0.0,0.0,0.0,0.0,0.0,-3.1504,-3.2832,-3.4922,-3.6719,-3.8086,-3.7598,-3.7637,-3.834,-3.7949,-3.6855,-3.5,0.0,0.0,0.0,0.0,0.0,0.0,0.0,0.0,0.0,0.0,0.0,0.0,0.0,0.0,0.0,0.0,0.0,0.0,0.0,0.0,0.0,0.0,0.0,0.0,0.0,-2.1935,0.0,0.0,0.0,0.0,0.0,0.0,0.0,0.0,0.0,0.0,0.0,-2.1801,-2.2377,-2.3173,-2.3753,-2.3915,-2.426,-2.4591,0.0,0.0,0.0,0.0,0.0,0.0,0.0,0.0,0.0,0.0,0.0,0.0,0.0,0.0,-2.0147,-1.9042,-1.9078,-1.9345,-1.9345,0.0,0.0,0.0,0.0,0.0,0.0,0.0,0.0,0.0,0.0,0.0,0.0,0.0,0.0,-2.623,0.0,-2.6152,0.0,0.0,0.0,0.0,0.0,0.0,0.0,0.0,-2.9766,-3.0586,-3.1113,-3.1562,-3.1777,0.0,-3.1328,-2.9805,0.0,0.0,0.0,0.0,0.0,0.0,0.0,0.0,-3.2461,-3.3496,-3.5742,-3.7519,-3.8711,-3.8398,-3.8516,-3.916,-3.8516,-3.7566,-3.6336,-3.4765,-3.3024,0.0,0.0,0.0,0.0,0.0,0.0,0.0,0.0,0.0,0.0,0.0,0.0,0.0,0.0,0.0,0.0,0.0,0.0,0.0,0.0,0.0,0.0,0.0,-2.3376,0.0,0.0,0.0,0.0,0.0,0.0,0.0,0.0,0.0,-2.1481,-2.2479,-2.3694,-2.4744,-2.555,-2.6022,-2.5894,0.0,0.0,0.0,0.0,0.0,0.0,0.0,-2.4261,-2.3984,-2.3693,-2.3348,-2.2939,-2.2819,-2.2819,-2.3006,0.0,0.0,-2.0703,-2.0588,-2.0842,-2.0842,-2.0695,-2.0615,-2.0802,-2.1002,-2.1229,0.0,0.0,0.0,0.0,0.0,0.0,0.0,0.0,-2.9704,-2.9019,0.0,-2.8672,0.0,0.0,0.0,0.0,0.0,-2.9078,0.0,0.0,-3.2851,-3.3672,-3.2988,-3.3359,-3.3555,-3.3457,-3.2344,-3.1758,-3.1699,-3.1309,0.0,0.0,0.0,0.0,0.0,0.0,-3.3496,-3.4785,-3.7266,-3.8789,-3.9219,-3.9648,-3.9668,-3.9258,-3.8867,-3.8506,-3.8063,-3.6821,-3.5695,-3.4777,-3.1616,0.0,0.0,0.0,0.0,0.0,0.0,0.0,0.0,0.0,0.0,0.0,0.0,0.0,0.0,0.0,0.0,0.0,0.0,0.0,0.0,-2.4609,0.0,0.0,0.0,0.0,0.0,0.0,0.0,0.0,0.0,0.0,-2.3378,-2.4079,-2.5402,-2.7118,0.0,0.0,0.0,0.0,-2.9307,-2.8526,-2.6894,-2.6301,-2.7844,-2.6967,-2.6076,-2.5988,0.0,0.0,-2.4844,-2.4462,-2.4275,-2.4289,-2.493,-2.481,-2.2565,-2.2205,-2.2205,-2.2205,-2.2231,-2.2151,-2.2178,-2.2699,-2.3113,-3.0703,0.0,0.0,0.0,0.0,-2.9473,-3.0215,-3.1445,-3.1738,-3.1504,-3.0976,-3.1445,0.0,0.0,0.0,0.0,0.0,0.0,-3.168,-3.2988,-3.4043,-3.4883,-3.5566,-3.5996,-3.6191,-3.6172,-3.5801,-3.5801,-3.6074,-3.5976,-3.4082,-3.0566,0.0,0.0,0.0,0.0,-3.5117,-3.6152,-3.8027,-3.9238,-3.9687,-3.9824,-3.998,-4.0137,-3.9717,-3.9447,-3.9382,-3.8747,-3.7358,-3.5354,-3.4251,0.0,0.0,0.0,0.0,0.0,0.0,0.0,0.0,0.0,0.0,0.0,0.0,0.0,0.0,0.0,0.0,0.0,0.0,0.0,-2.7714,-2.8726,-2.8975,0.0,0.0,0.0,0.0,0.0,0.0,0.0,0.0,0.0,-2.9893,-2.8601,-2.8322,0.0,0.0,-3.1009,-2.9488,-3.1293,-3.2201,-3.0835,-3.1426,0.0,0.0,-3.1042,-2.9518,-2.9579,-2.8133,-2.6843,-2.6434,-2.6289,-2.6225,-2.6104,-2.6106,-2.5892,-2.5331,-2.513,-2.5117,-2.513,-2.513,-2.513,-2.5144,-2.5277,-2.5451,-3.4199,-3.291,-3.1562,-3.1289,-3.1758,-3.1914,-3.2734,-3.3984,-3.4394,-3.416,-3.3476,-3.3887,-3.3184,-3.1641,-3.1641,0.0,0.0,0.0,-3.3887,-3.5371,-3.5605,-3.625,-3.7148,-3.7441,-3.7637,-3.7793,-3.7812,-3.793,-3.8164,-3.7832,-3.6348,-3.373,0.0,0.0,-3.3848,-3.5371,-3.6406,-3.6973,-3.8769,-3.9863,-4.0137,-4.0312,-4.0449,-4.0508,-4.0453,-4.0336,-4.0156,-3.9909,-3.9074,-3.75,-3.6445,-3.4629,0.0,0.0,0.0,0.0,0.0,0.0,0.0,0.0,0.0,0.0,0.0,-2.4883,-2.4121,0.0,0.0,0.0,-2.8691,-2.9609,-3.0605,-3.1191,0.0,0.0,0.0,0.0,0.0,0.0,0.0,-3.0654,-3.1751,-3.3194,-3.4867,-3.3526,-3.2857,-3.4062,-3.4531,-3.4302,-3.3317,0.0,-3.5744,-3.4521,-3.477,-3.5452,-3.6224,-3.4518,-3.2803,-3.2079,-3.0037,-2.8325,-2.7863,-2.792,-2.7907,-2.7551,-2.7482,-2.7442,-2.7442,-2.7442,-2.7175,-2.6533,-2.64,-2.64,-2.64,-2.6573,-2.6827,-3.7402,-3.7129,-3.4004,-3.334,-3.4355,-3.4785,-3.5644,-3.6777,-3.7207,-3.6738,-3.5684,-3.6055,-3.5117,-3.3262,-3.3242,0.0,-3.5019,-3.5449,-3.6269,-3.7402,-3.7441,-3.7656,-3.8008,-3.8066,-3.8281,-3.8691,-3.8672,-3.8672,-3.8652,-3.7949,-3.7754,-3.8105,-3.7363,-3.6523,-3.5703,-3.6797,-3.7441,-3.7519,-3.9531,-4.0605,-4.0684,-4.1074,-4.1074,-4.0703,-4.1094,-4.1133,-4.0703,-4.0644,-4.0586,-4.0449,-3.8223,-3.666,-3.5957,0.0,0.0,0.0,0.0,0.0,0.0,0.0,0.0,0.0,0.0,0.0,0.0,0.0,0.0,0.0,-3.1367,0.0,-3.3633,-3.2695,0.0,0.0,0.0,-3.2004,-3.349,-3.3768,-3.4621,-3.6649,0.0,0.0,-3.8564,-3.8424,-3.8226,-3.8476,-3.8517,-3.8424,-3.8172,-3.8877,-3.9419,-3.8621,-3.7399,-3.6983,-3.8545,-3.7524,-3.5842,-3.3826,-3.1849,-3.0277,-2.9299,-2.9239,-2.919,-2.8749,-2.8845,-2.8991,-2.9018,-2.8911,-2.8537,-2.6961,-2.668,-2.6667,-2.68,-2.7175,-2.7629,-3.8262,-3.8203,-3.7383,-3.6855,-3.6562,-3.6973,-3.7344,-3.7656,-3.8086,-3.8105,-3.7832,-3.793,-3.7676,-3.7207,-3.7207,-3.7363,-3.7656,-3.7773,-3.7988,-3.8281,-3.8594,-3.8809,-3.8926,-3.9258,-3.9473,-3.957,-3.959,-3.959,-3.959,-3.9707,-3.9805,-3.9883,-3.9707,-3.8848,-3.7402,-3.7949,-3.8594,-3.9277,-4.043,-4.1328,-4.1953,-4.207,-4.207,-4.1973,-4.2383,-4.2422,-4.1992,-4.166,-4.1191,-4.0547,-3.9629,-3.8184,-3.6113,-3.4199,0.0,0.0,0.0,0.0,0.0,0.0,0.0,0.0,0.0,-2.8047,-2.7454,0.0,-3.1016,0.0,-3.4551,-3.6387,-3.6367,-3.6387,0.0,0.0,-3.5317,-3.5471,-3.5896,-3.7055,-3.788,-3.8125,-3.8767,-3.9679,-4.0918,-4.0686,-4.0897,-4.2129,-4.1243,-4.0044,-3.885,-4.0432,-4.1071,-3.9751,-4.0371,-4.1475,-4.1679,-4.0558,-3.8376,-3.514,-3.3954,-3.2807,-3.0881,-3.0609,-3.0393,-2.9617,-2.9499,-2.9379,-2.9132,-2.8958,-2.8938,-2.8497,-2.8404,-2.8484,-2.8698,-2.8845,-2.9098,-3.916,-3.916,-3.916,-3.8887,-3.8457,-3.8496,-3.8496,-3.8535,-3.8965,-3.916,-3.916,-3.916,-3.9043,-3.8887,-3.9277,-3.9336,-3.918,-3.9355,-3.9336,-3.918,-3.9414,-3.9609,-3.9805,-4.0254,-4.0566,-4.0742,-4.0937,-4.1016,-4.1035,-4.125,-4.1367,-4.1367,-4.1367,-4.0801,-3.9687,-3.9512,-3.9687,-4.0176,-4.1016,-4.1777,-4.2402,-4.2422,-4.2344,-4.2168,-4.2383,-4.2402,-4.2168,-4.1738,-4.1387,-4.1094,-4.0332,-3.916,-3.75,-3.5859,-3.4238,0.0,0.0,0.0,0.0,0.0,0.0,0.0,0.0,0.0,0.0,0.0,-3.3496,-3.4121,-3.6641,-3.7969,-3.7363,-3.75,-3.7578,-3.7461,-3.7656,-3.8105,-3.8867,-3.9785,-4.041,-4.0566,-4.1211,-4.1914,-4.2558,-4.2441,-4.2617,-4.3574,-4.2891,-4.1965,-4.1261,-4.2129,-4.2566,-4.1542,-4.2457,-4.3359,-4.3359,-4.1921,-4.0072,-3.8099,-3.6826,-3.5435,-3.3218,-3.2713,-3.228,-3.0811,-3.0299,-3.0123,-3.0035,-2.9859,-2.9771,-2.9947,-2.9859,-2.9656,-2.9312,-2.9499,-2.9793,-4.0059,-4.0059,-4.0059,-4.0078,-4.0117,-3.9707,-3.9473,-3.9414,-3.9922,-4.0176,-4.0215,-4.0215,-4.0,-3.9668,-4.0351,-4.0488,-4.0176,-4.0469,-4.041,-4.0059,-4.0117,-4.0332,-4.0703,-4.1133,-4.1523,-4.1894,-4.2266,-4.2422,-4.2422,-4.248,-4.248,-4.2422,-4.248,-4.2305,-4.1875,-4.1133,-4.0742,-4.0703,-4.1523,-4.2129,-4.25,-4.2461,-4.2246,-4.1894,-4.1875,-4.1875,-4.1855,-4.1465,-4.1426,-4.1738,-4.0684,-3.9844,-3.9355,-3.75,-3.6055,0.0,-3.3691,0.0,0.0,0.0,0.0,0.0,0.0,0.0,0.0,-3.5039,-3.6172,-3.709,-3.8223,-3.8633,-3.8008,-3.7949,-3.8398,-3.9473,-3.9668,-4.0312,-4.1758,-4.2012,-4.2324,-4.3066,-4.3164,-4.3301,-4.3594,-4.3691,-4.3691,-4.3691,-4.3633,-4.3535,-4.3652,-4.3633,-4.3633,-4.3691,-4.3691,-4.3652,-4.357,-4.2409,-4.1304,-4.0885,-3.9564,-3.7809,-3.5604,-3.5186,-3.4607,-3.269,-3.2043,-3.1717,-3.1657,-3.1301,-3.1123,-3.1184,-3.0828,-3.0287,-2.9676,-2.9726,-3.002,-4.0937,-4.0937,-4.0937,-4.1133,-4.1426,-4.1348,-4.0918,-4.0332,-4.1113,-4.1621,-4.1953,-4.1953,-4.1894,-4.1797,-4.1621,-4.1504,-4.1426,-4.1172,-4.1016,-4.0937,-4.1289,-4.1484,-4.1582,-4.1992,-4.2226,-4.2305,-4.2383,-4.2422,-4.2422,-4.2773,-4.2773,-4.2441,-4.2773,-4.2734,-4.2324,0.0,0.0,0.0,-4.2402,-4.2871,-4.293,-4.2617,-4.2383,-4.2305,-4.2305,0.0,-4.2285,-4.1914,-4.1719,-4.1777,-4.125,0.0,0.0,0.0,0.0,0.0,0.0,0.0,0.0,0.0,0.0,0.0,-3.666,-3.6523,-3.6133,-3.7246,-3.8476,-3.9668,-4.0332,-4.0898,-4.1406,-4.1445,-4.1543,-4.1777,-4.2109,-4.248,-4.2812,-4.3125,-4.3418,-4.3555,-4.3594,-4.3613,-4.3672,-4.3691,-4.3691,-4.3691,-4.3691,-4.3691,-4.3691,-4.3691,-4.3691,-4.3691,-4.3691,-4.3691,-4.3691,-4.3341,-4.2436,-4.1425,-4.0837,-3.9685,-3.793,-3.7518,-3.7363,-3.6226,-3.6243,-3.5462,-3.3907,-3.3483,-3.297,-3.1582,-3.0973,-3.0649,-3.0913,-3.0802,-3.0688,-4.1484,0.0,-4.1699,-4.1914,0.0,-4.2109,-4.1855,-4.1484,-4.1914,-4.2226,-4.2422,-4.2422,-4.2422,-4.2422,-4.2207,-4.1992,-4.1797,-4.1797,-4.168,-4.1504,-4.1914,-4.2109,-4.2129,-4.2539,-4.2734,-4.2754,-4.2949,-4.3066,-4.3066,-4.3281,-4.3262,-4.3066,-4.3281,-4.3281,-4.3066,-4.3066,-4.2851,-4.2422,-4.2871,-4.3183,-4.3379,-4.3164,-4.2969,-4.2754,0.0,0.0,0.0,0.0,0.0,0.0,0.0,0.0,0.0,0.0,0.0,-3.9277,-3.8828,-3.8672,-3.8887,-3.9082,-3.9297,-3.9512,-4.0098,-3.9922,-3.8672,-4.0137,-4.1289,-4.1738,-4.2168,-4.2519,-4.2715,-4.2754,-4.2754,-4.2773,-4.2949,-4.3144,-4.3359,-4.3574,-4.3691,-4.3691,-4.3691,-4.3691,-4.3691,-4.3691,-4.3691,-4.3691,-4.3691,-4.3711,-4.3691,-4.3691,-4.3691,-4.3691,-4.3516,-4.3379,-4.3359,-4.3183,-4.2841,-4.1903,-4.1657,-4.0897,-3.9283,-3.9108,-3.8895,-3.7879,-3.7486,-3.7105,-3.6329,-3.5217,-3.4185,-3.3395,-3.21,-3.1201,-3.1463,-3.1117,-3.0621,-4.1914,-4.1933,-4.2285,-4.2461,-4.2539,-4.2539,-4.2598,-4.2656,0.0,0.0,0.0,-4.2539,-4.25,-4.2422,-4.2344,-4.2168,-4.1933,-4.2187,-4.2168,-4.1933,-4.2344,-4.2539,-4.2558,-4.2988,-4.3183,-4.3203,-4.3535,-4.3691,-4.3691,-4.3691,-4.3691,-4.3691,-4.3691,-4.3691,-4.3691,-4.3691,-4.3535,-4.3203,-4.3125,-4.3242,-4.3574,-4.3516,-4.332,-4.2969,-4.2969,-4.2793,-4.2441,-4.2422,-4.2422,-4.2422,-4.2422,-4.2109,-4.1465,-4.1797,-4.1562,-4.0566,-4.0527,-4.0723,-4.1055,-4.1426,-4.1777,-4.2109,-4.2871,-4.2656,-4.1094,-4.2656,-4.3555,-4.3223,-4.3496,-4.3555,-4.3223,-4.3183,-4.3183,-4.3183,-4.3183,-4.334,-4.3633,-4.3691,-4.3691,-4.3691,-4.3691,-4.3691,-4.3691,-4.3691,-4.3691,-4.3711,-4.3789,-4.3867,-4.3906,-4.3926,-4.3828,-4.3711,-4.3574,-4.3359,-4.3183,-4.2988,-4.2676,-4.2631,-4.2654,-4.2071,-4.0934,-4.0684,-4.0289,-3.9294,-3.8626,-3.8698,-3.8579,-3.738,-3.5999,-3.5912,-3.4143,-3.2496,-3.2265,-3.1659,-3.099,-4.2344,-4.2344,-4.2402,-4.2637,-4.2988,-4.2988,-4.3183,-4.3476,-4.3144,-4.2988,-4.2988,-4.2988,-4.2773,-4.2402,-4.2051,-4.2051,-4.2305,-4.2031,-4.2051,-4.2363,-4.2773,-4.2988,-4.3008,-4.3418,-4.3613,-4.3613,-4.3672,-4.3691,-4.3691,-4.3691,-4.3691,-4.3691,-4.3691,-4.3691,-4.3691,-4.3691,-4.3672,-4.3613,-4.3262,-4.3105,-4.3164,-4.2793,-4.2578,-4.2519,-4.2539,-4.25,-4.2422,-4.2422,-4.2422,-4.2422,-4.2422,-4.2363,-4.2285,-4.2656,-4.2812,-4.2676,-4.2969,-4.3203,-4.3242,-4.332,-4.3379,-4.3457,-4.3926,-4.3789,-4.2851,-4.332,-4.3672,-4.3613,-4.3672,-4.3691,-4.3613,-4.3594,-4.3574,-4.3594,-4.3613,-4.3652,-4.3691,-4.3691,-4.3691,-4.3691,-4.3691,-4.3711,-4.375,-4.373,-4.375,-4.3789,-4.4082,-4.4414,-4.4629,-4.4531,-4.416,-4.3867,-4.4004,-4.4004,-4.3711,-4.3574,-4.3457,-4.3516,-4.3457,-4.3336,-4.2905,-4.2939,-4.285,-4.2767,-4.2447,-4.2068,-4.0958,-4.0379,-3.9331,-3.8254,-3.7214,-3.6386,-3.4694,-3.3754,-3.2739,-4.2773,-4.2812,-4.3027,-4.3242,-4.3418,-4.3418,-4.3398,-4.3359,-4.3164,-4.3066,-4.3047,-4.2832,-4.248,-4.209,-4.1894,-4.1894,-4.2109,-4.2363,-4.2598,-4.2793,-4.2988,-4.3203,-4.3398,-4.3379,-4.3496,-4.3691,-4.3691,-4.3691,-4.3691,-4.3691,-4.3691,-4.3691,-4.3691,-4.3691,-4.3691,-4.3691,-4.3691,-4.3691,-4.3516,-4.3418,-4.3418,-4.3223,-4.3125,-4.3125,-4.3125,-4.3125,-4.3125,-4.3125,-4.3125,-4.3125,-4.3359,-4.3379,-4.3164,-4.3769,-4.3926,-4.3476,-4.3828,-4.3965,-4.3711,-4.3691,-4.3808,-4.4062,-4.4043,-4.3867,-4.3457,-4.3828,-4.3984,-4.373,-4.3691,-4.3691,-4.3691,-4.3691,-4.3691,-4.3691,-4.3691,-4.3691,-4.3691,-4.3691,-4.3691,-4.3691,-4.3691,-4.3808,-4.4062,-4.4082,-4.4199,-4.4375,-4.4629,-4.4844,-4.5019,-4.5078,-4.4922,-4.4531,-4.4433,-4.4316,-4.4101,-4.3848,-4.373,-4.3691,-4.3691,-4.3691,-4.373,-4.3887,-4.4062,-4.4101,-4.4238,-4.4058,-4.3196,-4.2348,-4.1391,-4.0704,-3.9201,-3.7837,-3.6009,-3.5021,-3.356,-4.3223,-4.3262,-4.3574,-4.3691,-4.3691,-4.3594,-4.3379,-4.3086,-4.3066,-4.3027,-4.2891,-4.2558,-4.2187,-4.1836,-4.1894,-4.1992,-4.2168,-4.2773,-4.3125,-4.3203,-4.3223,-4.3398,-4.3652,-4.3359,-4.3398,-4.3672,-4.3691,-4.3691,-4.3691,-4.3691,-4.3691,-4.3691,-4.3691,-4.3691,-4.3691,-4.3691,-4.3691,-4.3691,-4.3691,-4.3691,-4.3691,-4.3691,-4.3691,-4.3691,-4.3691,-4.3691,-4.3691,-4.3691,-4.3691,-4.3711,-4.4043,-4.4082,-4.3769,-4.4355,-4.4414,-4.3828,-4.4043,-4.4082,-4.375,-4.3691,-4.3867,-4.4199,-4.3906,-4.3691,-4.373,-4.4023,-4.4101,-4.3769,-4.3691,-4.3691,-4.3711,-4.3828,-4.3828,-4.373,-4.3808,-4.3887,-4.3867,-4.3867,-4.3906,-4.3965,-4.4004,-4.416,-4.4433,-4.4531,-4.4687,-4.5058,-4.5176,-4.5195,-4.5332,-4.5625,-4.5644,-4.5351,-4.4961,-4.4687,-4.4551,-4.4277,-4.4082,-4.4004,-4.4023,-4.4082,-4.4121,-4.4355,-4.4512,-4.457,-4.4766,-4.4837,-4.481,-4.3823,-4.2873,-4.2542,-4.1492,-3.9722,-3.7942,-3.6553,-3.4682,-4.3633,-4.3652,-4.3691,-4.3691,-4.3672,-4.332,-4.3144,-4.3086,-4.3066,-4.2851,-4.2519,-4.2441,-4.2207,-4.1875,-4.2207,-4.2578,-4.291,-4.3047,-4.3281,-4.3594,-4.3652,-4.3672,-4.3691,-4.3652,-4.3672,-4.3691,-4.3691,-4.3691,-4.3691,-4.3691,-4.3691,-4.3691,-4.3691,-4.3691,-4.3691,-4.3691,-4.3691,-4.3691,-4.3691,-4.3691,-4.3691,-4.3691,-4.3691,-4.3691,-4.3691,-4.3691,-4.3691,-4.3691,-4.3691,-4.3711,-4.375,-4.375,-4.373,-4.3789,-4.3789,-4.3711,-4.375,-4.375,-4.3711,-4.3691,-4.375,-4.375,-4.375,-4.3691,-4.3691,-4.375,-4.3769,-4.373,-4.3711,-4.3691,-4.373,-4.4062,-4.4121,-4.3828,-4.4101,-4.4336,-4.4336,-4.4336,-4.4473,-4.4863,-4.4805,-4.4922,-4.4941,-4.5,-4.5156,-4.5547,-4.5625,-4.5723,-4.5996,-4.6113,-4.6172,-4.6074,-4.5801,-4.541,-4.5098,-4.4961,-4.4902,-4.4902,-4.4902,-4.4902,-4.4922,-4.4941,-4.498,-4.5117,-4.5058,-4.5156,-4.5039,-4.4492,-4.4233,-4.4106,-4.3642,-4.3084,-4.1377,-3.9385,-3.6568,-4.3691,-4.3691,-4.3691,-4.3867,-4.4043,-4.3633,-4.3457,-4.3437,-4.3183,-4.2832,-4.25,-4.2695,-4.2578,-4.2207,-4.2617,-4.291,-4.3086,-4.334,-4.3535,-4.3672,-4.3457,-4.3457,-4.3672,-4.3437,-4.3457,-4.3691,-4.3691,-4.3691,-4.3691,-4.3691,-4.3691,-4.3691,-4.3691,-4.3691,-4.3691,-4.3691,-4.3691,-4.3691,-4.3691,-4.3691,-4.3691,-4.3691,-4.3691,-4.3691,-4.3691,-4.3691,-4.3691,-4.3691,-4.3691,-4.3691,-4.3691,-4.3691,-4.3691,-4.3691,-4.3691,-4.3711,-4.3965,-4.4121,-4.4121,-4.4121,-4.3984,-4.373,-4.3691,-4.3691,-4.3711,-4.3945,-4.4121,-4.4082,-4.3867,-4.3691,-4.375,-4.4121,-4.4316,-4.4199,-4.4492,-4.4766,-4.4766,-4.4766,-4.4844,-4.5019,-4.5039,-4.5137,-4.5371,-4.5625,-4.584,-4.6016,-4.6055,-4.6172,-4.6289,-4.6308,-4.6308,-4.6289,-4.6133,-4.5996,-4.5801,-4.5781,-4.5781,-4.5781,-4.5781,-4.5781,-4.5781,-4.5781,-4.5781,-4.5781,-4.5723,-4.5723,-4.582,-4.5683,-4.5527,-4.5344,-4.4328,-4.3535,-4.2788,-4.1726,-3.9532,-4.3789,-4.3906,-4.4023,-4.4258,-4.4512,-4.3945,-4.3691,-4.3652,-4.3262,-4.2891,-4.2676,-4.3066,-4.3066,-4.2851,-4.3105,-4.3242,-4.3281,-4.3574,-4.3691,-4.3672,-4.3379,-4.3418,-4.3652,-4.3418,-4.3398,-4.3672,-4.3691,-4.3691,-4.3691,-4.3691,-4.3691,-4.3691,-4.3691,-4.3691,-4.3691,-4.3691,-4.3769,-4.3887,-4.3906,-4.3945,-4.4062,-4.4062,-4.4004,-4.3926,-4.4004,-4.4062,-4.4062,-4.4062,-4.4062,-4.4062,-4.4062,-4.4062,-4.4062,-4.4062,-4.4062,-4.4101,-4.4375,-4.4512,-4.4414,-4.4394,-4.4199,-4.3769,-4.3808,-4.3887,-4.3965,-4.4316,-4.4551,-4.4551,-4.4258,-4.4101,-4.4121,-4.4473,-4.4687,-4.4629,-4.4941,-4.5195,-4.5195,-4.5195,-4.5254,-4.5351,-4.5449,-4.5488,-4.582,-4.6191,-4.6465,-4.6465,-4.6582,-4.666,-4.666,-4.668,-4.668,-4.666,-4.666,-4.6601,-4.6504,-4.6445,-4.6504,-4.666,-4.666,-4.666,-4.6621,-4.6582,-4.6465,-4.6348,-4.6367,-4.625,-4.6094,-4.6172,-4.6074,-4.5754,-4.4968,-4.4183,-4.4253,-4.3895,-4.2762,-4.3965,-4.4394,-4.4785,-4.4941,-4.4941,-4.4101,-4.373,-4.3808,-4.332,-4.3086,-4.3144,-4.3476,-4.3652,-4.3594,-4.3613,-4.3652,-4.3672,-4.3691,-4.3691,-4.3691,-4.3672,-4.3672,-4.3691,-4.3672,-4.3672,-4.3691,-4.3691,-4.3691,-4.3691,-4.3691,-4.3691,-4.3691,-4.373,-4.373,-4.375,-4.3769,-4.3945,-4.4316,-4.4355,-4.4531,-4.4883,-4.4941,-4.4746,-4.4473,-4.4746,-4.4902,-4.4922,-4.4941,-4.4941,-4.4941,-4.4902,-4.4922,-4.4941,-4.4941,-4.4922,-4.4961,-4.498,-4.4824,-4.4512,-4.4473,-4.4258,-4.3887,-4.416,-4.4355,-4.4394,-4.4746,-4.498,-4.5,-4.498,-4.4961,-4.5,-4.5254,-4.5351,-4.5078,-4.5391,-4.5605,-4.5644,-4.5644,-4.584,-4.6113,-4.623,-4.6269,-4.6308,-4.6641,-4.6875,-4.6973,-4.7246,-4.7441,-4.7383,-4.7441,-4.7422,-4.7422,-4.7402,-4.7363,-4.7012,-4.6894,-4.709,-4.7207,-4.7246,-4.7422,-4.7363,-4.7246,-4.7031,-4.6855,-4.668,-4.6484,-4.6289,-4.6074,-4.584,-4.5734,-4.5909,-4.557,-4.5749,-4.6011,-4.5013,-4.4414,-4.4805,-4.4961,-4.5176,-4.5371,-4.4805,-4.4707,-4.4902,-4.4219,-4.3926,-4.3887,-4.3769,-4.3691,-4.3691,-4.3691,-4.3691,-4.3691,-4.3691,-4.3691,-4.3691,-4.3691,-4.3691,-4.3691,-4.3691,-4.3691,-4.3691,-4.3691,-4.3691,-4.3691,-4.3691,-4.3691,-4.3769,-4.4004,-4.4141,-4.4199,-4.4414,-4.4648,-4.4785,-4.4805,-4.4883,-4.5058,-4.5293,-4.5351,-4.5215,-4.5078,-4.5039,-4.5039,-4.5039,-4.5039,-4.5039,-4.5039,-4.5039,-4.5039,-4.5039,-4.5156,-4.541,-4.5449,-4.5371,-4.5234,-4.5215,-4.5019,-4.4629,-4.4687,-4.4805,-4.4863,-4.5176,-4.5449,-4.5488,-4.5703,-4.582,-4.5801,-4.5762,-4.5625,-4.5527,-4.582,-4.6074,-4.6074,-4.6094,-4.623,-4.6641,-4.6914,-4.7129,-4.709,-4.7246,-4.7344,-4.7363,-4.75,-4.7598,-4.7598,-4.7598,-4.7637,-4.7598,-4.7578,-4.7637,-4.7812,-4.748,-4.7402,-4.748,-4.7558,-4.7558,-4.7519,-4.7519,-4.7363,-4.7324,-4.7109,-4.6992,-4.6894,-4.6875,-4.6504,-4.6562,-4.668,-4.6641,-4.709,-4.69,-4.6395,-4.4961,-4.5234,-4.5371,-4.5605,-4.5801,-4.541,-4.541,-4.5586,-4.4922,-4.4531,-4.4355,-4.4062,-4.3848,-4.3711,-4.3691,-4.3691,-4.3691,-4.3691,-4.3691,-4.3691,-4.3691,-4.3691,-4.3691,-4.3691,-4.3691,-4.3691,-4.3691,-4.3691,-4.3691,-4.3691,-4.3789,-4.3945,-4.4258,-4.4473,-4.4629,-4.4883,-4.5078,-4.5195,-4.5234,-4.5293,-4.5449,-4.5723,-4.5879,-4.584,-4.5586,-4.543,-4.5449,-4.543,-4.543,-4.543,-4.543,-4.543,-4.543,-4.5449,-4.5566,-4.584,-4.5879,-4.582,-4.5703,-4.5683,-4.5488,-4.5098,-4.5156,-4.5234,-4.5273,-4.5625,-4.584,-4.5937,-4.6094,-4.6308,-4.6289,-4.6152,-4.6035,-4.5976,-4.625,-4.6504,-4.6523,-4.6641,-4.6836,-4.7109,-4.7344,-4.7539,-4.7598,-4.7695,-4.7754,-4.7793,-4.7891,-4.7988,-4.7988,-4.7988,-4.7988,-4.8008,-4.8047,-4.8164,-4.8281,-4.8164,-4.8047,-4.8086,-4.8047,-4.7949,-4.7851,-4.7832,-4.7773,-4.7754,-4.7695,-4.7617,-4.7598,-4.7598,-4.7598,-4.7617,-4.7441,-4.7266,-4.748,-4.7539,-4.7147,-4.5664,-4.5723,-4.6133,-4.623,-4.6191,-4.5801,-4.5664,-4.5758,-4.5307,-4.494,-4.471,-4.4503,-4.419,-4.3769,-4.3691,-4.3691,-4.3691,-4.3691,-4.3691,-4.3691,-4.3691,-4.3691,-4.3691,-4.3691,-4.3691,-4.3691,-4.3691,-4.3691,-4.3691,-4.3769,-4.3965,-4.4297,-4.4453,-4.4726,-4.5019,-4.5117,-4.5312,-4.5586,-4.5683,-4.5859,-4.623,-4.625,-4.625,-4.6269,-4.6211,-4.6191,-4.623,-4.623,-4.6191,-4.6211,-4.623,-4.6289,-4.6191,-4.6191,-4.6269,-4.623,-4.6269,-4.6094,-4.5762,-4.5723,-4.5566,-4.5293,-4.5469,-4.5683,-4.5742,-4.6016,-4.625,-4.623,-4.6308,-4.6348,-4.6426,-4.666,-4.6719,-4.6426,-4.668,-4.6933,-4.7012,-4.7324,-4.7578,-4.7598,-4.7676,-4.7617,-4.7695,-4.7988,-4.8203,-4.8281,-4.8476,-4.8672,-4.8652,-4.8633,-4.8789,-4.8769,-4.8633,-4.8594,-4.873,-4.8828,-4.8808,-4.8789,-4.8691,-4.8594,-4.8457,-4.8398,-4.8242,-4.8183,-4.8066,-4.7988,-4.7988,-4.7988,-4.793,-4.791,-4.7812,-4.7891,-4.7988,-4.8125,-4.8118,-4.584,-4.6113,-4.625,-4.6308,-4.625,-4.5859,-4.6333,-4.7237,-4.6591,-4.6267,-4.6084,-4.582,-4.4942,-4.3896,-4.3691,-4.3691,-4.3691,-4.3691,-4.3691,-4.3774,-4.3691,-4.3691,-4.3691,-4.3691,-4.3691,-4.3691,-4.3691,-4.3711,-4.3769,-4.4023,-4.4277,-4.4473,-4.5,-4.5312,-4.5488,-4.5742,-4.5996,-4.6074,-4.6113,-4.6191,-4.6289,-4.6308,-4.6308,-4.6308,-4.6308,-4.6308,-4.6308,-4.6308,-4.6308,-4.6308,-4.6308,-4.6308,-4.6308,-4.6308,-4.6308,-4.6308,-4.6308,-4.6269,-4.6133,-4.6094,-4.6035,-4.5937,-4.6035,-4.6094,-4.6113,-4.6211,-4.6308,-4.6348,-4.6543,-4.6738,-4.6797,-4.7129,-4.7187,-4.6777,-4.7109,-4.7383,-4.7461,-4.7773,-4.7969,-4.8047,-4.8262,-4.8437,-4.8457,-4.8613,-4.8613,-4.8613,-4.8769,-4.8848,-4.8848,-4.8848,-4.8848,-4.8848,-4.8848,-4.8848,-4.8848,-4.8848,-4.8848,-4.8848,-4.8848,-4.8848,-4.8789,-4.875,-4.8633,-4.8652,-4.8516,-4.8476,-4.8476,-4.8457,-4.8476,-4.8457,-4.8555,-4.8594,-4.8633,-4.8677,-4.876,-4.6055,-4.6289,-4.6308,-4.6726,-4.7208,-4.7015,-4.78,-4.8924,-4.7942,-4.7567,-4.7559,-4.6168,-4.531,-4.478,-4.4658,-4.4658,-4.4658,-4.4678,-4.4658,-4.4494,-4.3856,-4.3691,-4.3691,-4.3691,-4.3691,-4.3691,-4.3691,-4.3789,-4.3984,-4.4258,-4.4551,-4.4941,-4.543,-4.5762,-4.5898,-4.6152,-4.6308,-4.6308,-4.6289,-4.6308,-4.6308,-4.6308,-4.6308,-4.6308,-4.6308,-4.6308,-4.6308,-4.6308,-4.6308,-4.6308,-4.6308,-4.6308,-4.6308,-4.6308,-4.6308,-4.6308,-4.6308,-4.6308,-4.6308,-4.6269,-4.6308,-4.6308,-4.6308,-4.6289,-4.6308,-4.6308,-4.6348,-4.6562,-4.6758,-4.6992,-4.7187,-4.7558,-4.7656,-4.7441,-4.7656,-4.7871,-4.8027,-4.8281,-4.8437,-4.8496,-4.8672,-4.8828,-4.8848,-4.8848,-4.8848,-4.8848,-4.8848,-4.8848,-4.8848,-4.8848,-4.8887,-4.8887,-4.8848,-4.8848,-4.8848,-4.8848,-4.8848,-4.8848,-4.8848,-4.8848,-4.8828,-4.8828,-4.8769,-4.9121,-4.916,-4.9336,-4.9355,-4.9355,-4.9355,-4.9336,-4.9258,-4.9375,-4.9433,-4.9414,-4.9438,-4.625,-4.6269,-4.6376,-4.7488,-4.8805,-4.8999,-4.9807,-5.0652,-4.9424,-4.9036,-4.8882,-4.6906,-4.5799,-4.6326,-4.6405,-4.6405,-4.6426,-4.6426,-4.6405,-4.5941,-4.4904,-4.4021,-4.3691,-4.3691,-4.3691,-4.3691,-4.3691,-4.3945,-4.4297,-4.4453,-4.4844,-4.5527,-4.5683,-4.5898,-4.6191,-4.6308,-4.6308,-4.6308,-4.6308,-4.6308,-4.6308,-4.6308,-4.6308,-4.6308,-4.6308,-4.6308,-4.6308,-4.6308,-4.6308,-4.6308,-4.6308,-4.6308,-4.6308,-4.6308,-4.6308,-4.6308,-4.6308,-4.6308,-4.6308,-4.6308,-4.6308,-4.6308,-4.6308,-4.6308,-4.6308,-4.6387,-4.6543,-4.6816,-4.7012,-4.7226,-4.7598,-4.7988,-4.8183,-4.8223,-4.8223,-4.8398,-4.875,-4.8808,-4.8808,-4.8867,-4.8906,-4.8926,-4.9023,-4.9043,-4.9043,-4.9043,-4.9062,-4.9101,-4.9101,-4.916,-4.9004,-4.9043,-4.918,-4.9219,-4.9336,-4.9336,-4.9355,-4.9355,-4.9277,-4.918,-4.9121,-4.9121,-4.9199,-4.9531,-4.9805,-5.0019,-5.0078,-4.9941,-4.9922,-4.9863,-4.9922,-5.0137,-5.0098,-4.9961,-4.9922,-4.584,-4.6052,-4.7606,-4.8568,-4.9105,-5.0059,-5.14,-5.2633,-5.203,-5.1398,-5.1176,-5.0533,-4.9119,-4.8266,-4.8165,-4.8143,-4.8165,-4.8143,-4.8143,-4.7905,-4.6405,-4.4904,-4.3939,-4.3691,-4.3774,-4.3793,-4.3896,-4.3945,-4.4394,-4.4726,-4.5156,-4.5664,-4.5976,-4.6172,-4.6289,-4.6308,-4.6308,-4.6308,-4.6308,-4.6308,-4.6308,-4.6308,-4.6308,-4.6308,-4.6308,-4.6308,-4.6308,-4.6308,-4.6308,-4.6308,-4.6308,-4.6308,-4.6308,-4.6308,-4.6308,-4.6308,-4.6308,-4.6308,-4.6308,-4.6308,-4.6308,-4.6308,-4.6328,-4.6308,-4.6308,-4.6601,-4.6797,-4.7031,-4.7441,-4.7891,-4.8086,-4.8418,-4.8633,-4.8691,-4.8672,-4.873,-4.8848,-4.8867,-4.8965,-4.9258,-4.9336,-4.9473,-4.9668,-4.9746,-4.9746,-4.9746,-4.9746,-4.9746,-4.9648,-4.9668,-4.9609,-4.9766,-4.9883,-4.9863,-4.9883,-4.9883,-4.9883,-4.9922,-4.9844,-4.9726,-4.9687,-4.9668,-4.9805,-5.0039,-5.0176,-5.0391,-5.0273,-5.0137,-5.0176,-5.0351,-5.0312,-5.0371,-5.0254,-5.0117,-5.0176,-4.6683,-4.7953,-4.8725,-4.9913,-5.122,-5.2121,-5.3206,-5.4208,-5.361,-5.3409,-5.3171,-5.19,-5.1086,-5.05,-5.0299,-5.0188,-5.0165,-4.9964,-4.9875,-4.9562,-4.8143,-4.6486,-4.521,-4.4822,-4.4822,-4.4862,-4.492,-4.4885,-4.4752,-4.5078,-4.5508,-4.5918,-4.6172,-4.6289,-4.6308,-4.6308,-4.6308,-4.6308,-4.6308,-4.6308,-4.6308,-4.6308,-4.6308,-4.6308,-4.6308,-4.6308,-4.6308,-4.6465,-4.6504,-4.6348,-4.6308,-4.6308,-4.6308,-4.6308,-4.6308,-4.6308,-4.6308,-4.6308,-4.6308,-4.6308,-4.6308,-4.6348,-4.6426,-4.6543,-4.6641,-4.6953,-4.7226,-4.7539,-4.7969,-4.8242,-4.8496,-4.873,-4.8828,-4.8867,-4.9023,-4.9121,-4.9141,-4.916,-4.9355,-4.9648,-4.9824,-4.9863,-5.0156,-5.0176,-5.0176,-5.0156,-5.0078,-5.0098,-5.0098,-5.0176,-5.0234,-5.0293,-5.0273,-5.0195,-5.0156,-5.0156,-5.0195,-5.0234,-5.0391,-5.0273,-5.0195,-5.0176,-5.0312,-5.0469,-5.0586,-5.0664,-5.0605,-5.0605,-5.0781,-5.0859,-5.0723,-5.0664,-5.0644,-5.0527,-5.0547,-4.8325,-5.0839,-4.9892,-5.1409,-5.3997,-5.4487,-5.5145,-5.5819,-5.485,-5.4601,-5.4673,-5.2343,-5.2229,-5.3079,-5.2479,-5.234,-5.2294,-5.1732,-5.1339,-5.0753,-4.9641,-4.8302,-4.7208,-4.6647,-4.6566,-4.6629,-4.6943,-4.6639,-4.6253,-4.616,-4.6186,-4.6568,-4.6531,-4.6308,-4.6308,-4.6308,-4.6308,-4.6308,-4.6308,-4.6308,-4.6308,-4.6308,-4.6308,-4.6308,-4.6308,-4.6308,-4.6406,-4.6621,-4.6719,-4.6308,-4.6328,-4.6367,-4.6348,-4.6308,-4.6308,-4.6308,-4.6308,-4.6308,-4.6308,-4.6308,-4.6348,-4.6445,-4.6738,-4.6953,-4.7051,-4.7383,-4.7754,-4.8008,-4.8223,-4.8476,-4.8711,-4.8848,-4.8926,-4.9004,-4.9316,-4.9492,-4.9629,-4.9629,-4.9766,-5.0156,-5.0234,-5.0254,-5.0293,-5.0312,-5.0351,-5.0644,-5.0586,-5.0605,-5.0605,-5.0625,-5.0605,-5.0547,-5.0508,-5.041,-5.0391,-5.0391,-5.0449,-5.0508,-5.0762,-5.0781,-5.0644,-5.0664,-5.0781,-5.0918,-5.0976,-5.1094,-5.1191,-5.1269,-5.1308,-5.1289,-5.1094,-5.123,-5.1348,-5.1133,-5.1074,-4.9958,-5.1065,-5.254,-5.3587,-5.4487,-5.5748,-5.6526,-5.6725,-5.6407,-5.6001,-5.5872,-5.5123,-5.4784,-5.4795,-5.4141,-5.4057,-5.3832,-5.3305,-5.2641,-5.1293,-5.1062,-5.0653,-4.9875,-4.9035,-4.8324,-4.8453,-4.88,-4.8952,-4.8789,-4.8148,-4.7967,-4.827,-4.7141,-4.6308,-4.6396,-4.6376,-4.6308,-4.6308,-4.6308,-4.6396,-4.6464,-4.6464,-4.6464,-4.6464,-4.6396,-4.6308,-4.6387,-4.6699,-4.6719,-4.6504,-4.6601,-4.666,-4.6387,-4.6308,-4.6308,-4.6308,-4.6308,-4.6308,-4.6308,-4.6328,-4.6445,-4.6738,-4.6933,-4.707,-4.7441,-4.7832,-4.8086,-4.8281,-4.8516,-4.8711,-4.8828,-4.8848,-4.9023,-4.9277,-4.9512,-4.9844,-5.0293,-5.0215,-5.0254,-5.0547,-5.0683,-5.0781,-5.1074,-5.1055,-5.1094,-5.1133,-5.1113,-5.1133,-5.1094,-5.1035,-5.0976,-5.0898,-5.0898,-5.0859,-5.0859,-5.084,-5.084,-5.084,-5.1035,-5.1172,-5.1035,-5.1035,-5.1113,-5.123,-5.1328,-5.1426,-5.1426,-5.1426,-5.1387,-5.1406,-5.1445,-5.1445,-5.1445,-5.1445,-5.1426,-5.1923,-5.3474,-5.4036,-5.4754,-5.5644,-5.6335,-5.666,-5.6588,-5.6371,-5.6107,-5.589,-5.5842,-5.5674,-5.5361,-5.488,-5.4592,-5.4544,-5.4327,-5.3561,-5.2758,-5.2676,-5.27,-5.2483,-5.1855,-5.1249,-5.0614,-5.0803,-5.0974,-5.0486,-5.0198,-5.0018,-5.0061,-4.8482,-4.7727,-4.7314,-4.6813,-4.6308,-4.6308,-4.6308,-4.6638,-4.7401,-4.7554,-4.7554,-4.7314,-4.6813,-4.6308,-4.6328,-4.6933,-4.6836,-4.6621,-4.6875,-4.6933,-4.6426,-4.6308,-4.6308,-4.6308,-4.6308,-4.6308,-4.6308,-4.6504,-4.6699,-4.6933,-4.7266,-4.7598,-4.791,-4.8262,-4.8476,-4.8555,-4.8711,-4.8848,-4.8867,-4.9101,-4.9316,-4.9531,-4.9902,-5.0312,-5.0644,-5.0605,-5.0644,-5.0976,-5.1094,-5.1191,-5.1348,-5.1426,-5.1426,-5.1289,-5.1289,-5.1308,-5.1308,-5.1269,-5.1308,-5.1289,-5.1328,-5.1348,-5.1348,-5.1328,-5.1269,-5.125,-5.1269,-5.1348,-5.1289,-5.1328,-5.1387,-5.1426,-5.1426,-5.1426,-5.1445,-5.1445,-5.1445,-5.1445,-5.1445,-5.1445,-5.1445,-5.1445,-5.1445,-5.3944,-5.6238,-5.5158,-5.5587,-5.6765,-5.6468,-5.6275,-5.6101,-5.5626,-5.5506,-5.5409,-5.5385,-5.5433,-5.5289,-5.4977,-5.4712,-5.464,-5.4712,-5.4243,-5.3668,-5.3999,-5.388,-5.3712,-5.3699,-5.3595,-5.2681,-5.3089,-5.2753,-5.233,-5.1978,-5.2011,-5.1743,-5.0336,-4.9488,-4.8997,-4.8073,-4.7554,-4.7727,-4.7727,-4.8159,-4.9168,-4.9403,-4.9403,-4.9168,-4.7814,-4.7133,-4.7157,-4.7386,-4.7207,-4.6523,-4.7168,-4.7031,-4.6543,-4.6308,-4.6308,-4.6308,-4.6308,-4.6367,-4.6504,-4.6719,-4.6953,-4.709,-4.7715,-4.8183,-4.8359,-4.8574,-4.873,-4.8808,-4.8867,-4.8906,-4.8965,-4.9238,-4.9531,-4.9844,-5.043,-5.0762,-5.0898,-5.0898,-5.1074,-5.1289,-5.1328,-5.1367,-5.1387,-5.1445,-5.1445,-5.1445,-5.1445,-5.1445,-5.1445,-5.1445,-5.1445,-5.1445,-5.1445,-5.1445,-5.1445,-5.1445,-5.1445,-5.1445,-5.1445,-5.1445,-5.1445,-5.1445,-5.1445,-5.1445,-5.1426,-5.1445,-5.1445,-5.1445,-5.1445,-5.1445,-5.1445,-5.1445,-5.1445,-5.1445,-5.1445,-5.5985,-5.6821,-5.6654,-5.6758,-5.6869,-5.6468,-5.6227,-5.6131,-5.5578,-5.5385,-5.5361,-5.5361,-5.5313,-5.5289,-5.5313,-5.5025,-5.4885,-5.5001,-5.476,-5.4111,-5.4399,-5.4375,-5.4111,-5.4471,-5.4626,-5.5004,-5.5223,-5.5186,-5.4874,-5.4477,-5.3893,-5.3505,-5.2077,-5.1241,-5.1157,-5.0843,-5.0252,-5.0083,-5.0167,-5.059,-5.1095,-5.1263,-5.1263,-5.1095,-4.953,-4.8794,-4.8621,-4.8027,-4.7344,-4.6933,-4.7324,-4.714,-4.6962,-4.6745,-4.659,-4.6367,-4.6367,-4.6504,-4.6797,-4.6933,-4.7344,-4.7812,-4.8164,-4.8398,-4.8633,-4.8789,-4.8848,-4.8867,-4.8906,-4.9023,-4.9375,-4.957,-4.9922,-5.0371,-5.0703,-5.0957,-5.1211,-5.1289,-5.1289,-5.1406,-5.1445,-5.1445,-5.1445,-5.1445,-5.1445,-5.1445,-5.1445,-5.1445,-5.1445,-5.1445,-5.1445,-5.1445,-5.1445,-5.1445,-5.1445,-5.1445,-5.1445,-5.1445,-5.1445,-5.1445,-5.1445,-5.1445,-5.1445,-5.1445,-5.1445,-5.1445,-5.1445,-5.1445,-5.1445,-5.1445,-5.1445,-5.1445,-5.1445,-5.1445,-5.1445,-5.7012,-5.7339,-5.7339,-5.7339,-5.7163,-5.6546,-5.6059,-5.5722,-5.5241,-5.4832,-5.464,-5.4568,-5.4592,-5.4716,-5.521,-5.5259,-5.5476,-5.5655,-5.5193,-5.4544,-5.4712,-5.4736,-5.4327,-5.476,-5.5313,-5.5842,-5.6371,-5.6612,-5.6581,-5.6032,-5.5587,-5.5264,-5.3915,-5.3093,-5.2741,-5.1993,-5.1932,-5.1765,-5.1849,-5.2243,-5.2928,-5.3011,-5.3011,-5.2642,-5.1564,-5.0463,-4.9634,-4.9766,-4.9037,-4.8614,-4.8796,-4.9019,-4.9111,-4.9032,-4.8571,-4.7148,-4.6729,-4.6816,-4.7226,-4.7441,-4.7812,-4.8125,-4.8379,-4.8613,-4.8789,-4.8848,-4.8867,-4.8906,-4.9141,-4.9277,-4.9492,-4.9902,-5.0371,-5.0703,-5.0976,-5.1191,-5.1348,-5.1426,-5.1445,-5.1445,-5.1445,-5.1445,-5.1445,-5.1445,-5.1445,-5.1445,-5.1445,-5.1445,-5.1445,-5.1445,-5.1445,-5.1445,-5.1445,-5.1445,-5.1445,-5.1445,-5.1445,-5.1445,-5.1445,-5.1445,-5.1445,-5.1445,-5.1445,-5.1445,-5.1445,-5.1445,-5.1445,-5.1445,-5.1445,-5.1445,-5.1445,-5.1445,-5.1445,-5.1445,-5.1445,-5.7536,-5.7734,-5.7734,-5.7734,-5.7558,-5.6837,-5.6299,-5.5714,-5.521,-5.4651,-5.4165,-5.412,-5.4096,-5.4241,-5.4999,-5.5686,-5.6196,-5.6287,-5.5674,-5.4856,-5.5073,-5.5097,-5.488,-5.5169,-5.565,-5.6131,-5.6684,-5.7021,-5.6949,-5.6837,-5.6941,-5.6518,-5.5345,-5.4835,-5.4568,-5.3834,-5.2846,-5.2763,-5.2763,-5.3587,-5.451,-5.4835,-5.4905,-5.4812,-5.3693,-5.2339,-5.1702,-5.1471,-5.1144,-5.0659,-5.0663,-5.1099,-5.1716,-5.2162,-5.1081,-4.8858,-4.7977,-4.7909,-4.8176,-4.793,-4.8164,-4.8398,-4.8672,-4.8808,-4.8848,-4.8867,-4.8906,-4.9023,-4.9258,-4.9648,-4.9922,-5.0391,-5.0762,-5.0996,-5.123,-5.1426,-5.1426,-5.1445,-5.1445,-5.1445,-5.1445,-5.1445,-5.1445,-5.1445,-5.1445,-5.1445,-5.1445,-5.1445,-5.1445,-5.1445,-5.1445,-5.1445,-5.1445,-5.1445,-5.1445,-5.1445,-5.1445,-5.1445,-5.1445,-5.1445,-5.1445,-5.1445,-5.1445,-5.1445,-5.1445,-5.1445,-5.1445,-5.1445,-5.1445,-5.1445,-5.1445,-5.1445,-5.1445,-5.1445,-5.1445,-5.7716,-5.8207,-5.8232,-5.8207,-5.8134,-5.7565,-5.7271,-5.705,-5.6118,-5.5526,-5.5102,-5.4913,-5.4718,-5.4861,-5.5564,-5.6196,-5.6654,-5.6728,-5.6137,-5.5029,-5.5217,-5.5217,-5.4784,-5.5145,-5.5794,-5.6323,-5.6804,-5.6997,-5.7021,-5.7021,-5.7021,-5.6861,-5.6758,-5.6598,-5.6254,-5.5772,-5.6438,-5.6278,-5.6174,-5.6278,-5.6542,-5.6542,-5.6804,-5.6638,-5.5834,-5.4933,-5.4759,-5.4169,-5.3278,-5.2736,-5.2692,-5.2668,-5.2402,-5.24,-5.2861,-5.226,-5.1429,-5.0181,-5.0436,-4.9472,-4.8744,-4.898,-4.8993,-4.894,-4.9052,-4.9459,-4.969,-4.9433,-4.9738,-5.0259,-5.0826,-5.0894,-5.1092,-5.1172,-5.1367,-5.1445,-5.1445,-5.1445,-5.1445,-5.1445,-5.1445,-5.1445,-5.1445,-5.1445,-5.1445,-5.1445,-5.1445,-5.1445,-5.1445,-5.1445,-5.1445,-5.1445,-5.1445,-5.1445,-5.1445,-5.1445,-5.1445,-5.1445,-5.1445,-5.1445,-5.1445,-5.1445,-5.1445,-5.1445,-5.1445,-5.1445,-5.1445,-5.1445,-5.1445,-5.1445,-5.1445,-5.1445,-5.1445,-5.1445,-5.1445,-5.804,-5.8677,-5.8677,-5.8677,-5.855,-5.8172,-5.7745,-5.7327,-5.6639,-5.6219,-5.6045,-5.5654,-5.5853,-5.6344,-5.6805,-5.7299,-5.779,-5.7534,-5.6716,-5.5641,-5.5685,-5.5554,-5.5313,-5.5626,-5.6155,-5.6588,-5.6876,-5.6997,-5.7021,-5.7021,-5.7021,-5.7021,-5.7021,-5.6941,-5.7021,-5.7021,-5.6941,-5.6941,-5.6941,-5.6941,-5.7093,-5.7309,-5.7574,-5.7838,-5.7525,-5.7275,-5.6613,-5.6359,-5.5442,-5.4907,-5.4862,-5.5274,-5.5555,-5.6003,-5.6628,-5.6713,-5.5382,-5.4084,-5.3027,-5.1198,-5.0529,-4.9994,-4.9656,-4.8848,-4.9348,-5.1047,-5.1849,-5.129,-5.2817,-5.3178,-5.2627,-5.268,-5.2136,-5.1852,-5.1426,-5.1445,-5.1445,-5.1445,-5.1445,-5.1445,-5.1445,-5.1445,-5.1445,-5.1445,-5.1445,-5.1445,-5.1445,-5.1445,-5.1445,-5.1445,-5.1445,-5.1445,-5.1445,-5.1445,-5.1445,-5.1445,-5.1445,-5.1445,-5.1445,-5.1445,-5.1445,-5.1445,-5.1445,-5.1445,-5.1445,-5.1445,-5.1445,-5.1445,-5.1445,-5.1445,-5.1445,-5.1445,-5.1445,-5.1445,-5.1445,-5.8376,-5.9018,-5.9043,-5.9018,-5.9043,-5.8756,-5.8352,-5.8009,-5.7413,-5.7089,-5.6917,-5.6546,-5.7021,-5.7868,-5.7811,-5.8006,-5.8759,-5.8025,-5.715,-5.6581,-5.6226,-5.5992,-5.5872,-5.6161,-5.6546,-5.7021,-5.6997,-5.7021,-5.7021,-5.7021,-5.7021,-5.7021,-5.7021,-5.7021,-5.7021,-5.7021,-5.7021,-5.7021,-5.7021,-5.7117,-5.7285,-5.7598,-5.7935,-5.8367,-5.8756,-5.8843,-5.7785,-5.7786,-5.753,-5.7042,-5.7042,-5.7405,-5.7938,-5.8354,-5.8831,-5.8926,-5.8041,-5.728,-5.5747,-5.4081,-5.2745,-5.1958,-5.1417,-5.0894,-5.0934,-5.3596,-5.5061,-5.3422,-5.4952,-5.5216,-5.4508,-5.416,-5.3119,-5.2065,-5.1445,-5.1445,-5.1426,-5.162,-5.1523,-5.1445,-5.1445,-5.1445,-5.1445,-5.1445,-5.1445,-5.1445,-5.1445,-5.1445,-5.1445,-5.1445,-5.1445,-5.1445,-5.1445,-5.1445,-5.1445,-5.1445,-5.1445,-5.1445,-5.1445,-5.1445,-5.1445,-5.1445,-5.1445,-5.1445,-5.1445,-5.1445,-5.1445,-5.1445,-5.1445,-5.1445,-5.1445,-5.1445,-5.1445,-5.1445,-5.1445,-5.8529,-5.9508,-5.9431,-5.9405,-5.9405,-5.9431,-5.938,-5.9153,-5.8702,-5.8222,-5.7843,-5.752,-5.7848,-5.84,-5.837,-5.844,-5.8887,-5.805,-5.7375,-5.6955,-5.6702,-5.657,-5.6468,-5.6565,-5.6831,-5.6949,-5.7021,-5.7021,-5.7021,-5.7021,-5.7021,-5.7021,-5.7021,-5.7021,-5.7021,-5.7021,-5.7093,-5.7117,-5.7141,-5.7381,-5.7646,-5.7983,-5.8319,-5.9041,-5.9353,-5.9511,-5.9883,-5.9702,-5.938,-5.8736,-5.8795,-5.8855,-5.9054,-5.9329,-5.9666,-5.9787,-5.9799,-5.9195,-5.8321,-5.6185,-5.4587,-5.4235,-5.408,-5.3569,-5.343,-5.4467,-5.5395,-5.5988,-5.7238,-5.6718,-5.551,-5.4304,-5.442,-5.3391,-5.2932,-5.2932,-5.274,-5.1988,-5.1891,-5.1523,-5.1445,-5.1445,-5.1445,-5.1445,-5.1445,-5.1445,-5.1445,-5.1445,-5.1445,-5.1445,-5.1445,-5.1445,-5.1445,-5.1445,-5.1445,-5.1445,-5.1445,-5.1445,-5.1445,-5.1445,-5.1445,-5.1445,-5.1445,-5.1445,-5.1445,-5.1445,-5.1445,-5.1445,-5.1445,-5.1445,-5.1445,-5.1445,-5.1445,-5.1445,-5.1445,-5.8529,-5.9483,-5.9508,-5.9508,-5.9508,-5.9508,-5.9508,-5.9408,-5.8956,-5.8628,-5.8475,-5.8575,-5.8827,-5.9054,-5.9105,-5.905,-5.9173,-5.8706,-5.8048,-5.7823,-5.7643,-5.7253,-5.7072,-5.7012,-5.7224,-5.7076,-5.7021,-5.7021,-5.7021,-5.7021,-5.7021,-5.7021,-5.7045,-5.7021,-5.7021,-5.7093,-5.7237,-5.7454,-5.755,-5.7766,-5.8247,-5.8656,-5.8969,-5.9305,-5.9786,-5.9931,-6.0147,-6.0171,-5.9859,-5.9618,-5.9714,-5.9642,-5.9522,-5.969,-5.9931,-6.0147,-6.0171,-6.0171,-5.9919,-5.7785,-5.5924,-5.4939,-5.54,-5.6036,-5.5689,-5.746,-5.8425,-5.9105,-5.9653,-5.9408,-5.8425,-5.8053,-5.7683,-5.591,-5.4894,-5.4705,-5.4325,-5.3678,-5.3296,-5.3296,-5.2181,-5.1445,-5.1445,-5.1445,-5.1445,-5.1445,-5.1445,-5.1445,-5.1445,-5.1445,-5.1445,-5.1445,-5.1445,-5.1445,-5.1445,-5.1445,-5.1445,-5.1445,-5.1445,-5.1445,-5.1445,-5.1445,-5.1445,-5.1445,-5.1445,-5.1445,-5.1445,-5.1445,-5.1445,-5.1445,-5.1445,-5.1445,-5.1445,-5.1445,-5.1445,-5.8529,-5.9458,-5.9508,-5.9508,-5.9508,-5.9508,-5.9508,-5.9433,-5.9131,-5.8956,-5.8981,-5.9357,-5.9508,-5.9508,-5.9483,-5.9483,-5.9328,-5.8993,-5.8716,-5.8433,-5.8327,-5.7937,-5.7707,-5.7599,-5.774,-5.7339,-5.718,-5.718,-5.7021,-5.7021,-5.7021,-5.7069,-5.7165,-5.7213,-5.7069,-5.7237,-5.7526,-5.7911,-5.8079,-5.8295,-5.8824,-5.9137,-5.9498,-5.9618,-5.9979,-6.0099,-6.0171,-6.0171,-6.0027,-5.9883,-5.9883,-5.9931,-5.9883,-5.9931,-6.0147,-6.0171,-6.0171,-6.0171,-5.9811,-5.9026,-5.7613,-5.7073,-5.7734,-5.7855,-5.8223,-6.0047,-6.0921,-6.0827,-6.2078,-6.2499,-6.0748,-5.9818,-5.8812,-5.6939,-5.6566,-5.6286,-5.6192,-5.5723,-5.544,-5.5251,-5.4135,-5.3391,-5.2181,-5.2181,-5.1523,-5.1523,-5.1426,-5.1426,-5.1445,-5.1445,-5.1445,-5.1445,-5.1445,-5.1445,-5.1445,-5.1445,-5.1445,-5.1445,-5.1445,-5.1445,-5.1445,-5.1445,-5.1445,-5.1445,-5.1445,-5.1445,-5.1445,-5.1445,-5.1445,-5.1445,-5.1445,-5.1445,-5.1445,-5.1445,-5.1445,-5.8529,-5.9458,-5.9508,-5.9508,-5.9508,-5.9508,-5.9508,-5.9483,-5.9433,-5.9408,-5.9382,-5.9483,-5.9508,-5.9508,-5.9508,-5.9508,-5.9405,-5.9095,-5.889,-5.889,-5.889,-5.8603,-5.8472,-5.8418,-5.8104,-5.771,-5.7418,-5.7259,-5.71,-5.7021,-5.7021,-5.7261,-5.7526,-5.7622,-5.7165,-5.755,-5.8055,-5.8488,-5.856,-5.8897,-5.9257,-5.9474,-5.9714,-5.9955,-6.0099,-6.0171,-6.0171,-6.0171,-6.0099,-6.0075,-6.0075,-6.0099,-6.0099,-6.0099,-6.0171,-6.0171,-6.0171,-6.0171,-6.0171,-6.0087,-5.9666,-5.9422,-5.9816,-6.0063,-6.0753,-6.1855,-6.2465,-6.2017,-6.2905,-6.2386,-6.1312,-6.0476,-5.9544,-5.8995,-5.8697,-5.8514,-5.8514,-5.7775,-5.7497,-5.7126,-5.6939,-5.6473,-5.442,-5.3028,-5.2085,-5.162,-5.1426,-5.1426,-5.1426,-5.1445,-5.1445,-5.1445,-5.1445,-5.1445,-5.1445,-5.1445,-5.1445,-5.1445,-5.1445,-5.1445,-5.1445,-5.1445,-5.1445,-5.1445,-5.1445,-5.1445,-5.1445,-5.1445,-5.1445,-5.1445,-5.1445,-5.1445,-5.1445,-5.1445,-5.1445,-5.8529,-5.9483,-5.9508,-5.9508,-5.9508,-5.9508,-5.9508,-5.9508,-5.9508,-5.9508,-5.9508,-5.9508,-5.9508,-5.9508,-5.9508,-5.9508,-5.9483,-5.9405,-5.9251,-5.9251,-5.9251,-5.9043,-5.8809,-5.8521,-5.8207,-5.7631,-5.7418,-5.7418,-5.7418,-5.7228,-5.7445,-5.7895,-5.8136,-5.8223,-5.8151,-5.8319,-5.8584,-5.9017,-5.9161,-5.9378,-5.9834,-5.9907,-5.9979,-6.0171,-6.0171,-6.0171,-6.0171,-6.0171,-6.0171,-6.0171,-6.0171,-6.0171,-6.0171,-6.0171,-6.0171,-6.0171,-6.0171,-6.0171,-6.0171,-6.0195,-6.0364,-6.0628,-6.0893,-6.1326,-6.1951,-6.2287,-6.272,-6.2985,-6.3177,-6.279,-6.2499,-6.2321,-6.185,-6.185,-6.1671,-6.1671,-6.1402,-6.009,-5.9361,-5.8789,-5.8606,-5.7868,-5.6379,-5.48,-5.3678,-5.2836,-5.2644,-5.1717,-5.1426,-5.1426,-5.1445,-5.1445,-5.1445,-5.1445,-5.1445,-5.1445,-5.1445,-5.1445,-5.1445,-5.1445,-5.1445,-5.1445,-5.1445,-5.1445,-5.1445,-5.1445,-5.1445,-5.1445,-5.1445,-5.1445,-5.1445,-5.1445,-5.1445,-5.1445,-5.1445,-5.8704,-5.9483,-5.9508,-5.9508,-5.9508,-5.9508,-5.9508,-5.9508,-5.9508,-5.9508,-5.9508,-5.9508,-5.9508,-5.9508,-5.9508,-5.9508,-5.9508,-5.9483,-5.9483,-5.9508,-5.9508,-5.9353,-5.9043,-5.8677,-5.8364,-5.7813,-5.7497,-5.7339,-5.7601,-5.7373,-5.7879,-5.8563,-5.8844,-5.8969,-5.9017,-5.9089,-5.9113,-5.9498,-5.969,-5.9786,-6.0051,-6.0147,-6.0147,-6.0171,-6.0171,-6.0171,-6.0171,-6.0171,-6.0171,-6.0171,-6.0171,-6.0171,-6.0171,-6.0171,-6.0171,-6.0171,-6.0171,-6.0171,-6.0171,-6.046,-6.0748,-6.1205,-6.1253,-6.1686,-6.2432,-6.2744,-6.2985,-6.3225,-6.3322,-6.3233,-6.3233,-6.3322,-6.3233,-6.3233,-6.3145,-6.3056,-6.279,-6.1492,-6.1199,-6.0657,-6.0363,-5.9453,-5.8329,-5.6846,-5.544,-5.461,-5.3774,-5.274,-5.162,-5.1426,-5.1426,-5.1445,-5.1445,-5.1445,-5.1445,-5.1445,-5.1445,-5.1445,-5.1445,-5.1445,-5.1445,-5.1445,-5.1445,-5.1445,-5.1445,-5.1445,-5.1445,-5.1445,-5.1445,-5.1445,-5.1445,-5.1445,-5.1445,-5.1445,-5.1445,-5.9031,-5.9458,-5.9508,-5.9508,-5.9508,-5.9508,-5.9508,-5.9508,-5.9508,-5.9508,-5.9508,-5.9508,-5.9508,-5.9508,-5.9508,-5.9508,-5.9508,-5.9508,-5.9508,-5.9508,-5.9508,-5.9431,-5.9353,-5.9043,-5.8653,-5.8286,-5.7971,-5.7734,-5.7704,-5.7975,-5.8587,-5.9147,-5.9388,-5.957,-5.969,-5.9666,-5.9666,-5.9907,-6.0027,-6.0075,-6.0171,-6.0171,-6.0171,-6.0171,-6.0171,-6.0171,-6.0171,-6.0171,-6.0171,-6.0171,-6.0171,-6.0171,-6.0171,-6.0171,-6.0171,-6.0171,-6.0171,-6.0195,-6.0364,-6.07,-6.1229,-6.1686,-6.1807,-6.2143,-6.2576,-6.3009,-6.3201,-6.3274,-6.3322,-6.3322,-6.3322,-6.3322,-6.3322,-6.3233,-6.3233,-6.3233,-6.3233,-6.2879,-6.2879,-6.2677,-6.2677,-6.185,-6.0476,-5.8973,-5.7405,-5.6566,-5.544,-5.3583,-5.2451,-5.1523,-5.1426,-5.1445,-5.1445,-5.1445,-5.1445,-5.1445,-5.1445,-5.1445,-5.1445,-5.1445,-5.1445,-5.1445,-5.1445,-5.1445,-5.1445,-5.1445,-5.1445,-5.1445,-5.1445,-5.1445,-5.1445,-5.1445,-5.1445,-5.1445,-5.1445,-5.9031,-5.9483,-5.9508,-5.9508,-5.9508,-5.9508,-5.9508,-5.9508,-5.9508,-5.9508,-5.9508,-5.9508,-5.9508,-5.9508,-5.9508,-5.9508,-5.9508,-5.9508,-5.9508,-5.9508,-5.9508,-5.9508,-5.9353,-5.912,-5.8887,-5.8575,-5.8364,-5.8153,-5.8561,-5.8858,-5.9016,-5.9364,-5.9714,-6.0003,-6.0051,-6.0003,-6.0075,-6.0123,-6.0171,-6.0171,-6.0171,-6.0171,-6.0171,-6.0171,-6.0171,-6.0171,-6.0171,-6.0171,-6.0171,-6.0171,-6.0195,-6.0195,-6.0171,-6.0171,-6.0171,-6.0171,-6.0219,-6.0315,-6.0676,-6.0869,-6.135,-6.2095,-6.2336,-6.2648,-6.3009,-6.3225,-6.3322,-6.3322,-6.3322,-6.3322,-6.3322,-6.3322,-6.3322,-6.3322,-6.3322,-6.3322,-6.3322,-6.3322,-6.3322,-6.3322,-6.3322,-6.3056,-6.1761,-6.0748,-5.9361,-5.8514,-5.7219,-5.5063,-5.3296,-5.2278,-5.1426,-5.1426,-5.1445,-5.1445,-5.1445,-5.1445,-5.1445,-5.1445,-5.1445,-5.1445,-5.1445,-5.1445,-5.1445,-5.1445,-5.1445,-5.1445,-5.1445,-5.1445,-5.1445,-5.1445,-5.1445,-5.1445,-5.1445,-5.1445,-5.1445,-5.9207,-5.9483,-5.9508,-5.9508,-5.9508,-5.9508,-5.9508,-5.9508,-5.9508,-5.9508,-5.9508,-5.9508,-5.9508,-5.9508,-5.9508,-5.9508,-5.9508,-5.9508,-5.9508,-5.9508,-5.9508,-5.9508,-5.9353,-5.912,-5.8965,-5.8731,-5.8599,-5.8443,-5.8974,-5.9503,-5.9715,-5.9773,-6.0075,-6.0123,-6.0171,-6.0147,-6.0147,-6.0171,-6.0171,-6.0171,-6.0171,-6.0171,-6.0171,-6.0171,-6.0171,-6.0171,-6.0171,-6.0171,-6.0171,-6.0243,-6.0291,-6.0364,-6.0267,-6.0171,-6.0171,-6.0171,-6.0195,-6.046,-6.0845,-6.1181,-6.1782,-6.236,-6.2768,-6.3033,-6.3153,-6.3322,-6.3322,-6.3322,-6.3322,-6.3322,-6.3322,-6.3322,-6.3322,-6.3322,-6.3322,-6.3322,-6.3322,-6.3322,-6.3322,-6.3322,-6.3322,-6.3322,-6.2701,-6.1963,-6.1312,-6.0544,-5.8973,-5.666,-5.4515,-5.2836,-5.1911,-5.1426,-5.1445,-5.1445,-5.1445,-5.1445,-5.1445,-5.1445,-5.1445,-5.1445,-5.1445,-5.1445,-5.1445,-5.1445,-5.1445,-5.1445,-5.1445,-5.1445,-5.1445,-5.1445,-5.1445,-5.1445,-5.1445,-5.1445,-5.1445,-5.9483,-5.9508,-5.9508,-5.9508,-5.9508,-5.9508,-5.9508,-5.9508,-5.9508,-5.9508,-5.9508,-5.9508,-5.9508,-5.9508,-5.9508,-5.9508,-5.9508,-5.9508,-5.9508,-5.9508,-5.9508,-5.9508,-5.9431,-5.9173,-5.9095,-5.8887,-5.8805,-5.8826,-5.9148,-5.962,-6.0081,-6.0207,-6.0171,-6.0171,-6.0171,-6.0171,-6.0171,-6.0171,-6.0171,-6.0171,-6.0171,-6.0171,-6.0171,-6.0171,-6.0171,-6.0171,-6.0171,-6.0195,-6.0195,-6.0388,-6.0532,-6.0628,-6.046,-6.0315,-6.0315,-6.0267,-6.0291,-6.0676,-6.1157,-6.159,-6.2095,-6.2624,-6.3057,-6.3225,-6.3298,-6.3322,-6.3322,-6.3322,-6.3322,-6.3322,-6.3322,-6.3322,-6.3322,-6.3322,-6.3322,-6.3322,-6.3322,-6.3322,-6.3322,-6.3322,-6.3322,-6.3322,-6.3233,-6.241,-6.2321,-6.2029,-6.0544,-5.8145,-5.6286,-5.423,-5.2567,-5.1717,-5.1426,-5.1426,-5.1445,-5.1445,-5.1445,-5.1445,-5.1445,-5.1445,-5.1445,-5.1445,-5.1445,-5.1445,-5.1445,-5.1445,-5.1445,-5.1445,-5.1445,-5.1445,-5.1445,-5.1445,-5.1445,-5.1445,-5.1445,-5.9508,-5.9508,-5.9508,-5.9508,-5.9508,-5.9508,-5.9508,-5.9508,-5.9508,-5.9508,-5.9508,-5.9508,-5.9508,-5.9508,-5.9508,-5.9508,-5.9508,-5.9508,-5.9508,-5.9508,-5.9508,-5.9508,-5.9508,-5.9353,-5.9328,-5.9328,-5.9298,-5.9334,-5.9582,-6.0024,-6.0358,-6.0183,-6.0171,-6.0171,-6.0171,-6.0171,-6.0171,-6.0171,-6.0171,-6.0171,-6.0171,-6.0171,-6.0171,-6.0171,-6.0171,-6.0171,-6.0195,-6.0219,-6.0436,-6.0724,-6.0845,-6.0869,-6.0796,-6.0772,-6.0556,-6.0339,-6.0532,-6.0965,-6.147,-6.1999,-6.2528,-6.2913,-6.3249,-6.3298,-6.3322,-6.3322,-6.3322,-6.3322,-6.3322,-6.3322,-6.3322,-6.3322,-6.3322,-6.3322,-6.3322,-6.3322,-6.3322,-6.3322,-6.3322,-6.3322,-6.3322,-6.3322,-6.3322,-6.3322,-6.3322,-6.2499,-6.1109,-5.9453,-5.8145,-5.6286,-5.3487,-5.2374,-5.1523,-5.1426,-5.1426,-5.1445,-5.1445,-5.1445,-5.1445,-5.1445,-5.1445,-5.1445,-5.1445,-5.1445,-5.1445,-5.1445,-5.1445,-5.1445,-5.1445,-5.1445,-5.1445,-5.1445,-5.1445,-5.1445,-5.1445,-5.9508,-5.9508,-5.9508,-5.9508,-5.9508,-5.9508,-5.9508,-5.9508,-5.9508,-5.9508,-5.9508,-5.9508,-5.9508,-5.9508,-5.9508,-5.9508,-5.9508,-5.9508,-5.9508,-5.9508,-5.9508,-5.9508,-5.9508,-5.9508,-5.9508,-5.9508,-5.9757,-5.9865,-5.994,-6.0343,-6.0529,-6.0267,-6.0171,-6.0171,-6.0171,-6.0171,-6.0171,-6.0171,-6.0171,-6.0171,-6.0171,-6.0171,-6.0171,-6.0171,-6.0171,-6.0171,-6.0291,-6.0364,-6.0676,-6.1013,-6.1181,-6.135,-6.1253,-6.1061,-6.07,-6.0484,-6.0652,-6.1205,-6.1758,-6.2312,-6.2817,-6.3153,-6.3322,-6.3322,-6.3322,-6.3322,-6.3322,-6.3322,-6.3322,-6.3322,-6.3322,-6.3322,-6.3322,-6.3322,-6.3322,-6.3322,-6.3322,-6.3322,-6.3322,-6.3322,-6.3322,-6.3322,-6.3322,-6.3322,-6.3233,-6.2879,-6.1582,-6.0567,-5.9453,-5.8329,-5.5534,-5.3296,-5.2644,-5.1717,-5.1426,-5.1445,-5.1445,-5.1445,-5.1445,-5.1445,-5.1445,-5.1445,-5.1445,-5.1445,-5.1445,-5.1445,-5.1445,-5.1445,-5.1445,-5.1445,-5.1445,-5.1445,-5.1445,-5.1445,-5.1445,-5.9508,-5.9508,-5.9508,-5.9508,-5.9508,-5.9508,-5.9508,-5.9508,-5.9508,-5.9508,-5.9508,-5.9508,-5.9508,-5.9508,-5.9508,-5.9508,-5.9508,-5.9508,-5.9508,-5.9508,-5.9508,-5.9508,-5.9508,-5.9508,-5.9508,-5.9681,-5.9979,-5.9955,-5.9803,-6.0384,-6.0535,-6.0291,-6.0171,-6.0171,-6.0171,-6.0171,-6.0171,-6.0171,-6.0171,-6.0171,-6.0171,-6.0171,-6.0171,-6.0171,-6.0171,-6.0171,-6.0339,-6.0604,-6.0978,-6.1301,-6.159,-6.171,-6.1542,-6.1229,-6.07,-6.0484,-6.0869,-6.1326,-6.1807,-6.2408,-6.2889,-6.3225,-6.3298,-6.3322,-6.3322,-6.3322,-6.3322,-6.3322,-6.3322,-6.3322,-6.3322,-6.3322,-6.3322,-6.3322,-6.3322,-6.3322,-6.3322,-6.3322,-6.3322,-6.3322,-6.3322,-6.3322,-6.3322,-6.3322,-6.3145,-6.2879,-6.2321,-6.1402,-6.0476,-5.9453,-5.759,-5.544,-5.404,-5.3124,-5.1717,-5.1445,-5.1445,-5.1445,-5.1445,-5.1445,-5.1445,-5.1445,-5.1445,-5.1445,-5.1445,-5.1445,-5.1445,-5.1445,-5.1445,-5.1445,-5.1445,-5.1445,-5.1445,-5.1445,-5.1445,-5.9508,-5.9508,-5.9508,-5.9508,-5.9508,-5.9508,-5.9508,-5.9508,-5.9508,-5.9508,-5.9508,-5.9508,-5.9508,-5.9508,-5.9508,-5.9508,-5.9508,-5.9508,-5.9508,-5.9508,-5.9508,-5.9508,-5.9508,-5.9508,-5.9508,-5.9782,-6.0097,-6.0168,-6.0129,-6.0538,-6.0612,-6.0255,-6.0171,-6.0171,-6.0171,-6.0171,-6.0171,-6.0171,-6.0171,-6.0171,-6.0171,-6.0171,-6.0171,-6.0171,-6.0171,-6.0171,-6.0315,-6.07,-6.1157,-6.1638,-6.2071,-6.2119,-6.1807,-6.1398,-6.0941,-6.0796,-6.1181,-6.159,-6.2095,-6.2672,-6.3177,-6.3274,-6.3322,-6.3322,-6.3322,-6.3322,-6.3322,-6.3322,-6.3322,-6.3322,-6.3322,-6.3322,-6.3322,-6.3322,-6.3322,-6.3322,-6.3322,-6.3322,-6.3322,-6.3322,-6.3322,-6.3322,-6.3322,-6.3322,-6.3233,-6.3056,-6.3056,-6.2321,-6.2142,-6.0838,-5.9544,-5.7775,-5.5817,-5.3487,-5.1794,-5.1426,-5.1445,-5.1445,-5.1445,-5.1445,-5.1445,-5.1445,-5.1445,-5.1445,-5.1445,-5.1445,-5.1445,-5.1445,-5.1445,-5.1445,-5.1445,-5.1445,-5.1445,-5.1445,-5.1445]},{"header":{"parameterUnit":"m.s-1","parameterCategory":1,"la1":31.0,"la2":29.5877,"lo1":-88.7671,"lo2":-86.6584,"dx":0.0162,"dy":0.0185,"nx":115,"ny":88,"refTime":"2022-12-26T06:00:00:Z","depth":0,"parameterNumber":3,"parameterNumberName":"V-component_of_WINDS"},"data":[0.0,0.0,0.0,0.0,0.0,0.0,0.0,0.0,0.0,0.0,0.0,0.0,0.0,0.0,0.0,0.0,0.0,0.0,0.0,0.0,0.0,0.0,0.0,0.0,0.0,0.0,0.0,0.0,0.0,0.0,0.0,0.0,0.0,0.0,0.0,0.0,0.0,0.0,0.0,0.0,0.0,0.0,0.0,0.0,0.0,0.0,0.0,0.0,0.0,0.0,0.0,0.0,0.0,0.0,0.0,0.0,0.0,0.0,0.0,0.0,0.0,0.0,0.0,0.0,0.0,0.0,0.0,0.0,0.0,0.0,0.0,0.0,0.0,0.0,0.0,0.0,0.0,0.0,0.0,0.0,0.0,0.0,0.0,0.0,0.0,0.0,0.0,0.0,0.0,0.0,0.0,0.0,0.0,0.0,0.0,0.0,0.0,0.0,0.0,0.0,0.0,0.0,0.0,0.0,0.0,0.0,0.0,0.0,0.0,0.0,0.0,0.0,0.0,0.0,0.0,0.0,0.0,0.0,0.0,0.0,0.0,0.0,0.0,0.0,0.0,0.0,0.0,0.0,0.0,0.0,0.0,0.0,0.0,0.0,0.0,0.0,0.0,0.0,0.0,0.0,0.0,0.0,0.0,0.0,0.0,0.0,0.0,0.0,0.0,0.0,0.0,0.0,0.0,0.0,0.0,0.0,0.0,0.0,0.0,0.0,0.0,0.0,0.0,0.0,0.0,0.0,0.0,0.0,0.0,0.0,0.0,0.0,0.0,0.0,0.0,0.0,0.0,0.0,0.0,0.0,0.0,0.0,0.0,0.0,0.0,0.0,0.0,0.0,0.0,0.0,0.0,0.0,0.0,0.0,0.0,0.0,0.0,0.0,0.0,0.0,0.0,0.0,0.0,0.0,0.0,0.0,0.0,0.0,0.0,0.0,0.0,0.0,0.0,0.0,0.0,0.0,0.0,0.0,0.0,0.0,0.0,0.0,0.0,0.0,0.0,0.0,0.0,0.0,0.0,0.0,0.0,0.0,0.0,0.0,0.0,0.0,0.0,0.0,0.0,0.0,0.0,0.0,0.0,0.0,0.0,0.0,0.0,0.0,0.0,0.0,0.0,0.0,0.0,0.0,0.0,0.0,0.0,0.0,0.0,0.0,0.0,0.0,0.0,0.0,0.0,0.0,0.0,0.0,0.0,0.0,0.0,0.0,0.0,0.0,0.0,0.0,0.0,0.0,0.0,0.0,0.0,0.0,0.0,0.0,0.0,0.0,0.0,0.0,0.0,0.0,0.0,0.0,0.0,0.0,0.0,0.0,0.0,0.0,0.0,0.0,0.0,0.0,0.0,0.0,0.0,0.0,0.0,0.0,0.0,0.0,0.0,0.0,0.0,0.0,0.0,0.0,0.0,0.0,0.0,0.0,0.0,0.0,0.0,0.0,0.0,0.0,0.0,0.0,0.0,0.0,0.0,0.0,0.0,0.0,0.0,0.0,0.0,0.0,0.0,0.0,0.0,0.0,0.0,0.0,0.0,0.0,0.0,0.0,0.0,0.0,0.0,0.0,0.0,0.0,0.0,0.0,0.0,0.0,0.0,0.0,0.0,0.0,0.0,0.0,0.0,0.0,0.0,0.0,0.0,0.0,0.0,0.0,0.0,0.0,0.0,0.0,0.0,0.0,0.0,0.0,0.0,0.0,0.0,0.0,0.0,0.0,0.0,0.0,0.0,0.0,0.0,0.0,0.0,0.0,0.0,0.0,0.0,0.0,0.0,0.0,0.0,0.0,0.0,0.0,0.0,0.0,0.0,0.0,0.0,0.0,0.0,0.0,0.0,0.0,0.0,0.0,0.0,0.0,0.0,0.0,0.0,0.0,0.0,0.0,0.0,0.0,0.0,0.0,0.0,0.0,0.0,0.0,0.0,0.0,0.0,0.0,0.0,0.0,0.0,0.0,0.0,0.0,0.0,0.0,0.0,0.0,0.0,0.0,0.0,0.0,0.0,0.0,0.0,0.0,0.0,0.0,0.0,0.0,0.0,0.0,0.0,0.0,0.0,0.0,0.0,0.0,0.0,0.0,0.0,0.0,0.0,0.0,0.0,0.0,0.0,0.0,0.0,0.0,0.0,0.0,0.0,0.0,0.0,0.0,0.0,0.0,0.0,0.0,0.0,0.0,0.0,0.0,0.0,0.0,0.0,0.0,0.0,0.0,0.0,0.0,0.0,0.0,0.0,0.0,0.0,0.0,0.0,0.0,0.0,0.0,0.0,0.0,0.0,0.0,0.0,0.0,0.0,0.0,0.0,0.0,0.0,0.0,0.0,0.0,0.0,0.0,0.0,0.0,0.0,0.0,0.0,0.0,0.0,0.0,0.0,0.0,0.0,0.0,0.0,0.0,0.0,0.0,0.0,0.0,0.0,0.0,0.0,0.0,0.0,0.0,0.0,0.0,0.0,0.0,0.0,0.0,0.0,0.0,0.0,0.0,0.0,0.0,0.0,0.0,0.0,0.0,0.0,0.0,0.0,0.0,0.0,0.0,0.0,0.0,0.0,0.0,0.0,0.0,0.0,0.0,0.0,0.0,0.0,0.0,0.0,0.0,0.0,0.0,0.0,0.0,0.0,0.0,0.0,0.0,0.0,0.0,0.0,0.0,0.0,0.0,0.0,0.0,0.0,0.0,0.0,0.0,0.0,0.0,0.0,0.0,0.0,0.0,0.0,0.0,0.0,0.0,0.0,0.0,0.0,0.0,0.0,0.0,0.0,0.0,0.0,0.0,0.0,0.0,0.0,0.0,0.0,0.0,0.0,0.0,0.0,0.0,0.0,0.0,0.0,0.0,0.0,0.0,0.0,0.0,0.0,0.0,0.0,0.0,0.0,0.0,0.0,0.0,0.0,0.0,0.0,0.0,0.0,0.0,0.0,0.0,0.0,0.0,0.0,0.0,0.0,0.0,0.0,0.0,0.0,0.0,0.0,0.0,0.0,0.0,0.0,0.0,0.0,0.0,0.0,0.0,0.0,0.0,0.0,0.0,0.0,0.0,0.0,0.0,0.0,0.0,0.0,0.0,0.0,0.0,0.0,0.0,0.0,0.0,0.0,0.0,0.0,0.0,0.0,0.0,0.0,0.0,0.0,0.0,0.0,0.0,0.0,0.0,0.0,0.0,0.0,0.0,0.0,0.0,0.0,0.0,0.0,0.0,0.0,0.0,0.0,0.0,0.0,0.0,0.0,0.0,0.0,0.0,0.0,0.0,0.0,0.0,0.0,0.0,0.0,0.0,0.0,0.0,0.0,0.0,0.0,0.0,0.0,0.0,0.0,0.0,0.0,0.0,0.0,0.0,0.0,0.0,0.0,0.0,0.0,0.0,0.0,0.0,0.0,0.0,0.0,0.0,0.0,0.0,0.0,0.0,0.0,0.0,0.0,0.0,0.0,0.0,0.0,0.0,0.0,0.0,0.0,0.0,0.0,0.0,0.0,0.0,0.0,0.0,0.0,0.0,0.0,0.0,0.0,0.0,0.0,0.0,0.0,0.0,0.0,0.0,0.0,0.0,0.0,0.0,0.0,0.0,0.0,0.0,0.0,0.0,0.0,0.0,0.0,0.0,0.0,0.0,0.0,0.0,0.0,0.0,0.0,0.0,0.0,0.0,0.0,0.0,0.0,0.0,0.0,0.0,0.0,0.0,0.0,0.0,0.0,0.0,0.0,0.0,0.0,0.0,0.0,0.0,0.0,0.0,0.0,0.0,0.0,0.0,0.0,0.0,0.0,0.0,0.0,0.0,0.0,0.0,0.0,0.0,0.0,0.0,0.0,0.0,0.0,0.0,0.0,0.0,0.0,0.0,0.0,0.0,0.0,0.0,0.0,0.0,0.0,0.0,0.0,0.0,0.0,0.0,0.0,0.0,0.0,0.0,0.0,0.0,0.0,0.0,0.0,0.0,0.0,0.0,0.0,0.0,0.0,0.0,0.0,0.0,0.0,0.0,0.0,0.0,0.0,0.0,0.0,0.0,0.0,0.0,0.0,0.0,0.0,0.0,0.0,0.0,0.0,0.0,0.0,0.0,0.0,0.0,0.0,0.0,0.0,0.0,0.0,0.0,0.0,0.0,0.0,0.0,0.0,0.0,0.0,0.0,0.0,0.0,0.0,0.0,0.0,0.0,0.0,0.0,0.0,0.0,0.0,0.0,0.0,0.0,0.0,0.0,0.0,0.0,0.0,0.0,0.0,0.0,0.0,0.0,0.0,0.0,0.0,0.0,3.0852,0.0,0.0,0.0,3.0142,0.0,0.0,0.0,0.0,0.0,0.0,0.0,0.0,0.0,0.0,0.0,0.0,0.0,0.0,0.0,0.0,0.0,0.0,0.0,0.0,0.0,0.0,0.0,0.0,0.0,0.0,0.0,0.0,0.0,0.0,0.0,0.0,0.0,0.0,0.0,0.0,0.0,0.0,0.0,0.0,0.0,0.0,0.0,0.0,0.0,0.0,0.0,0.0,0.0,0.0,0.0,0.0,0.0,0.0,0.0,0.0,0.0,0.0,0.0,0.0,0.0,0.0,0.0,0.0,0.0,0.0,0.0,0.0,0.0,0.0,0.0,0.0,0.0,0.0,0.0,0.0,0.0,0.0,0.0,0.0,0.0,0.0,0.0,0.0,0.0,0.0,0.0,0.0,0.0,0.0,0.0,0.0,0.0,0.0,0.0,0.0,0.0,0.0,0.0,0.0,0.0,0.0,0.0,0.0,0.0,0.0,0.0,0.0,0.0,0.0,3.1055,3.0717,3.1021,3.1055,3.0751,0.0,0.0,0.0,0.0,0.0,0.0,0.0,0.0,0.0,0.0,0.0,0.0,0.0,0.0,0.0,0.0,0.0,0.0,0.0,0.0,0.0,0.0,0.0,0.0,0.0,0.0,0.0,0.0,0.0,0.0,0.0,0.0,0.0,0.0,0.0,0.0,0.0,0.0,0.0,0.0,0.0,0.0,0.0,0.0,0.0,0.0,0.0,0.0,0.0,0.0,0.0,0.0,0.0,0.0,0.0,0.0,0.0,0.0,0.0,0.0,0.0,0.0,0.0,0.0,0.0,0.0,0.0,0.0,0.0,0.0,0.0,0.0,0.0,0.0,0.0,0.0,0.0,0.0,0.0,0.0,0.0,0.0,0.0,0.0,0.0,0.0,0.0,0.0,0.0,0.0,0.0,0.0,0.0,0.0,0.0,0.0,0.0,0.0,0.0,0.0,0.0,0.0,0.0,0.0,0.0,0.0,0.0,0.0,0.0,0.0,0.0,0.0,3.119,3.119,3.119,0.0,0.0,0.0,0.0,0.0,0.0,0.0,0.0,0.0,0.0,0.0,0.0,0.0,0.0,0.0,0.0,0.0,0.0,0.0,0.0,0.0,0.0,0.0,0.0,0.0,0.0,0.0,0.0,0.0,0.0,0.0,0.0,0.0,0.0,0.0,0.0,0.0,0.0,0.0,0.0,0.0,0.0,0.0,0.0,0.0,0.0,0.0,0.0,0.0,0.0,0.0,0.0,0.0,0.0,0.0,0.0,0.0,0.0,0.0,0.0,0.0,0.0,0.0,0.0,0.0,0.0,0.0,0.0,0.0,0.0,0.0,0.0,0.0,0.0,0.0,0.0,0.0,0.0,0.0,0.0,0.0,0.0,0.0,0.0,0.0,0.0,0.0,0.0,0.0,0.0,0.0,0.0,0.0,0.0,0.0,0.0,0.0,0.0,0.0,0.0,0.0,0.0,0.0,0.0,0.0,0.0,0.0,0.0,0.0,0.0,3.119,3.119,3.119,0.0,3.119,0.0,0.0,0.0,0.0,0.0,0.0,0.0,0.0,0.0,0.0,0.0,0.0,0.0,0.0,0.0,0.0,0.0,0.0,0.0,0.0,0.0,0.0,0.0,0.0,0.0,0.0,0.0,0.0,0.0,0.0,0.0,0.0,0.0,0.0,0.0,0.0,0.0,0.0,0.0,0.0,0.0,0.0,0.0,0.0,0.0,0.0,0.0,0.0,0.0,0.0,0.0,0.0,0.0,0.0,0.0,0.0,0.0,0.0,0.0,0.0,0.0,0.0,0.0,0.0,0.0,0.0,0.0,0.0,0.0,0.0,0.0,0.0,0.0,0.0,0.0,0.0,0.0,0.0,0.0,0.0,0.0,0.0,0.0,0.0,0.0,0.0,0.0,0.0,0.0,0.0,0.0,0.0,0.0,0.0,0.0,0.0,0.0,0.0,0.0,0.0,0.0,0.0,0.0,0.0,0.0,0.0,0.0,0.0,0.0,0.0,3.163,3.119,3.119,3.119,0.0,0.0,0.0,0.0,0.0,0.0,0.0,0.0,0.0,0.0,0.0,0.0,0.0,0.0,0.0,0.0,0.0,0.0,0.0,0.0,0.0,0.0,0.0,0.0,0.0,0.0,0.0,0.0,0.0,0.0,0.0,0.0,0.0,0.0,0.0,0.0,0.0,0.0,0.0,0.0,0.0,0.0,0.0,0.0,0.0,0.0,0.0,0.0,0.0,0.0,0.0,0.0,0.0,0.0,0.0,0.0,0.0,0.0,0.0,0.0,0.0,0.0,0.0,0.0,0.0,0.0,0.0,0.0,0.0,0.0,0.0,0.0,0.0,0.0,0.0,0.0,0.0,0.0,0.0,0.0,0.0,0.0,0.0,0.0,0.0,0.0,0.0,0.0,0.0,0.0,0.0,0.0,0.0,0.0,0.0,0.0,0.0,0.0,0.0,0.0,0.0,0.0,0.0,0.0,0.0,0.0,0.0,0.0,0.0,0.0,3.209,3.1732,3.1224,3.119,3.119,3.119,0.0,0.0,0.0,0.0,0.0,0.0,0.0,0.0,0.0,0.0,0.0,0.0,0.0,0.0,0.0,0.0,0.0,0.0,0.0,0.0,0.0,0.0,0.0,0.0,0.0,0.0,0.0,0.0,0.0,0.0,0.0,0.0,0.0,0.0,0.0,0.0,0.0,0.0,0.0,0.0,0.0,0.0,0.0,0.0,0.0,0.0,0.0,0.0,0.0,0.0,0.0,0.0,0.0,0.0,0.0,0.0,0.0,0.0,0.0,0.0,0.0,0.0,0.0,0.0,0.0,0.0,0.0,0.0,0.0,0.0,0.0,0.0,0.0,0.0,0.0,0.0,0.0,0.0,0.0,0.0,0.0,0.0,0.0,0.0,0.0,0.0,0.0,0.0,0.0,0.0,0.0,0.0,0.0,0.0,0.0,0.0,0.0,0.0,0.0,0.0,0.0,0.0,0.0,0.0,0.0,0.0,0.0,0.0,3.2293,3.165,3.1258,3.1224,3.119,3.119,0.0,0.0,0.0,0.0,0.0,0.0,0.0,0.0,0.0,0.0,0.0,0.0,0.0,0.0,0.0,0.0,0.0,0.0,0.0,0.0,0.0,0.0,0.0,0.0,0.0,0.0,0.0,0.0,0.0,0.0,0.0,0.0,0.0,0.0,0.0,0.0,0.0,0.0,0.0,0.0,0.0,0.0,0.0,0.0,0.0,0.0,0.0,0.0,0.0,0.0,0.0,0.0,0.0,0.0,0.0,0.0,0.0,0.0,0.0,0.0,0.0,0.0,0.0,0.0,0.0,0.0,0.0,0.0,0.0,0.0,0.0,0.0,0.0,0.0,0.0,0.0,0.0,0.0,0.0,0.0,0.0,0.0,0.0,0.0,0.0,0.0,0.0,0.0,0.0,0.0,0.0,0.0,0.0,0.0,0.0,0.0,0.0,0.0,0.0,0.0,0.0,0.0,0.0,0.0,0.0,0.0,0.0,0.0,0.0,3.2983,3.2747,3.2611,3.2611,3.2611,3.2408,0.0,0.0,0.0,0.0,0.0,0.0,0.0,0.0,0.0,0.0,0.0,0.0,0.0,0.0,0.0,0.0,0.0,0.0,0.0,0.0,0.0,0.0,0.0,0.0,0.0,0.0,0.0,0.0,0.0,0.0,0.0,0.0,0.0,0.0,0.0,0.0,0.0,0.0,0.0,0.0,0.0,0.0,0.0,0.0,0.0,0.0,0.0,0.0,0.0,0.0,0.0,0.0,0.0,0.0,0.0,0.0,0.0,0.0,0.0,0.0,0.0,0.0,0.0,0.0,0.0,0.0,0.0,0.0,0.0,0.0,0.0,0.0,0.0,0.0,0.0,0.0,0.0,0.0,0.0,0.0,0.0,0.0,0.0,0.0,0.0,0.0,0.0,0.0,0.0,0.0,0.0,0.0,0.0,0.0,0.0,0.0,0.0,0.0,0.0,0.0,0.0,0.0,0.0,0.0,0.0,0.0,0.0,0.0,0.0,3.3389,3.3389,3.3389,3.3389,3.3389,3.3051,0.0,0.0,0.0,0.0,0.0,0.0,0.0,0.0,0.0,0.0,0.0,0.0,0.0,0.0,0.0,0.0,0.0,0.0,0.0,0.0,0.0,0.0,0.0,0.0,0.0,0.0,0.0,0.0,0.0,0.0,0.0,0.0,0.0,0.0,0.0,0.0,0.0,0.0,0.0,0.0,0.0,0.0,0.0,0.0,0.0,0.0,0.0,0.0,0.0,0.0,0.0,0.0,0.0,0.0,0.0,0.0,0.0,0.0,0.0,0.0,0.0,0.0,0.0,0.0,0.0,0.0,0.0,0.0,0.0,0.0,0.0,0.0,0.0,0.0,0.0,0.0,0.0,0.0,0.0,0.0,0.0,0.0,0.0,0.0,0.0,0.0,0.0,0.0,0.0,0.0,0.0,0.0,0.0,0.0,0.0,0.0,0.0,0.0,0.0,0.0,0.0,0.0,0.0,0.0,0.0,0.0,0.0,0.0,3.3491,3.3457,3.3525,3.3626,3.3457,3.3558,3.3119,0.0,0.0,0.0,0.0,0.0,0.0,0.0,0.0,0.0,0.0,0.0,0.0,0.0,0.0,0.0,0.0,0.0,0.0,0.0,0.0,0.0,0.0,0.0,0.0,0.0,0.0,0.0,0.0,0.0,0.0,0.0,0.0,0.0,0.0,0.0,0.0,0.0,0.0,0.0,0.0,0.0,0.0,0.0,0.0,0.0,0.0,0.0,0.0,0.0,0.0,0.0,0.0,0.0,0.0,0.0,0.0,0.0,0.0,0.0,0.0,0.0,0.0,0.0,0.0,0.0,0.0,0.0,0.0,0.0,0.0,0.0,0.0,0.0,0.0,0.0,0.0,0.0,0.0,0.0,0.0,0.0,0.0,0.0,0.0,0.0,0.0,0.0,0.0,0.0,0.0,0.0,0.0,0.0,0.0,0.0,0.0,0.0,0.0,0.0,0.0,0.0,0.0,0.0,0.0,0.0,0.0,0.0,0.0,0.0,3.4957,3.5938,3.6502,3.6502,3.5994,3.5351,0.0,0.0,0.0,0.0,0.0,0.0,0.0,0.0,0.0,0.0,0.0,0.0,0.0,0.0,0.0,0.0,0.0,0.0,0.0,0.0,0.0,0.0,0.0,0.0,0.0,0.0,0.0,0.0,0.0,0.0,0.0,0.0,0.0,0.0,0.0,0.0,0.0,0.0,0.0,0.0,0.0,0.0,0.0,0.0,0.0,0.0,0.0,0.0,0.0,0.0,0.0,0.0,0.0,0.0,0.0,0.0,0.0,0.0,0.0,0.0,0.0,0.0,0.0,0.0,0.0,0.0,0.0,0.0,0.0,0.0,0.0,0.0,0.0,0.0,0.0,0.0,0.0,0.0,0.0,0.0,0.0,0.0,0.0,0.0,0.0,0.0,0.0,0.0,0.0,0.0,0.0,0.0,0.0,0.0,0.0,0.0,0.0,0.0,0.0,0.0,0.0,0.0,0.0,0.0,0.0,0.0,0.0,0.0,0.0,3.7696,3.8091,3.8328,3.8294,3.7855,3.711,3.6062,0.0,0.0,0.0,0.0,0.0,0.0,0.0,0.0,0.0,0.0,0.0,0.0,0.0,0.0,0.0,0.0,0.0,0.0,0.0,0.0,0.0,0.0,0.0,0.0,0.0,0.0,0.0,0.0,0.0,0.0,0.0,0.0,0.0,0.0,0.0,0.0,0.0,0.0,0.0,0.0,0.0,0.0,0.0,0.0,0.0,0.0,0.0,0.0,0.0,0.0,0.0,0.0,0.0,0.0,0.0,0.0,0.0,0.0,0.0,0.0,0.0,0.0,0.0,0.0,0.0,0.0,0.0,0.0,0.0,0.0,0.0,0.0,0.0,0.0,0.0,0.0,0.0,0.0,0.0,0.0,0.0,0.0,0.0,0.0,0.0,0.0,0.0,0.0,0.0,0.0,0.0,0.0,0.0,0.0,0.0,0.0,0.0,0.0,0.0,0.0,0.0,0.0,0.0,0.0,0.0,0.0,0.0,0.0,4.1441,4.0113,3.9402,3.9276,3.9174,3.8454,0.0,0.0,0.0,0.0,0.0,0.0,0.0,0.0,0.0,0.0,0.0,0.0,0.0,0.0,0.0,0.0,0.0,0.0,0.0,0.0,0.0,0.0,0.0,0.0,0.0,0.0,0.0,0.0,0.0,0.0,0.0,0.0,0.0,0.0,0.0,0.0,0.0,0.0,0.0,0.0,0.0,0.0,0.0,0.0,0.0,0.0,0.0,0.0,0.0,0.0,0.0,0.0,0.0,0.0,0.0,0.0,0.0,0.0,0.0,0.0,0.0,0.0,0.0,0.0,0.0,0.0,0.0,0.0,0.0,0.0,0.0,0.0,0.0,0.0,0.0,0.0,0.0,0.0,0.0,0.0,0.0,0.0,0.0,0.0,0.0,0.0,0.0,0.0,0.0,0.0,0.0,0.0,0.0,0.0,0.0,0.0,0.0,0.0,0.0,0.0,0.0,0.0,0.0,0.0,0.0,0.0,0.0,0.0,0.0,4.4384,4.4224,4.3478,4.2286,4.1204,4.0189,0.0,0.0,0.0,0.0,0.0,0.0,0.0,0.0,0.0,0.0,0.0,0.0,0.0,0.0,0.0,0.0,0.0,0.0,0.0,0.0,0.0,0.0,0.0,0.0,0.0,0.0,0.0,0.0,0.0,0.0,0.0,0.0,0.0,0.0,0.0,0.0,0.0,0.0,0.0,0.0,0.0,0.0,0.0,0.0,0.0,0.0,0.0,0.0,0.0,0.0,0.0,0.0,0.0,0.0,0.0,0.0,0.0,0.0,0.0,0.0,0.0,0.0,0.0,0.0,0.0,0.0,0.0,0.0,0.0,0.0,0.0,0.0,0.0,0.0,0.0,0.0,0.0,0.0,0.0,0.0,0.0,0.0,0.0,0.0,0.0,0.0,0.0,0.0,0.0,0.0,0.0,0.0,0.0,0.0,0.0,0.0,0.0,0.0,0.0,0.0,0.0,0.0,0.0,0.0,0.0,0.0,0.0,0.0,4.3775,4.6109,4.745,4.7412,4.5891,4.3512,4.1918,0.0,0.0,0.0,0.0,0.0,0.0,0.0,0.0,0.0,0.0,0.0,0.0,0.0,0.0,0.0,0.0,0.0,0.0,0.0,0.0,0.0,0.0,0.0,0.0,0.0,0.0,0.0,0.0,0.0,0.0,0.0,0.0,0.0,0.0,0.0,0.0,0.0,0.0,0.0,0.0,0.0,0.0,0.0,0.0,0.0,0.0,0.0,0.0,0.0,0.0,0.0,0.0,0.0,0.0,0.0,0.0,0.0,0.0,0.0,0.0,0.0,0.0,0.0,0.0,0.0,0.0,0.0,0.0,0.0,0.0,0.0,0.0,0.0,0.0,0.0,0.0,0.0,0.0,0.0,0.0,0.0,0.0,0.0,0.0,0.0,0.0,0.0,0.0,0.0,0.0,0.0,0.0,0.0,0.0,0.0,0.0,0.0,0.0,0.0,0.0,0.0,0.0,0.0,0.0,0.0,0.0,0.0,0.0,4.563,4.7225,4.9864,5.0706,4.9607,4.6028,4.3639,0.0,0.0,0.0,0.0,0.0,0.0,0.0,0.0,0.0,0.0,0.0,0.0,0.0,0.0,0.0,0.0,0.0,0.0,0.0,0.0,0.0,0.0,0.0,0.0,0.0,0.0,0.0,0.0,0.0,0.0,0.0,0.0,0.0,0.0,0.0,0.0,0.0,0.0,0.0,0.0,0.0,0.0,0.0,0.0,0.0,0.0,0.0,0.0,0.0,0.0,0.0,0.0,0.0,0.0,0.0,0.0,0.0,0.0,0.0,0.0,0.0,0.0,0.0,0.0,0.0,0.0,0.0,0.0,0.0,0.0,0.0,0.0,0.0,0.0,0.0,0.0,0.0,0.0,0.0,0.0,0.0,0.0,0.0,0.0,0.0,0.0,0.0,0.0,0.0,0.0,0.0,0.0,0.0,0.0,0.0,0.0,0.0,0.0,0.0,0.0,0.0,0.0,0.0,0.0,0.0,0.0,0.0,0.0,4.7597,5.0202,5.1007,5.1849,5.2697,4.8549,4.5416,0.0,0.0,0.0,0.0,0.0,0.0,0.0,0.0,0.0,0.0,0.0,0.0,0.0,0.0,0.0,0.0,0.0,0.0,0.0,0.0,0.0,0.0,0.0,0.0,0.0,0.0,0.0,0.0,0.0,0.0,0.0,0.0,0.0,0.0,0.0,0.0,0.0,0.0,0.0,0.0,0.0,0.0,0.0,0.0,0.0,0.0,0.0,0.0,3.5913,0.0,0.0,0.0,0.0,0.0,0.0,0.0,0.0,0.0,0.0,0.0,0.0,0.0,0.0,0.0,0.0,0.0,0.0,0.0,0.0,0.0,0.0,0.0,0.0,0.0,0.0,0.0,0.0,0.0,0.0,0.0,0.0,0.0,0.0,0.0,0.0,0.0,0.0,0.0,0.0,0.0,0.0,0.0,0.0,0.0,0.0,0.0,0.0,0.0,0.0,0.0,0.0,0.0,0.0,0.0,0.0,0.0,0.0,0.0,4.9086,5.1657,5.2972,5.3715,5.3714,5.1219,4.825,0.0,0.0,0.0,0.0,0.0,0.0,0.0,0.0,0.0,0.0,0.0,0.0,0.0,0.0,0.0,0.0,0.0,0.0,0.0,0.0,0.0,0.0,0.0,0.0,0.0,0.0,0.0,0.0,0.0,0.0,0.0,0.0,0.0,0.0,0.0,0.0,0.0,0.0,0.0,0.0,0.0,0.0,0.0,0.0,0.0,0.0,0.0,0.0,0.0,0.0,0.0,0.0,0.0,0.0,0.0,0.0,0.0,0.0,0.0,0.0,0.0,0.0,0.0,0.0,0.0,0.0,0.0,0.0,0.0,0.0,0.0,0.0,0.0,0.0,0.0,0.0,0.0,0.0,0.0,0.0,0.0,0.0,0.0,0.0,0.0,0.0,0.0,0.0,0.0,0.0,0.0,0.0,0.0,0.0,0.0,0.0,0.0,0.0,0.0,0.0,0.0,0.0,0.0,0.0,0.0,0.0,0.0,4.7665,5.0304,5.2637,5.4873,5.5417,5.4324,5.3462,5.083,4.6238,0.0,0.0,0.0,0.0,0.0,0.0,0.0,0.0,0.0,0.0,0.0,0.0,0.0,0.0,0.0,0.0,0.0,0.0,0.0,0.0,0.0,0.0,0.0,0.0,0.0,0.0,0.0,0.0,0.0,0.0,0.0,0.0,0.0,0.0,0.0,0.0,0.0,0.0,3.5775,3.6597,0.0,0.0,0.0,0.0,0.0,0.0,0.0,0.0,3.9166,0.0,0.0,0.0,0.0,0.0,0.0,0.0,0.0,0.0,0.0,0.0,0.0,0.0,0.0,0.0,0.0,0.0,0.0,0.0,0.0,0.0,0.0,0.0,0.0,0.0,0.0,0.0,0.0,0.0,0.0,0.0,0.0,0.0,0.0,0.0,0.0,0.0,0.0,0.0,0.0,0.0,0.0,0.0,0.0,0.0,0.0,0.0,0.0,0.0,0.0,0.0,0.0,0.0,0.0,0.0,0.0,4.55,4.8409,5.1415,5.4397,5.5279,5.5721,5.5621,5.3715,5.0793,4.6908,0.0,0.0,0.0,0.0,0.0,0.0,0.0,0.0,0.0,0.0,0.0,0.0,0.0,0.0,0.0,0.0,0.0,0.0,0.0,0.0,0.0,0.0,0.0,0.0,0.0,0.0,0.0,0.0,0.0,0.0,0.0,0.0,0.0,0.0,0.0,0.0,0.0,0.0,0.0,4.0215,4.0965,0.0,0.0,0.0,0.0,0.0,0.0,0.0,0.0,4.0744,0.0,0.0,0.0,0.0,0.0,0.0,0.0,0.0,0.0,0.0,0.0,0.0,0.0,0.0,0.0,0.0,0.0,0.0,0.0,0.0,0.0,0.0,0.0,0.0,0.0,0.0,0.0,0.0,0.0,0.0,0.0,0.0,0.0,0.0,0.0,0.0,0.0,0.0,0.0,0.0,0.0,0.0,0.0,0.0,0.0,0.0,0.0,0.0,0.0,0.0,0.0,0.0,0.0,0.0,0.0,4.7361,5.0338,5.3178,5.5788,5.6602,5.6912,5.6644,5.4529,5.1626,0.0,0.0,0.0,0.0,0.0,0.0,0.0,0.0,0.0,0.0,0.0,0.0,0.0,0.0,0.0,0.0,0.0,0.0,0.0,0.0,0.0,0.0,0.0,0.0,0.0,0.0,0.0,0.0,0.0,0.0,0.0,0.0,0.0,0.0,0.0,0.0,0.0,0.0,0.0,0.0,4.2066,4.324,4.5663,0.0,0.0,0.0,0.0,0.0,0.0,4.4158,4.2616,0.0,0.0,0.0,0.0,0.0,0.0,0.0,0.0,0.0,0.0,0.0,0.0,0.0,0.0,0.0,0.0,0.0,0.0,0.0,0.0,0.0,0.0,0.0,0.0,0.0,0.0,0.0,0.0,0.0,0.0,0.0,0.0,0.0,0.0,0.0,0.0,0.0,0.0,0.0,0.0,0.0,0.0,0.0,0.0,0.0,0.0,0.0,0.0,0.0,0.0,0.0,0.0,0.0,0.0,0.0,4.8951,5.1961,5.4566,5.6803,5.7725,5.8006,5.7533,5.5069,5.2252,0.0,0.0,0.0,0.0,0.0,0.0,0.0,0.0,0.0,0.0,0.0,0.0,0.0,0.0,0.0,0.0,0.0,0.0,0.0,0.0,0.0,0.0,0.0,0.0,0.0,0.0,0.0,0.0,0.0,0.0,0.0,0.0,0.0,0.0,0.0,0.0,0.0,0.0,0.0,0.0,0.0,4.5259,4.8122,4.7462,0.0,0.0,0.0,0.0,4.7993,4.6471,0.0,0.0,0.0,0.0,0.0,0.0,0.0,0.0,0.0,0.0,0.0,0.0,0.0,0.0,0.0,0.0,0.0,0.0,0.0,0.0,0.0,0.0,0.0,0.0,0.0,0.0,0.0,0.0,0.0,0.0,0.0,0.0,0.0,0.0,0.0,0.0,0.0,0.0,0.0,0.0,0.0,0.0,0.0,0.0,0.0,0.0,0.0,0.0,0.0,0.0,0.0,0.0,0.0,0.0,0.0,0.0,4.8984,5.1961,5.4635,5.698,5.7797,5.8244,5.8285,5.4417,5.161,0.0,0.0,0.0,0.0,0.0,0.0,0.0,0.0,0.0,0.0,0.0,0.0,0.0,0.0,0.0,0.0,0.0,0.0,0.0,0.0,0.0,0.0,0.0,0.0,0.0,0.0,0.0,0.0,0.0,0.0,0.0,0.0,0.0,0.0,0.0,0.0,0.0,0.0,0.0,0.0,0.0,4.7352,4.9187,4.9317,4.9243,0.0,0.0,5.1316,5.1426,5.1169,0.0,0.0,0.0,0.0,0.0,0.0,0.0,0.0,0.0,0.0,0.0,0.0,0.0,0.0,0.0,0.0,0.0,0.0,0.0,0.0,0.0,0.0,0.0,0.0,0.0,0.0,0.0,0.0,0.0,0.0,0.0,0.0,0.0,0.0,0.0,0.0,0.0,0.0,0.0,0.0,0.0,0.0,0.0,0.0,0.0,0.0,0.0,0.0,0.0,0.0,0.0,0.0,0.0,0.0,0.0,4.7936,5.0845,5.3856,5.6496,5.8668,5.8407,5.8721,5.972,5.5003,5.2062,0.0,0.0,0.0,0.0,0.0,0.0,0.0,0.0,0.0,0.0,0.0,0.0,0.0,0.0,0.0,0.0,0.0,0.0,0.0,0.0,0.0,0.0,0.0,0.0,0.0,0.0,0.0,0.0,0.0,0.0,0.0,0.0,0.0,0.0,0.0,0.0,0.0,0.0,0.0,0.0,0.0,0.0,5.1353,5.2013,0.0,0.0,0.0,5.3188,5.2747,0.0,0.0,0.0,0.0,0.0,0.0,0.0,0.0,0.0,0.0,0.0,0.0,0.0,0.0,0.0,0.0,0.0,0.0,0.0,0.0,0.0,0.0,0.0,0.0,0.0,0.0,0.0,0.0,0.0,0.0,0.0,0.0,0.0,0.0,0.0,0.0,0.0,0.0,0.0,0.0,0.0,0.0,0.0,0.0,0.0,0.0,0.0,0.0,0.0,0.0,0.0,0.0,0.0,0.0,0.0,0.0,0.0,5.2266,5.5446,5.8051,5.9979,5.9217,5.9434,6.0771,5.6372,0.0,0.0,0.0,0.0,0.0,0.0,0.0,0.0,0.0,0.0,0.0,0.0,0.0,0.0,0.0,0.0,0.0,0.0,0.0,0.0,0.0,0.0,0.0,0.0,0.0,0.0,0.0,3.2479,0.0,0.0,0.0,0.0,0.0,0.0,0.0,0.0,0.0,0.0,0.0,0.0,0.0,0.0,5.1169,5.3225,5.4546,5.5794,0.0,0.0,5.517,5.4745,5.4671,5.3812,0.0,0.0,0.0,0.0,0.0,0.0,0.0,0.0,0.0,0.0,0.0,0.0,0.0,0.0,0.0,0.0,0.0,0.0,0.0,0.0,0.0,0.0,0.0,0.0,0.0,0.0,0.0,0.0,0.0,0.0,0.0,0.0,0.0,0.0,0.0,0.0,0.0,0.0,0.0,0.0,0.0,0.0,0.0,0.0,0.0,0.0,0.0,0.0,0.0,0.0,0.0,0.0,0.0,0.0,0.0,5.23,5.5953,5.8558,6.0013,6.0201,6.0653,6.1439,5.8587,5.6269,0.0,0.0,0.0,0.0,0.0,0.0,0.0,0.0,0.0,0.0,0.0,0.0,0.0,0.0,0.0,0.0,0.0,0.0,0.0,0.0,0.0,0.0,0.0,0.0,0.0,0.0,0.0,0.0,0.0,0.0,0.0,0.0,0.0,0.0,0.0,0.0,0.0,0.0,0.0,0.0,0.0,5.3277,5.4216,5.6271,5.807,0.0,0.0,5.7997,5.8671,5.8781,5.7717,5.4583,0.0,0.0,0.0,0.0,0.0,0.0,0.0,0.0,0.0,0.0,0.0,0.0,0.0,0.0,0.0,0.0,0.0,0.0,0.0,0.0,0.0,0.0,0.0,0.0,0.0,0.0,0.0,0.0,0.0,0.0,0.0,0.0,0.0,0.0,0.0,0.0,0.0,0.0,0.0,0.0,0.0,0.0,0.0,0.0,0.0,0.0,0.0,0.0,0.0,0.0,0.0,0.0,0.0,5.0507,5.3044,5.6697,5.9742,6.2042,6.1049,6.1435,6.3577,5.9876,5.7358,0.0,0.0,0.0,0.0,0.0,0.0,0.0,0.0,0.0,0.0,0.0,0.0,0.0,0.0,0.0,0.0,0.0,0.0,0.0,0.0,0.0,0.0,0.0,0.0,0.0,0.0,0.0,0.0,4.1487,4.2359,4.2159,0.0,0.0,0.0,0.0,0.0,0.0,0.0,0.0,0.0,0.0,5.4862,5.7703,5.9318,0.0,0.0,6.075,6.0309,6.0639,5.9869,5.845,5.6235,5.4546,0.0,0.0,0.0,0.0,0.0,0.0,0.0,0.0,0.0,0.0,0.0,0.0,0.0,0.0,0.0,0.0,0.0,0.0,0.0,0.0,0.0,0.0,0.0,0.0,0.0,0.0,0.0,0.0,0.0,0.0,0.0,0.0,0.0,0.0,0.0,0.0,0.0,0.0,0.0,0.0,0.0,0.0,0.0,0.0,0.0,0.0,0.0,0.0,0.0,0.0,0.0,0.0,5.1792,5.4465,5.8152,6.1264,6.3768,6.2363,6.2542,6.4313,6.163,5.9355,0.0,0.0,0.0,0.0,0.0,0.0,0.0,0.0,0.0,0.0,0.0,0.0,0.0,0.0,0.0,0.0,0.0,0.0,0.0,0.0,0.0,0.0,0.0,0.0,0.0,0.0,0.0,0.0,4.383,4.421,4.3336,0.0,0.0,0.0,0.0,0.0,0.0,0.0,0.0,0.0,0.0,5.7344,6.0028,6.13,6.2181,6.2707,6.2108,6.1667,6.1924,6.0982,5.9808,5.8474,0.0,0.0,0.0,0.0,0.0,0.0,0.0,0.0,0.0,0.0,0.0,0.0,0.0,0.0,0.0,0.0,0.0,0.0,0.0,0.0,0.0,0.0,0.0,0.0,0.0,0.0,0.0,0.0,0.0,0.0,3.56,0.0,0.0,0.0,0.0,0.0,0.0,0.0,0.0,0.0,0.0,0.0,0.0,0.0,0.0,0.0,0.0,0.0,0.0,0.0,0.0,0.0,0.0,5.3044,5.6697,6.0317,6.3024,6.4546,6.4512,6.4174,6.37,6.414,6.2719,5.9099,0.0,0.0,0.0,0.0,0.0,0.0,0.0,0.0,0.0,0.0,0.0,0.0,0.0,0.0,0.0,0.0,0.0,0.0,0.0,0.0,0.0,0.0,0.0,0.0,0.0,0.0,3.9422,4.2898,4.5062,0.0,0.0,0.0,0.0,0.0,0.0,0.0,0.0,0.0,0.0,5.7739,6.1018,6.0542,6.1814,6.2853,6.289,6.2218,6.1924,6.2707,6.2743,6.2475,0.0,0.0,0.0,0.0,0.0,0.0,0.0,0.0,0.0,0.0,0.0,0.0,0.0,0.0,0.0,0.0,0.0,0.0,0.0,0.0,0.0,0.0,0.0,0.0,0.0,0.0,0.0,4.0502,4.0121,0.0,0.0,0.0,0.0,0.0,0.0,0.0,0.0,0.0,0.0,0.0,5.0101,5.0879,0.0,0.0,0.0,0.0,0.0,0.0,0.0,0.0,0.0,0.0,0.0,0.0,5.4566,5.6867,6.0486,6.3599,6.5967,6.5121,6.5189,6.6406,6.573,6.3835,6.0622,0.0,0.0,0.0,0.0,0.0,0.0,0.0,0.0,0.0,0.0,0.0,0.0,0.0,0.0,0.0,0.0,0.0,0.0,0.0,0.0,0.0,0.0,0.0,0.0,0.0,4.2704,0.0,0.0,0.0,0.0,0.0,0.0,0.0,0.0,0.0,0.0,0.0,5.5522,5.8105,5.9976,6.1678,6.3121,6.4244,6.5121,0.0,0.0,0.0,0.0,0.0,0.0,0.0,0.0,0.0,0.0,0.0,0.0,0.0,0.0,5.5354,5.2139,5.2417,5.3151,5.3151,0.0,0.0,0.0,0.0,0.0,0.0,0.0,0.0,0.0,0.0,0.0,0.0,0.0,0.0,4.5432,0.0,4.5297,0.0,0.0,0.0,0.0,0.0,0.0,0.0,0.0,5.1555,5.2976,5.389,5.4668,5.504,0.0,5.4262,5.1623,0.0,0.0,0.0,0.0,0.0,0.0,0.0,0.0,5.6224,5.8017,6.1907,6.4986,6.7049,6.6508,6.6711,6.7827,6.6711,6.523,6.3413,6.0981,5.7927,0.0,0.0,0.0,0.0,0.0,0.0,0.0,0.0,0.0,0.0,0.0,0.0,0.0,0.0,0.0,0.0,0.0,0.0,0.0,0.0,0.0,0.0,0.0,4.6003,0.0,0.0,0.0,0.0,0.0,0.0,0.0,0.0,0.0,5.3842,5.6345,5.9015,6.1245,6.2646,6.3804,6.4698,0.0,0.0,0.0,0.0,0.0,0.0,0.0,6.4035,6.3513,6.358,6.35,6.3025,6.2695,6.2695,6.3209,0.0,0.0,5.6689,5.6565,5.7262,5.7262,5.6859,5.6638,5.7152,5.7703,5.8327,0.0,0.0,0.0,0.0,0.0,0.0,0.0,0.0,5.132,5.0137,0.0,4.9661,0.0,0.0,0.0,0.0,0.0,5.0238,0.0,0.0,5.69,5.8321,5.7137,5.778,5.8118,5.7949,5.6021,5.5006,5.4905,5.4228,0.0,0.0,0.0,0.0,0.0,0.0,5.8017,6.025,6.4546,6.7184,6.7929,6.8673,6.8707,6.7996,6.732,6.7032,6.7105,6.4261,6.2295,6.1469,5.5177,0.0,0.0,0.0,0.0,0.0,0.0,0.0,0.0,0.0,0.0,0.0,0.0,0.0,0.0,0.0,0.0,0.0,0.0,0.0,0.0,4.7654,0.0,0.0,0.0,0.0,0.0,0.0,0.0,0.0,0.0,0.0,5.6613,5.9786,6.2285,6.2367,0.0,0.0,0.0,0.0,6.7805,6.6397,6.6148,6.5924,6.5202,6.6329,6.7271,6.7263,0.0,0.0,6.8027,6.721,6.6696,6.6733,6.8495,6.8164,6.1998,6.1006,6.1006,6.1006,6.108,6.086,6.0933,6.2365,6.3503,5.3179,0.0,0.0,0.0,0.0,5.1048,5.2334,5.4465,5.4972,5.4566,5.3518,5.4465,0.0,0.0,0.0,0.0,0.0,0.0,5.4871,5.7137,5.8964,6.0419,6.1603,6.2347,6.2685,6.2651,6.2009,6.2009,6.2482,6.2313,5.9032,5.2942,0.0,0.0,0.0,0.0,6.0825,6.2618,6.5865,6.7963,6.8741,6.8977,6.9248,6.9519,6.949,6.9194,6.8556,6.7794,6.5529,6.1545,5.9475,0.0,0.0,0.0,0.0,0.0,0.0,0.0,0.0,0.0,0.0,0.0,0.0,0.0,0.0,0.0,0.0,0.0,0.0,0.0,4.8859,5.1293,5.2138,0.0,0.0,0.0,0.0,0.0,0.0,0.0,0.0,0.0,6.3382,6.3676,6.3801,0.0,0.0,6.6311,6.6232,6.7686,6.8858,6.9053,6.8958,0.0,0.0,6.9517,6.9541,6.9473,7.0071,7.0617,7.0938,7.0783,7.0849,7.1476,7.1725,7.1138,6.9596,6.9045,6.9009,6.9045,6.9045,6.9045,6.9082,6.9449,6.9926,5.9235,5.7002,5.4668,5.4194,5.5006,5.5277,5.6697,5.8863,5.9573,5.9167,5.7983,5.8693,5.7476,5.4803,5.4803,0.0,0.0,0.0,5.8693,6.1264,6.167,6.2787,6.4343,6.485,6.5189,6.5459,6.5493,6.5696,6.6102,6.5527,6.2956,5.8423,0.0,0.0,5.8626,6.1264,6.3057,6.4038,6.7151,6.9045,6.9519,6.9823,7.006,7.0161,7.0599,7.0395,6.9553,6.965,6.8192,6.4952,6.3125,5.9979,0.0,0.0,0.0,0.0,0.0,0.0,0.0,0.0,0.0,0.0,0.0,4.3098,4.1779,0.0,0.0,0.0,4.9695,5.1285,5.301,5.4025,0.0,0.0,0.0,0.0,0.0,0.0,0.0,5.7804,6.1155,6.4279,6.6447,6.6696,6.6811,6.7213,6.7588,6.8055,6.8499,0.0,7.0915,7.1171,7.1093,7.1105,7.1285,7.1563,7.1979,7.2689,7.2965,7.3312,7.4031,7.4428,7.4891,7.5439,7.5506,7.5395,7.5395,7.5395,7.4661,7.2899,7.2532,7.2532,7.2532,7.301,7.3707,6.4783,6.4309,5.8896,5.7746,5.9505,6.025,6.1738,6.37,6.4444,6.3632,6.1806,6.2448,6.0825,5.7611,5.7577,0.0,6.0655,6.14,6.2821,6.4783,6.485,6.5222,6.5831,6.5933,6.6305,6.7015,6.6981,6.6981,6.6948,6.573,6.5392,6.6,6.4715,6.326,6.1839,6.3734,6.485,6.4986,6.847,7.0331,7.0466,7.1142,7.1142,7.05,7.1176,7.1244,7.05,7.0398,7.0297,7.006,6.6203,6.3497,6.2279,0.0,0.0,0.0,0.0,0.0,0.0,0.0,0.0,0.0,0.0,0.0,0.0,0.0,0.0,0.0,5.4329,0.0,5.8254,5.663,0.0,0.0,0.0,5.9253,6.2002,6.2518,6.2943,6.3639,0.0,0.0,6.7133,6.8963,7.0587,7.1607,7.1496,7.1324,7.1415,7.2544,7.3362,7.2636,7.2614,7.2389,7.1924,7.2858,7.4307,7.5974,7.6654,7.6617,7.708,7.7687,7.8332,7.8453,7.925,7.9653,7.9727,7.9433,7.8405,7.4074,7.3303,7.3266,7.3634,7.4661,7.5909,6.6271,6.617,6.4749,6.3835,6.3328,6.4038,6.4681,6.5222,6.5967,6.6,6.5527,6.5696,6.5256,6.4444,6.4444,6.4715,6.5222,6.5425,6.5797,6.6305,6.6846,6.7218,6.7421,6.7996,6.8368,6.8538,6.8571,6.8571,6.8571,6.8774,6.8944,6.9079,6.8774,6.7286,6.4783,6.573,6.6846,6.803,7.0026,7.1582,7.2665,7.2868,7.2868,7.2699,7.3409,7.3477,7.2732,7.2157,7.1345,7.0229,6.8639,6.6136,6.255,5.9235,0.0,0.0,0.0,0.0,0.0,0.0,0.0,0.0,0.0,4.8578,4.7432,0.0,5.3721,0.0,5.9844,6.3024,6.299,6.3024,0.0,0.0,6.2106,6.2377,6.3124,6.5162,6.6445,6.6034,6.7828,6.9601,7.0872,7.1005,7.1919,7.4274,7.2711,7.1504,7.2115,7.2942,7.3525,7.3404,7.3778,7.406,7.3856,7.4699,7.5931,7.7782,7.7625,7.7523,7.8395,7.8711,7.892,7.9214,7.9425,7.9636,7.9769,7.9832,7.9507,7.8295,7.8038,7.8259,7.8846,7.925,7.9947,6.7827,6.7827,6.7827,6.7354,6.6609,6.6677,6.6677,6.6745,6.7489,6.7827,6.7827,6.7827,6.7624,6.7354,6.803,6.8132,6.7861,6.8166,6.8132,6.7861,6.8267,6.8605,6.8944,6.9722,7.0263,7.0567,7.0906,7.1041,7.1075,7.1447,7.165,7.165,7.165,7.0669,6.8741,6.8436,6.8741,6.9586,7.1041,7.236,7.3443,7.3477,7.3341,7.3037,7.3409,7.3443,7.3037,7.2293,7.1684,7.1176,6.9857,6.7827,6.4952,6.211,5.9302,0.0,0.0,0.0,0.0,0.0,0.0,0.0,0.0,0.0,0.0,0.0,5.8017,5.9099,6.3463,6.5764,6.4715,6.4952,6.5087,6.4884,6.5222,6.6,6.732,6.891,6.9992,7.0263,7.1379,7.2597,7.3713,7.351,7.3815,7.5473,7.4289,7.3424,7.3866,7.4274,7.4475,7.456,7.4852,7.51,7.51,7.5823,7.6773,7.7684,7.7863,7.8206,7.9215,7.9467,7.9645,8.0266,8.0502,8.0568,8.0601,8.0666,8.0699,8.0634,8.0666,8.0658,8.0534,8.1048,8.1856,6.9383,6.9383,6.9383,6.9417,6.9485,6.8774,6.8368,6.8267,6.9147,6.9586,6.9654,6.9654,6.9282,6.8707,6.9891,7.0128,6.9586,7.0094,6.9992,6.9383,6.9485,6.9857,7.05,7.1244,7.1921,7.2563,7.3206,7.3477,7.3477,7.3578,7.3578,7.3477,7.3578,7.3274,7.2529,7.1244,7.0567,7.05,7.1921,7.2969,7.3612,7.3544,7.3172,7.2563,7.2529,7.2529,7.2496,7.1819,7.1751,7.2293,7.0466,6.9011,6.8166,6.4952,6.2448,0.0,5.8355,0.0,0.0,0.0,0.0,0.0,0.0,0.0,0.0,6.0689,6.2651,6.4241,6.6203,6.6914,6.5831,6.573,6.6508,6.8368,6.8707,6.9823,7.2326,7.2766,7.3308,7.4593,7.4762,7.4999,7.5506,7.5676,7.5676,7.5676,7.5574,7.5405,7.5608,7.5574,7.5574,7.5676,7.5676,7.5608,7.5655,7.6312,7.6871,7.7095,7.765,7.8606,7.9501,7.9729,8.0068,8.0911,8.1086,8.1298,8.1405,8.1542,8.161,8.1503,8.1639,8.1549,8.0984,8.1672,8.248,7.0906,7.0906,7.0906,7.1244,7.1751,7.1616,7.0872,6.9857,7.121,7.209,7.2665,7.2665,7.2563,7.2394,7.209,7.1887,7.1751,7.1312,7.1041,7.0906,7.1515,7.1853,7.2022,7.2732,7.3138,7.3274,7.3409,7.3477,7.3477,7.4086,7.4086,7.351,7.4086,7.4018,7.3308,0.0,0.0,0.0,7.3443,7.4255,7.4356,7.3815,7.3409,7.3274,7.3274,0.0,7.324,7.2597,7.2259,7.236,7.1447,0.0,0.0,0.0,0.0,0.0,0.0,0.0,0.0,0.0,0.0,0.0,6.3497,6.326,6.2584,6.4512,6.6643,6.8707,6.9857,7.0838,7.1718,7.1785,7.1954,7.236,7.2935,7.3578,7.4153,7.4695,7.5202,7.5439,7.5506,7.554,7.5642,7.5676,7.5676,7.5676,7.5676,7.5676,7.5676,7.5676,7.5676,7.5676,7.5676,7.5676,7.5676,7.5832,7.6163,7.6895,7.7209,7.7676,7.8418,7.8659,7.8776,7.9262,7.9298,7.965,8.0366,8.0586,8.084,8.1476,8.1751,8.2248,8.3234,8.3774,8.4315,7.1853,0.0,7.2225,7.2597,0.0,7.2935,7.2496,7.1853,7.2597,7.3138,7.3477,7.3477,7.3477,7.3477,7.3105,7.2732,7.2394,7.2394,7.2191,7.1887,7.2597,7.2935,7.2969,7.368,7.4018,7.4052,7.439,7.4593,7.4593,7.4965,7.4931,7.4593,7.4965,7.4965,7.4593,7.4593,7.4221,7.3477,7.4255,7.4796,7.5134,7.4762,7.4424,7.4052,0.0,0.0,0.0,0.0,0.0,0.0,0.0,0.0,0.0,0.0,0.0,6.803,6.7252,6.6981,6.7354,6.7692,6.8064,6.8436,6.9451,6.9147,6.6981,6.9519,7.1515,7.2293,7.3037,7.3646,7.3984,7.4052,7.4052,7.4086,7.439,7.4728,7.51,7.5473,7.5676,7.5676,7.5676,7.5676,7.5676,7.5676,7.5676,7.5676,7.5676,7.5709,7.5676,7.5676,7.5676,7.5676,7.5371,7.5134,7.51,7.4796,7.4767,7.5208,7.5345,7.5716,7.6477,7.6961,7.7376,7.7878,7.8371,7.8898,7.9258,7.9801,8.0291,8.0623,8.1231,8.2082,8.332,8.3783,8.4132,7.2597,7.2631,7.324,7.3544,7.368,7.368,7.3781,7.3883,0.0,0.0,0.0,7.368,7.3612,7.3477,7.3341,7.3037,7.2631,7.3071,7.3037,7.2631,7.3341,7.368,7.3713,7.4458,7.4796,7.483,7.5405,7.5676,7.5676,7.5676,7.5676,7.5676,7.5676,7.5676,7.5676,7.5676,7.5405,7.483,7.4695,7.4897,7.5473,7.5371,7.5033,7.4424,7.4424,7.4119,7.351,7.3477,7.3477,7.3477,7.3477,7.2935,7.1819,7.2394,7.1988,7.0263,7.0195,7.0534,7.1109,7.1751,7.236,7.2935,7.4255,7.3883,7.1176,7.3883,7.5439,7.4864,7.5337,7.5439,7.4864,7.4796,7.4796,7.4796,7.4796,7.5067,7.5574,7.5676,7.5676,7.5676,7.5676,7.5676,7.5676,7.5676,7.5676,7.5709,7.5845,7.598,7.6048,7.6082,7.5912,7.5709,7.5473,7.51,7.4796,7.4458,7.3916,7.4213,7.4065,7.4172,7.4806,7.5519,7.6173,7.6911,7.7685,7.8042,7.8231,7.8811,7.9451,7.9491,8.0436,8.1452,8.2173,8.2744,8.3163,7.3341,7.3341,7.3443,7.3849,7.4458,7.4458,7.4796,7.5303,7.4728,7.4458,7.4458,7.4458,7.4086,7.3443,7.2834,7.2834,7.3274,7.28,7.2834,7.3375,7.4086,7.4458,7.4492,7.5202,7.554,7.554,7.5642,7.5676,7.5676,7.5676,7.5676,7.5676,7.5676,7.5676,7.5676,7.5676,7.5642,7.554,7.4931,7.4661,7.4762,7.4119,7.3747,7.3646,7.368,7.3612,7.3477,7.3477,7.3477,7.3477,7.3477,7.3375,7.324,7.3883,7.4153,7.3916,7.4424,7.483,7.4897,7.5033,7.5134,7.527,7.6082,7.5845,7.4221,7.5033,7.5642,7.554,7.5642,7.5676,7.554,7.5506,7.5473,7.5506,7.554,7.5608,7.5676,7.5676,7.5676,7.5676,7.5676,7.5709,7.5777,7.5743,7.5777,7.5845,7.6352,7.6927,7.7299,7.713,7.6487,7.598,7.6217,7.6217,7.5709,7.5473,7.527,7.5371,7.527,7.5249,7.5451,7.5701,7.5931,7.5977,7.638,7.6679,7.7233,7.7361,7.8031,7.8651,7.958,8.0305,8.0753,8.1489,8.2322,7.4086,7.4153,7.4525,7.4897,7.5202,7.5202,7.5168,7.51,7.4762,7.4593,7.4559,7.4187,7.3578,7.2902,7.2563,7.2563,7.2935,7.3375,7.3781,7.4119,7.4458,7.483,7.5168,7.5134,7.5337,7.5676,7.5676,7.5676,7.5676,7.5676,7.5676,7.5676,7.5676,7.5676,7.5676,7.5676,7.5676,7.5676,7.5371,7.5202,7.5202,7.4864,7.4695,7.4695,7.4695,7.4695,7.4695,7.4695,7.4695,7.4695,7.51,7.5134,7.4762,7.5811,7.6082,7.5303,7.5912,7.6149,7.5709,7.5676,7.5879,7.6318,7.6284,7.598,7.527,7.5912,7.6183,7.5743,7.5676,7.5676,7.5676,7.5676,7.5676,7.5676,7.5676,7.5676,7.5676,7.5676,7.5676,7.5676,7.5676,7.5879,7.6318,7.6352,7.6555,7.686,7.7299,7.7671,7.7976,7.8077,7.7807,7.713,7.6961,7.6758,7.6386,7.5946,7.5743,7.5676,7.5676,7.5676,7.5743,7.6014,7.6318,7.6386,7.6623,7.7086,7.7528,7.7995,7.8463,7.8821,7.971,8.0453,8.1116,8.176,8.2287,7.4864,7.4931,7.5473,7.5676,7.5676,7.5506,7.5134,7.4627,7.4593,7.4525,7.4289,7.3713,7.3071,7.2462,7.2563,7.2732,7.3037,7.4086,7.4695,7.483,7.4864,7.5168,7.5608,7.51,7.5168,7.5642,7.5676,7.5676,7.5676,7.5676,7.5676,7.5676,7.5676,7.5676,7.5676,7.5676,7.5676,7.5676,7.5676,7.5676,7.5676,7.5676,7.5676,7.5676,7.5676,7.5676,7.5676,7.5676,7.5676,7.5709,7.6284,7.6352,7.5811,7.6826,7.6927,7.5912,7.6284,7.6352,7.5777,7.5676,7.598,7.6555,7.6048,7.5676,7.5743,7.6251,7.6386,7.5811,7.5676,7.5676,7.5709,7.5912,7.5912,7.5743,7.5879,7.6014,7.598,7.598,7.6048,7.6149,7.6217,7.6487,7.6961,7.713,7.7401,7.8044,7.8247,7.828,7.8517,7.9025,7.9058,7.8551,7.7874,7.7401,7.7164,7.669,7.6352,7.6217,7.6251,7.6352,7.642,7.6826,7.7096,7.7198,7.7536,7.7856,7.8006,7.8252,7.8554,7.8556,7.9072,8.0106,8.1137,8.1858,8.2456,7.5574,7.5608,7.5676,7.5676,7.5642,7.5033,7.4728,7.4627,7.4593,7.4221,7.3646,7.351,7.3105,7.2529,7.3105,7.3747,7.4322,7.4559,7.4965,7.5506,7.5608,7.5642,7.5676,7.5608,7.5642,7.5676,7.5676,7.5676,7.5676,7.5676,7.5676,7.5676,7.5676,7.5676,7.5676,7.5676,7.5676,7.5676,7.5676,7.5676,7.5676,7.5676,7.5676,7.5676,7.5676,7.5676,7.5676,7.5676,7.5676,7.5709,7.5777,7.5777,7.5743,7.5845,7.5845,7.5709,7.5777,7.5777,7.5709,7.5676,7.5777,7.5777,7.5777,7.5676,7.5676,7.5777,7.5811,7.5743,7.5709,7.5676,7.5743,7.6318,7.642,7.5912,7.6386,7.6792,7.6792,7.6792,7.7029,7.7705,7.7604,7.7807,7.7841,7.7942,7.8213,7.8889,7.9025,7.9194,7.9667,7.987,7.9972,7.9803,7.9329,7.8653,7.8111,7.7874,7.7773,7.7773,7.7773,7.7773,7.7807,7.7841,7.7908,7.8145,7.8044,7.8213,7.801,7.7648,7.7392,7.7958,7.8129,7.8126,7.9484,8.0751,8.1894,7.5676,7.5676,7.5676,7.598,7.6284,7.5574,7.527,7.5236,7.4796,7.4187,7.3612,7.395,7.3747,7.3105,7.3815,7.4322,7.4627,7.5067,7.5405,7.5642,7.527,7.527,7.5642,7.5236,7.527,7.5676,7.5676,7.5676,7.5676,7.5676,7.5676,7.5676,7.5676,7.5676,7.5676,7.5676,7.5676,7.5676,7.5676,7.5676,7.5676,7.5676,7.5676,7.5676,7.5676,7.5676,7.5676,7.5676,7.5676,7.5676,7.5676,7.5676,7.5676,7.5676,7.5676,7.5709,7.6149,7.642,7.642,7.642,7.6183,7.5743,7.5676,7.5676,7.5709,7.6115,7.642,7.6352,7.598,7.5676,7.5777,7.642,7.6758,7.6555,7.7063,7.7536,7.7536,7.7536,7.7671,7.7976,7.801,7.8179,7.8585,7.9025,7.9397,7.9701,7.9769,7.9972,8.0175,8.0209,8.0209,8.0175,7.9904,7.9667,7.9329,7.9295,7.9295,7.9295,7.9295,7.9295,7.9295,7.9295,7.9295,7.9295,7.9194,7.9194,7.9363,7.9126,7.8855,7.8736,7.9357,7.9973,8.0684,8.0799,8.1504,7.5845,7.6048,7.6251,7.6657,7.7096,7.6115,7.5676,7.5608,7.4931,7.4289,7.3916,7.4593,7.4593,7.4221,7.4661,7.4897,7.4965,7.5473,7.5676,7.5642,7.5134,7.5202,7.5608,7.5202,7.5168,7.5642,7.5676,7.5676,7.5676,7.5676,7.5676,7.5676,7.5676,7.5676,7.5676,7.5676,7.5811,7.6014,7.6048,7.6115,7.6318,7.6318,7.6217,7.6082,7.6217,7.6318,7.6318,7.6318,7.6318,7.6318,7.6318,7.6318,7.6318,7.6318,7.6318,7.6386,7.686,7.7096,7.6927,7.6893,7.6555,7.5811,7.5879,7.6014,7.6149,7.6758,7.7164,7.7164,7.6657,7.6386,7.642,7.7029,7.7401,7.7299,7.7841,7.828,7.828,7.828,7.8382,7.8551,7.872,7.8788,7.9363,8.0006,8.0479,8.0479,8.0682,8.0818,8.0818,8.0851,8.0851,8.0818,8.0818,8.0716,8.0547,8.0445,8.0547,8.0818,8.0818,8.0818,8.075,8.0682,8.0479,8.0276,8.031,8.0107,7.9837,7.9972,7.9803,7.9851,8.0297,8.0954,8.0871,8.0844,8.1493,7.6149,7.6893,7.757,7.7841,7.7841,7.6386,7.5743,7.5879,7.5033,7.4627,7.4728,7.5303,7.5608,7.5506,7.554,7.5608,7.5642,7.5676,7.5676,7.5676,7.5642,7.5642,7.5676,7.5642,7.5642,7.5676,7.5676,7.5676,7.5676,7.5676,7.5676,7.5676,7.5743,7.5743,7.5777,7.5811,7.6115,7.6758,7.6826,7.713,7.7739,7.7841,7.7502,7.7029,7.7502,7.7773,7.7807,7.7841,7.7841,7.7841,7.7773,7.7807,7.7841,7.7841,7.7807,7.7874,7.7908,7.7638,7.7096,7.7029,7.6657,7.6014,7.6487,7.6826,7.6893,7.7502,7.7908,7.7942,7.7908,7.7874,7.7942,7.8382,7.8551,7.8077,7.8619,7.8991,7.9058,7.9058,7.9397,7.987,8.0073,8.0141,8.0209,8.0784,8.119,8.1359,8.1832,8.2171,8.2069,8.2171,8.2137,8.2137,8.2103,8.2035,8.1426,8.1224,8.1562,8.1765,8.1832,8.2137,8.2035,8.1832,8.146,8.1156,8.0851,8.0513,8.0175,7.9803,7.9397,7.9413,7.9718,8.0137,8.1068,8.1324,8.1836,7.6927,7.7604,7.7874,7.8247,7.8585,7.7604,7.7435,7.7773,7.6589,7.6082,7.6014,7.5811,7.5676,7.5676,7.5676,7.5676,7.5676,7.5676,7.5676,7.5676,7.5676,7.5676,7.5676,7.5676,7.5676,7.5676,7.5676,7.5676,7.5676,7.5676,7.5676,7.5811,7.6217,7.6454,7.6555,7.6927,7.7333,7.757,7.7604,7.7739,7.8044,7.845,7.8551,7.8314,7.8077,7.801,7.801,7.801,7.801,7.801,7.801,7.801,7.801,7.801,7.8213,7.8653,7.872,7.8585,7.8348,7.8314,7.7976,7.7299,7.7401,7.7604,7.7705,7.8247,7.872,7.8788,7.916,7.9363,7.9329,7.9261,7.9025,7.8855,7.9363,7.9803,7.9803,7.9837,8.0073,8.0784,8.1257,8.1629,8.1562,8.1832,8.2002,8.2035,8.2272,8.2441,8.2441,8.2441,8.2509,8.2441,8.2408,8.2509,8.2813,8.2238,8.2103,8.2238,8.2374,8.2374,8.2306,8.2306,8.2035,8.1968,8.1596,8.1393,8.1224,8.119,8.0547,8.0648,8.0851,8.0784,8.1562,8.1851,8.2004,7.7874,7.8348,7.8585,7.8991,7.9329,7.8653,7.8653,7.8957,7.7807,7.713,7.6826,7.6318,7.5946,7.5709,7.5676,7.5676,7.5676,7.5676,7.5676,7.5676,7.5676,7.5676,7.5676,7.5676,7.5676,7.5676,7.5676,7.5676,7.5676,7.5676,7.5845,7.6115,7.6657,7.7029,7.7299,7.7739,7.8077,7.828,7.8348,7.845,7.872,7.9194,7.9464,7.9397,7.8957,7.8686,7.872,7.8686,7.8686,7.8686,7.8686,7.8686,7.8686,7.872,7.8923,7.9397,7.9464,7.9363,7.916,7.9126,7.8788,7.8111,7.8213,7.8348,7.8416,7.9025,7.9397,7.9566,7.9837,8.0209,8.0175,7.9938,7.9735,7.9634,8.0107,8.0547,8.0581,8.0784,8.1122,8.1596,8.2002,8.234,8.2441,8.2611,8.2712,8.278,8.2949,8.3118,8.3118,8.3118,8.3118,8.3152,8.3219,8.3422,8.3625,8.3422,8.3219,8.3287,8.3219,8.305,8.2881,8.2847,8.2746,8.2712,8.2611,8.2475,8.2441,8.2441,8.2441,8.2475,8.2171,8.1866,8.2238,8.234,8.27,7.9092,7.9194,7.9904,8.0073,8.0006,7.9329,7.9092,7.8857,7.808,7.7254,7.6665,7.6695,7.6154,7.5811,7.5676,7.5676,7.5676,7.5676,7.5676,7.5676,7.5676,7.5676,7.5676,7.5676,7.5676,7.5676,7.5676,7.5676,7.5676,7.5811,7.6149,7.6724,7.6995,7.7468,7.7976,7.8145,7.8483,7.8957,7.9126,7.9431,8.0073,8.0107,8.0107,8.0141,8.004,8.0006,8.0073,8.0073,8.0006,8.004,8.0073,8.0175,8.0006,8.0006,8.0141,8.0073,8.0141,7.9837,7.9261,7.9194,7.8923,7.845,7.8754,7.9126,7.9228,7.9701,8.0107,8.0073,8.0209,8.0276,8.0412,8.0818,8.0919,8.0412,8.0851,8.1291,8.1426,8.1968,8.2408,8.2441,8.2577,8.2475,8.2611,8.3118,8.349,8.3625,8.3964,8.4302,8.4268,8.4234,8.4505,8.4471,8.4234,8.4167,8.4403,8.4573,8.4539,8.4505,8.4336,8.4167,8.393,8.3828,8.3558,8.3456,8.3253,8.3118,8.3118,8.3118,8.3016,8.2983,8.2813,8.2949,8.3118,8.3355,8.3764,7.9397,7.987,8.0107,8.0209,8.0107,7.9431,7.8657,7.7844,7.6591,7.5873,7.5573,7.5139,7.5167,7.5648,7.5676,7.5676,7.5676,7.5676,7.5676,7.5628,7.5676,7.5676,7.5676,7.5676,7.5676,7.5676,7.5676,7.5709,7.5811,7.6251,7.669,7.7029,7.7942,7.8483,7.8788,7.9228,7.9667,7.9803,7.987,8.0006,8.0175,8.0209,8.0209,8.0209,8.0209,8.0209,8.0209,8.0209,8.0209,8.0209,8.0209,8.0209,8.0209,8.0209,8.0209,8.0209,8.0209,8.0141,7.9904,7.9837,7.9735,7.9566,7.9735,7.9837,7.987,8.004,8.0209,8.0276,8.0615,8.0953,8.1054,8.1629,8.1731,8.1021,8.1596,8.2069,8.2205,8.2746,8.3084,8.3219,8.3592,8.3896,8.393,8.42,8.42,8.42,8.4471,8.4606,8.4606,8.4606,8.4606,8.4606,8.4606,8.4606,8.4606,8.4606,8.4606,8.4606,8.4606,8.4606,8.4505,8.4437,8.4234,8.4268,8.4031,8.3964,8.3964,8.393,8.3964,8.393,8.4099,8.4167,8.4234,8.4524,8.4882,7.9769,8.0175,8.0209,7.9921,7.9546,7.9025,7.8003,7.6795,7.6168,7.5389,7.4653,7.4972,7.5037,7.5082,7.5064,7.5064,7.5064,7.5097,7.5064,7.5161,7.558,7.5676,7.5676,7.5676,7.5676,7.5676,7.5676,7.5845,7.6183,7.6657,7.7164,7.7841,7.8686,7.9261,7.9498,7.9938,8.0209,8.0209,8.0175,8.0209,8.0209,8.0209,8.0209,8.0209,8.0209,8.0209,8.0209,8.0209,8.0209,8.0209,8.0209,8.0209,8.0209,8.0209,8.0209,8.0209,8.0209,8.0209,8.0209,8.0141,8.0209,8.0209,8.0209,8.0175,8.0209,8.0209,8.0276,8.0648,8.0987,8.1393,8.1731,8.2374,8.2543,8.2171,8.2543,8.2915,8.3186,8.3625,8.3896,8.3998,8.4302,8.4573,8.4606,8.4606,8.4606,8.4606,8.4606,8.4606,8.4606,8.4606,8.4674,8.4674,8.4606,8.4606,8.4606,8.4606,8.4606,8.4606,8.4606,8.4606,8.4573,8.4573,8.4471,8.508,8.5148,8.5452,8.5486,8.5486,8.5486,8.5452,8.5317,8.552,8.5621,8.5587,8.5844,8.0107,8.0141,8.0124,7.9425,7.8485,7.8225,7.7063,7.5806,7.6288,7.5328,7.4028,7.5065,7.5289,7.4138,7.3904,7.3904,7.3937,7.3937,7.3904,7.424,7.4917,7.5484,7.5676,7.5676,7.5676,7.5676,7.5676,7.6115,7.6724,7.6995,7.7671,7.8855,7.9126,7.9498,8.0006,8.0209,8.0209,8.0209,8.0209,8.0209,8.0209,8.0209,8.0209,8.0209,8.0209,8.0209,8.0209,8.0209,8.0209,8.0209,8.0209,8.0209,8.0209,8.0209,8.0209,8.0209,8.0209,8.0209,8.0209,8.0209,8.0209,8.0209,8.0209,8.0209,8.0209,8.0344,8.0615,8.1088,8.1426,8.1799,8.2441,8.3118,8.3456,8.3524,8.3524,8.3828,8.4437,8.4539,8.4539,8.464,8.4708,8.4742,8.4911,8.4945,8.4945,8.4945,8.4979,8.5046,8.5046,8.5148,8.4877,8.4945,8.5182,8.5249,8.5452,8.5452,8.5486,8.5486,8.5351,8.5182,8.508,8.508,8.5215,8.579,8.6264,8.6636,8.6738,8.6501,8.6467,8.6366,8.6467,8.6839,8.6771,8.6535,8.6467,7.9397,7.9364,7.9035,7.8677,7.8205,7.69,7.5491,7.4301,7.3962,7.3404,7.2413,7.2673,7.3166,7.2749,7.2769,7.2737,7.2769,7.2737,7.2737,7.2894,7.3904,7.4917,7.5532,7.5676,7.5628,7.5662,7.5648,7.6115,7.6893,7.7468,7.8213,7.9092,7.9634,7.9972,8.0175,8.0209,8.0209,8.0209,8.0209,8.0209,8.0209,8.0209,8.0209,8.0209,8.0209,8.0209,8.0209,8.0209,8.0209,8.0209,8.0209,8.0209,8.0209,8.0209,8.0209,8.0209,8.0209,8.0209,8.0209,8.0209,8.0209,8.0209,8.0242,8.0209,8.0209,8.0716,8.1054,8.146,8.2171,8.2949,8.3287,8.3862,8.4234,8.4336,8.4302,8.4403,8.4606,8.464,8.4809,8.5317,8.5452,8.5689,8.6027,8.6163,8.6163,8.6163,8.6163,8.6163,8.5993,8.6027,8.5926,8.6196,8.6399,8.6366,8.6399,8.6399,8.6399,8.6467,8.6332,8.6129,8.6061,8.6027,8.6264,8.667,8.6907,8.7279,8.7076,8.6839,8.6907,8.7211,8.7144,8.7245,8.7042,8.6805,8.6907,7.8858,7.768,7.8166,7.7785,7.6837,7.566,7.4421,7.3258,7.3115,7.2342,7.1692,7.2426,7.262,7.2458,7.217,7.2009,7.1977,7.1689,7.1561,7.1778,7.2737,7.3854,7.4687,7.4966,7.4966,7.5033,7.5317,7.62,7.7318,7.8077,7.8822,7.9532,7.9972,8.0175,8.0209,8.0209,8.0209,8.0209,8.0209,8.0209,8.0209,8.0209,8.0209,8.0209,8.0209,8.0209,8.0209,8.0479,8.0547,8.0276,8.0209,8.0209,8.0209,8.0209,8.0209,8.0209,8.0209,8.0209,8.0209,8.0209,8.0209,8.0276,8.0412,8.0615,8.0784,8.1325,8.1799,8.234,8.3084,8.3558,8.3998,8.4403,8.4573,8.464,8.4911,8.508,8.5114,8.5148,8.5486,8.5993,8.6298,8.6366,8.6873,8.6907,8.6907,8.6873,8.6738,8.6771,8.6771,8.6907,8.7008,8.711,8.7076,8.6941,8.6873,8.6873,8.6941,8.7008,8.7279,8.7076,8.6941,8.6907,8.7144,8.7414,8.7617,8.7753,8.7651,8.7651,8.7955,8.8091,8.7854,8.7753,8.7719,8.7516,8.755,7.8093,7.5728,7.738,7.6757,7.5007,7.4652,7.368,7.258,7.312,7.2623,7.1736,7.3213,7.3054,7.2391,7.1572,7.1383,7.132,7.0715,7.0662,7.0989,7.1723,7.2632,7.3394,7.3752,7.3803,7.3902,7.4581,7.5737,7.6977,7.8169,7.9196,7.9651,7.9989,8.0209,8.0209,8.0209,8.0209,8.0209,8.0209,8.0209,8.0209,8.0209,8.0209,8.0209,8.0209,8.0209,8.0378,8.075,8.0919,8.0209,8.0242,8.031,8.0276,8.0209,8.0209,8.0209,8.0209,8.0209,8.0209,8.0209,8.0276,8.0445,8.0953,8.1325,8.1494,8.2069,8.2712,8.3152,8.3524,8.3964,8.437,8.4606,8.4742,8.4877,8.5418,8.5723,8.596,8.596,8.6196,8.6873,8.7008,8.7042,8.711,8.7144,8.7211,8.7719,8.7617,8.7651,8.7651,8.7685,8.7651,8.755,8.7482,8.7313,8.7279,8.7279,8.738,8.7482,8.7922,8.7955,8.7719,8.7753,8.7955,8.8192,8.8294,8.8497,8.8666,8.8801,8.8869,8.8835,8.8497,8.8734,8.8937,8.8564,8.8463,7.5658,7.5529,7.556,7.53,7.4652,7.3813,7.3169,7.2768,7.3015,7.2489,7.1997,7.2326,7.2044,7.1249,7.0717,7.0289,7.0314,6.9783,6.9698,7.0599,7.0767,7.1012,7.1561,7.2186,7.2664,7.2859,7.338,7.431,7.5489,7.7053,7.8084,7.8769,7.9632,8.0209,8.0158,8.0124,8.0209,8.0209,8.0209,8.0158,8.0074,8.0074,8.0074,8.0074,8.0158,8.0209,8.0344,8.0885,8.0919,8.0547,8.0716,8.0818,8.0344,8.0209,8.0209,8.0209,8.0209,8.0209,8.0209,8.0242,8.0445,8.0953,8.1291,8.1528,8.2171,8.2847,8.3287,8.3625,8.4031,8.437,8.4573,8.4606,8.4911,8.5351,8.5757,8.6332,8.711,8.6974,8.7042,8.755,8.7786,8.7955,8.8463,8.8429,8.8497,8.8564,8.8531,8.8564,8.8497,8.8395,8.8294,8.8158,8.8158,8.8091,8.8091,8.8057,8.8057,8.8057,8.8395,8.8632,8.8395,8.8395,8.8531,8.8734,8.8903,8.9072,8.9072,8.9072,8.9004,8.9038,8.9106,8.9106,8.9106,8.9106,8.9072,7.4847,7.3939,7.4545,7.4505,7.3842,7.2922,7.2521,7.2429,7.2152,7.1813,7.1536,7.1475,7.1259,7.0859,7.0244,6.9874,6.9813,6.9536,6.9488,6.9854,7.0063,7.0094,6.9964,7.0721,7.1354,7.1949,7.2723,7.3651,7.5025,7.6202,7.7206,7.7643,7.873,7.9236,7.9528,7.987,8.0209,8.0209,8.0209,7.9972,7.9477,7.934,7.934,7.9528,7.987,8.0209,8.0242,8.1291,8.1122,8.075,8.119,8.1291,8.0412,8.0209,8.0209,8.0209,8.0209,8.0209,8.0209,8.0547,8.0885,8.1291,8.1866,8.2441,8.2983,8.3592,8.3964,8.4099,8.437,8.4606,8.464,8.5046,8.5418,8.579,8.6433,8.7144,8.7719,8.7651,8.7719,8.8294,8.8497,8.8666,8.8937,8.9072,8.9072,8.8835,8.8835,8.8869,8.8869,8.8801,8.8869,8.8835,8.8903,8.8937,8.8937,8.8903,8.8801,8.8767,8.8801,8.8937,8.8835,8.8903,8.9004,8.9072,8.9072,8.9072,8.9106,8.9106,8.9106,8.9106,8.9106,8.9106,8.9106,8.9106,8.9106,7.4419,7.2306,7.3865,7.3934,7.2984,7.2275,7.2029,7.1967,7.1198,7.1044,7.0921,7.089,7.0952,7.0767,7.0367,7.0028,6.9936,7.0028,6.9898,6.9158,6.9741,6.9587,6.937,6.9825,7.0641,7.152,7.2238,7.3448,7.4562,7.5805,7.6209,7.6532,7.7511,7.8056,7.8411,7.9027,7.934,7.9236,7.9236,7.8974,7.8304,7.811,7.811,7.8304,7.9184,7.9817,8.0257,8.1254,8.1765,8.0581,8.1697,8.146,8.0615,8.0209,8.0209,8.0209,8.0209,8.031,8.0547,8.0919,8.1325,8.1562,8.2644,8.3456,8.3761,8.4133,8.4403,8.4539,8.464,8.4708,8.4809,8.5283,8.579,8.6332,8.7347,8.7922,8.8158,8.8158,8.8463,8.8835,8.8903,8.897,8.9004,8.9106,8.9106,8.9106,8.9106,8.9106,8.9106,8.9106,8.9106,8.9106,8.9106,8.9106,8.9106,8.9106,8.9106,8.9106,8.9106,8.9106,8.9106,8.9106,8.9106,8.9106,8.9072,8.9106,8.9106,8.9106,8.9106,8.9106,8.9106,8.9106,8.9106,8.9106,8.9106,7.2797,7.2891,7.317,7.3139,7.2953,7.2275,7.1967,7.1844,7.1136,7.089,7.0859,7.0859,7.0798,7.0767,7.0798,7.0428,7.0091,7.0398,7.009,6.9259,6.9628,6.9597,6.9259,6.972,7.0392,7.1038,7.1806,7.2573,7.3151,7.4127,7.5034,7.5359,7.6306,7.6869,7.6925,7.718,7.7566,7.7676,7.7621,7.7346,7.7013,7.6902,7.6902,7.7013,7.8122,7.9043,7.9928,8.1331,8.2002,8.1291,8.1968,8.1443,8.0326,7.9955,8.009,8.031,8.031,8.0547,8.1054,8.1291,8.2002,8.2813,8.3422,8.3828,8.4234,8.4505,8.4606,8.464,8.4708,8.4911,8.552,8.5858,8.6467,8.7245,8.782,8.826,8.87,8.8835,8.8835,8.9038,8.9106,8.9106,8.9106,8.9106,8.9106,8.9106,8.9106,8.9106,8.9106,8.9106,8.9106,8.9106,8.9106,8.9106,8.9106,8.9106,8.9106,8.9106,8.9106,8.9106,8.9106,8.9106,8.9106,8.9106,8.9106,8.9106,8.9106,8.9106,8.9106,8.9106,8.9106,8.9106,8.9106,8.9106,8.9106,7.1996,7.2734,7.2734,7.2734,7.2673,7.2214,7.1752,7.1321,7.0705,7.0182,6.9936,6.9843,6.9874,6.9876,7.0034,7.0096,7.0372,7.1076,7.0644,6.9813,7.0028,7.0059,6.9536,7.009,7.0798,7.1475,7.2152,7.246,7.2583,7.3352,7.3934,7.4176,7.5066,7.565,7.5848,7.6363,7.6451,7.6565,7.6508,7.6192,7.5765,7.5707,7.5707,7.606,7.7171,7.8453,7.9625,8.1013,8.1411,8.0708,8.1009,8.0188,7.9169,7.885,7.9455,8.0443,8.0733,8.1088,8.1799,8.2171,8.2813,8.3355,8.3795,8.42,8.4505,8.4606,8.464,8.4708,8.5114,8.5351,8.5723,8.6433,8.7245,8.782,8.8294,8.8666,8.8937,8.9072,8.9106,8.9106,8.9106,8.9106,8.9106,8.9106,8.9106,8.9106,8.9106,8.9106,8.9106,8.9106,8.9106,8.9106,8.9106,8.9106,8.9106,8.9106,8.9106,8.9106,8.9106,8.9106,8.9106,8.9106,8.9106,8.9106,8.9106,8.9106,8.9106,8.9106,8.9106,8.9106,8.9106,8.9106,8.9106,8.9106,8.9106,7.1528,7.242,7.242,7.242,7.2361,7.1935,7.1415,7.0831,7.0034,6.948,6.9017,6.8805,6.8774,6.8958,6.9454,7.0007,7.0649,7.1722,7.1259,7.0213,7.049,7.0521,7.0244,7.0613,7.1229,7.1844,7.2552,7.2983,7.2891,7.3077,7.3045,7.3324,7.4116,7.4445,7.4593,7.5125,7.5823,7.588,7.588,7.53,7.4684,7.4445,7.4539,7.4753,7.6326,7.7779,7.9046,8.0405,8.0474,7.9903,7.9716,7.9251,7.7398,7.7333,7.8658,8.0515,8.1043,8.1537,8.2195,8.3016,8.3422,8.3828,8.4302,8.4539,8.4606,8.464,8.4708,8.4911,8.5317,8.5993,8.6467,8.7279,8.7922,8.8328,8.8734,8.9072,8.9072,8.9106,8.9106,8.9106,8.9106,8.9106,8.9106,8.9106,8.9106,8.9106,8.9106,8.9106,8.9106,8.9106,8.9106,8.9106,8.9106,8.9106,8.9106,8.9106,8.9106,8.9106,8.9106,8.9106,8.9106,8.9106,8.9106,8.9106,8.9106,8.9106,8.9106,8.9106,8.9106,8.9106,8.9106,8.9106,8.9106,8.9106,8.9106,7.1433,7.204,7.2071,7.204,7.1949,7.1404,7.104,7.0766,6.961,6.9184,6.9273,6.8574,6.833,6.8816,6.9854,7.0649,7.1383,7.2121,7.1691,7.0276,7.0675,7.0675,7.012,7.0582,7.1413,7.2091,7.2706,7.2952,7.2983,7.2983,7.2983,7.3107,7.3139,7.3262,7.3477,7.3844,7.3385,7.3508,7.3539,7.3508,7.3355,7.3355,7.3695,7.4315,7.5456,7.6836,7.8203,7.9371,7.9548,7.8924,7.886,7.8452,7.769,7.7503,7.837,7.9521,8.0339,8.0895,8.1702,8.2744,8.3583,8.3988,8.4432,8.4553,8.4533,8.4386,8.4568,8.5621,8.5716,8.6181,8.6935,8.7709,8.8272,8.8632,8.897,8.9106,8.9106,8.9106,8.9106,8.9106,8.9106,8.9106,8.9106,8.9106,8.9106,8.9106,8.9106,8.9106,8.9106,8.9106,8.9106,8.9106,8.9106,8.9106,8.9106,8.9106,8.9106,8.9106,8.9106,8.9106,8.9106,8.9106,8.9106,8.9106,8.9106,8.9106,8.9106,8.9106,8.9106,8.9106,8.9106,8.9106,8.9106,8.9106,8.9106,7.0564,7.1658,7.1658,7.1658,7.1661,7.1516,7.1309,7.0793,6.9943,6.9579,6.9519,6.8881,6.882,6.9579,7.0462,7.0916,7.1524,7.233,7.1782,7.0739,7.0953,7.1105,7.0798,7.1198,7.1875,7.2429,7.2798,7.2952,7.2983,7.2983,7.2983,7.2983,7.2983,7.3045,7.2983,7.2983,7.3045,7.3045,7.3045,7.3045,7.3076,7.3353,7.3691,7.403,7.5308,7.6526,7.7743,7.8649,7.863,7.8052,7.7988,7.7312,7.629,7.6204,7.7054,7.7525,7.8911,7.9995,8.1073,8.2333,8.3065,8.3616,8.4089,8.4606,8.4406,8.371,8.3583,8.4523,8.473,8.5517,8.6727,8.7242,8.8069,8.8689,8.9072,8.9106,8.9106,8.9106,8.9106,8.9106,8.9106,8.9106,8.9106,8.9106,8.9106,8.9106,8.9106,8.9106,8.9106,8.9106,8.9106,8.9106,8.9106,8.9106,8.9106,8.9106,8.9106,8.9106,8.9106,8.9106,8.9106,8.9106,8.9106,8.9106,8.9106,8.9106,8.9106,8.9106,8.9106,8.9106,8.9106,8.9106,8.9106,8.9106,8.9106,6.9879,7.1277,7.1307,7.1277,7.1307,7.1594,7.1419,7.0842,7.027,7.003,6.9818,6.9364,6.948,7.02,7.06,7.0996,7.1439,7.2137,7.1687,7.1291,7.1323,7.1506,7.1352,7.1721,7.2214,7.2983,7.2952,7.2983,7.2983,7.2983,7.2983,7.2983,7.2983,7.2983,7.2983,7.2983,7.2983,7.2983,7.2983,7.3106,7.3322,7.3722,7.4153,7.4707,7.5543,7.6513,7.7559,7.8093,7.7748,7.7088,7.7088,7.6526,7.5336,7.5706,7.6325,7.6794,7.7904,7.8659,7.98,8.0938,8.2001,8.2548,8.2886,8.3254,8.3321,8.2334,8.221,8.3655,8.4015,8.4822,8.5974,8.6884,8.7753,8.8609,8.9106,8.9106,8.9072,8.8959,8.9016,8.9106,8.9106,8.9106,8.9106,8.9106,8.9106,8.9106,8.9106,8.9106,8.9106,8.9106,8.9106,8.9106,8.9106,8.9106,8.9106,8.9106,8.9106,8.9106,8.9106,8.9106,8.9106,8.9106,8.9106,8.9106,8.9106,8.9106,8.9106,8.9106,8.9106,8.9106,8.9106,8.9106,8.9106,8.9106,8.9106,6.9752,7.0919,7.0984,7.0954,7.0954,7.0984,7.0924,7.0809,7.0269,7.016,7.0169,6.9778,6.9709,7.0063,7.0494,7.0893,7.1435,7.2167,7.1808,7.1442,7.1444,7.1598,7.1629,7.1752,7.2089,7.2891,7.2983,7.2983,7.2983,7.2983,7.2983,7.2983,7.2983,7.2983,7.2983,7.2983,7.3076,7.3106,7.3137,7.3445,7.3783,7.4214,7.4645,7.5569,7.5969,7.6342,7.6992,7.7281,7.7036,7.6201,7.6451,7.6356,7.5756,7.5938,7.6369,7.6869,7.7058,7.767,7.828,7.9684,8.0739,8.0977,8.1127,8.1512,8.1883,8.1902,8.2126,8.281,8.3282,8.4485,8.5888,8.7117,8.709,8.777,8.8094,8.8094,8.8209,8.87,8.8756,8.9016,8.9106,8.9106,8.9106,8.9106,8.9106,8.9106,8.9106,8.9106,8.9106,8.9106,8.9106,8.9106,8.9106,8.9106,8.9106,8.9106,8.9106,8.9106,8.9106,8.9106,8.9106,8.9106,8.9106,8.9106,8.9106,8.9106,8.9106,8.9106,8.9106,8.9106,8.9106,8.9106,8.9106,8.9106,8.9106,6.9752,7.0889,7.0919,7.0919,7.0919,7.0919,7.0919,7.0799,7.026,7.0025,7.0153,7.0273,7.0419,7.0534,7.0594,7.0843,7.1148,7.1533,7.1365,7.1246,7.1342,7.1655,7.1749,7.1996,7.2426,7.289,7.2983,7.2983,7.2983,7.2983,7.2983,7.2983,7.3014,7.2983,7.2983,7.3076,7.326,7.3537,7.366,7.3937,7.4553,7.5076,7.5476,7.5907,7.6523,7.6708,7.6985,7.7016,7.6615,7.6308,7.6431,7.6338,7.6184,7.64,7.6708,7.6985,7.7016,7.7016,7.7212,7.8628,7.9867,8.05,8.0231,8.0027,8.0839,8.0743,8.1157,8.1726,8.2294,8.3288,8.4219,8.4665,8.4917,8.6095,8.6792,8.6912,8.715,8.7595,8.7829,8.7829,8.8586,8.9106,8.9106,8.9106,8.9106,8.9106,8.9106,8.9106,8.9106,8.9106,8.9106,8.9106,8.9106,8.9106,8.9106,8.9106,8.9106,8.9106,8.9106,8.9106,8.9106,8.9106,8.9106,8.9106,8.9106,8.9106,8.9106,8.9106,8.9106,8.9106,8.9106,8.9106,8.9106,8.9106,8.9106,6.9752,7.0859,7.0919,7.0919,7.0919,7.0919,7.0919,7.0829,7.047,7.026,7.029,7.0739,7.0919,7.0919,7.0889,7.0889,7.1018,7.1247,7.107,7.1201,7.1389,7.1706,7.1741,7.1928,7.2265,7.2734,7.2859,7.2859,7.2983,7.2983,7.2983,7.3045,7.3168,7.3229,7.3045,7.326,7.363,7.4122,7.4338,7.4615,7.5292,7.5692,7.6154,7.6308,7.6769,7.6923,7.7016,7.7016,7.6831,7.6646,7.6646,7.6708,7.6646,7.6708,7.6985,7.7016,7.7016,7.7016,7.7246,7.7799,7.8754,7.9098,7.9101,7.9448,7.9953,7.9867,8.0479,8.1088,8.1268,8.1635,8.2849,8.3475,8.4187,8.5418,8.5665,8.585,8.5911,8.6216,8.6398,8.6519,8.7268,8.777,8.8586,8.8586,8.9016,8.9016,8.9072,8.9072,8.9106,8.9106,8.9106,8.9106,8.9106,8.9106,8.9106,8.9106,8.9106,8.9106,8.9106,8.9106,8.9106,8.9106,8.9106,8.9106,8.9106,8.9106,8.9106,8.9106,8.9106,8.9106,8.9106,8.9106,8.9106,8.9106,8.9106,6.9752,7.0859,7.0919,7.0919,7.0919,7.0919,7.0919,7.0889,7.0829,7.0799,7.0769,7.0889,7.0919,7.0919,7.0919,7.0919,7.0954,7.1212,7.1281,7.1281,7.1281,7.1567,7.1725,7.1819,7.2073,7.2389,7.2671,7.2796,7.2921,7.2983,7.2983,7.3291,7.363,7.3753,7.3168,7.366,7.4307,7.4861,7.4953,7.5384,7.5846,7.6123,7.6431,7.6739,7.6923,7.7016,7.7016,7.7016,7.6923,7.6892,7.6892,7.6923,7.6923,7.6923,7.7016,7.7016,7.7016,7.7016,7.7016,7.7081,7.7408,7.7792,7.813,7.863,7.8641,7.917,8.0131,8.0823,8.0878,8.1672,8.2481,8.3048,8.3671,8.4059,8.4219,8.4347,8.4347,8.4854,8.5043,8.5293,8.5418,8.5727,8.709,8.8036,8.8643,8.8959,8.9072,8.9072,8.9072,8.9106,8.9106,8.9106,8.9106,8.9106,8.9106,8.9106,8.9106,8.9106,8.9106,8.9106,8.9106,8.9106,8.9106,8.9106,8.9106,8.9106,8.9106,8.9106,8.9106,8.9106,8.9106,8.9106,8.9106,8.9106,8.9106,6.9752,7.0889,7.0919,7.0919,7.0919,7.0919,7.0919,7.0919,7.0919,7.0919,7.0919,7.0919,7.0919,7.0919,7.0919,7.0919,7.0889,7.0954,7.1083,7.1083,7.1083,7.1307,7.15,7.1786,7.204,7.2452,7.2671,7.2671,7.2671,7.292,7.3197,7.3439,7.4243,7.4522,7.443,7.4645,7.4984,7.5538,7.5723,7.6,7.6585,7.6677,7.6769,7.7016,7.7016,7.7016,7.7016,7.7016,7.7016,7.7016,7.7016,7.7016,7.7016,7.7016,7.7016,7.7016,7.7016,7.7016,7.7016,7.7046,7.7262,7.76,7.7939,7.8493,7.9293,7.9724,8.0278,8.0617,8.0863,8.1461,8.1635,8.1771,8.2078,8.2078,8.2213,8.2213,8.2414,8.3279,8.38,8.4155,8.4283,8.4791,8.5788,8.6852,8.7595,8.8152,8.8267,8.8903,8.9072,8.9072,8.9106,8.9106,8.9106,8.9106,8.9106,8.9106,8.9106,8.9106,8.9106,8.9106,8.9106,8.9106,8.9106,8.9106,8.9106,8.9106,8.9106,8.9106,8.9106,8.9106,8.9106,8.9106,8.9106,8.9106,8.9106,6.9961,7.0889,7.0919,7.0919,7.0919,7.0919,7.0919,7.0919,7.0919,7.0919,7.0919,7.0919,7.0919,7.0919,7.0919,7.0919,7.0919,7.0889,7.0889,7.0919,7.0919,7.1048,7.1307,7.1658,7.1913,7.2357,7.2608,7.2734,7.2576,7.3104,7.375,7.4454,7.4979,7.5476,7.5538,7.563,7.5661,7.6154,7.64,7.6523,7.6862,7.6985,7.6985,7.7016,7.7016,7.7016,7.7016,7.7016,7.7016,7.7016,7.7016,7.7016,7.7016,7.7016,7.7016,7.7016,7.7016,7.7016,7.7016,7.7385,7.7754,7.8339,7.8401,7.8955,7.9909,8.0309,8.0617,8.0925,8.1048,8.1117,8.1117,8.1048,8.1117,8.1117,8.1186,8.1255,8.1461,8.2347,8.2517,8.2916,8.3082,8.3736,8.4474,8.548,8.6398,8.6971,8.7537,8.8209,8.8959,8.9072,8.9072,8.9106,8.9106,8.9106,8.9106,8.9106,8.9106,8.9106,8.9106,8.9106,8.9106,8.9106,8.9106,8.9106,8.9106,8.9106,8.9106,8.9106,8.9106,8.9106,8.9106,8.9106,8.9106,8.9106,8.9106,7.035,7.0859,7.0919,7.0919,7.0919,7.0919,7.0919,7.0919,7.0919,7.0919,7.0919,7.0919,7.0919,7.0919,7.0919,7.0919,7.0919,7.0919,7.0919,7.0919,7.0919,7.0984,7.1048,7.1307,7.1628,7.1977,7.2231,7.242,7.2544,7.3376,7.4485,7.5535,7.5843,7.6246,7.64,7.6369,7.6369,7.6677,7.6831,7.6892,7.7016,7.7016,7.7016,7.7016,7.7016,7.7016,7.7016,7.7016,7.7016,7.7016,7.7016,7.7016,7.7016,7.7016,7.7016,7.7016,7.7016,7.7046,7.7262,7.7693,7.837,7.8955,7.9109,7.954,8.0094,8.0648,8.0894,8.0986,8.1048,8.1048,8.1048,8.1048,8.1048,8.1117,8.1117,8.1117,8.1117,8.1392,8.1392,8.1498,8.1498,8.2078,8.3048,8.4027,8.5106,8.5665,8.6398,8.7654,8.8381,8.9016,8.9072,8.9106,8.9106,8.9106,8.9106,8.9106,8.9106,8.9106,8.9106,8.9106,8.9106,8.9106,8.9106,8.9106,8.9106,8.9106,8.9106,8.9106,8.9106,8.9106,8.9106,8.9106,8.9106,8.9106,8.9106,7.035,7.0889,7.0919,7.0919,7.0919,7.0919,7.0919,7.0919,7.0919,7.0919,7.0919,7.0919,7.0919,7.0919,7.0919,7.0919,7.0919,7.0919,7.0919,7.0919,7.0919,7.0919,7.1048,7.1242,7.1435,7.1692,7.1913,7.2134,7.2156,7.3172,7.4694,7.5812,7.6431,7.68,7.6862,7.68,7.6892,7.6954,7.7016,7.7016,7.7016,7.7016,7.7016,7.7016,7.7016,7.7016,7.7016,7.7016,7.7016,7.7016,7.7046,7.7046,7.7016,7.7016,7.7016,7.7016,7.7077,7.72,7.7662,7.7908,7.8524,7.9478,7.9786,8.0186,8.0648,8.0925,8.1048,8.1048,8.1048,8.1048,8.1048,8.1048,8.1048,8.1048,8.1048,8.1048,8.1048,8.1048,8.1048,8.1048,8.1048,8.1255,8.2146,8.2849,8.38,8.4347,8.5231,8.6639,8.7829,8.8529,8.9072,8.9072,8.9106,8.9106,8.9106,8.9106,8.9106,8.9106,8.9106,8.9106,8.9106,8.9106,8.9106,8.9106,8.9106,8.9106,8.9106,8.9106,8.9106,8.9106,8.9106,8.9106,8.9106,8.9106,8.9106,7.056,7.0889,7.0919,7.0919,7.0919,7.0919,7.0919,7.0919,7.0919,7.0919,7.0919,7.0919,7.0919,7.0919,7.0919,7.0919,7.0919,7.0919,7.0919,7.0919,7.0919,7.0919,7.1048,7.1242,7.1371,7.1564,7.1722,7.185,7.2021,7.3153,7.4737,7.6335,7.6892,7.6954,7.7016,7.6985,7.6985,7.7016,7.7016,7.7016,7.7016,7.7016,7.7016,7.7016,7.7016,7.7016,7.7016,7.7016,7.7016,7.7108,7.7169,7.7262,7.7139,7.7016,7.7016,7.7016,7.7046,7.7385,7.7877,7.8308,7.9078,7.9817,8.034,8.0679,8.0832,8.1048,8.1048,8.1048,8.1048,8.1048,8.1048,8.1048,8.1048,8.1048,8.1048,8.1048,8.1048,8.1048,8.1048,8.1048,8.1048,8.1048,8.1529,8.2042,8.2481,8.295,8.4027,8.5603,8.7031,8.8152,8.879,8.9072,8.9106,8.9106,8.9106,8.9106,8.9106,8.9106,8.9106,8.9106,8.9106,8.9106,8.9106,8.9106,8.9106,8.9106,8.9106,8.9106,8.9106,8.9106,8.9106,8.9106,8.9106,8.9106,8.9106,7.0889,7.0919,7.0919,7.0919,7.0919,7.0919,7.0919,7.0919,7.0919,7.0919,7.0919,7.0919,7.0919,7.0919,7.0919,7.0919,7.0919,7.0919,7.0919,7.0919,7.0919,7.0919,7.0984,7.1148,7.1212,7.1435,7.1654,7.1839,7.2232,7.346,7.5195,7.6888,7.7016,7.7016,7.7016,7.7016,7.7016,7.7016,7.7016,7.7016,7.7016,7.7016,7.7016,7.7016,7.7016,7.7016,7.7016,7.7046,7.7046,7.7293,7.7477,7.76,7.7385,7.72,7.72,7.7139,7.7169,7.7662,7.8278,7.8832,7.9478,8.0155,8.0709,8.0925,8.1017,8.1048,8.1048,8.1048,8.1048,8.1048,8.1048,8.1048,8.1048,8.1048,8.1048,8.1048,8.1048,8.1048,8.1048,8.1048,8.1048,8.1048,8.1117,8.1703,8.1771,8.1943,8.295,8.4602,8.585,8.7209,8.8358,8.8903,8.9072,8.9072,8.9106,8.9106,8.9106,8.9106,8.9106,8.9106,8.9106,8.9106,8.9106,8.9106,8.9106,8.9106,8.9106,8.9106,8.9106,8.9106,8.9106,8.9106,8.9106,8.9106,8.9106,7.0919,7.0919,7.0919,7.0919,7.0919,7.0919,7.0919,7.0919,7.0919,7.0919,7.0919,7.0919,7.0919,7.0919,7.0919,7.0919,7.0919,7.0919,7.0919,7.0919,7.0919,7.0919,7.0919,7.1048,7.1018,7.1018,7.1298,7.1978,7.3088,7.4289,7.5373,7.6858,7.7016,7.7016,7.7016,7.7016,7.7016,7.7016,7.7016,7.7016,7.7016,7.7016,7.7016,7.7016,7.7016,7.7016,7.7046,7.7077,7.7354,7.7724,7.7877,7.7908,7.7816,7.7785,7.7508,7.7231,7.7477,7.8031,7.8678,7.9355,8.0032,8.0525,8.0956,8.1017,8.1048,8.1048,8.1048,8.1048,8.1048,8.1048,8.1048,8.1048,8.1048,8.1048,8.1048,8.1048,8.1048,8.1048,8.1048,8.1048,8.1048,8.1048,8.1048,8.1048,8.1048,8.1635,8.2584,8.3736,8.4602,8.585,8.7712,8.8472,8.9016,8.9072,8.9072,8.9106,8.9106,8.9106,8.9106,8.9106,8.9106,8.9106,8.9106,8.9106,8.9106,8.9106,8.9106,8.9106,8.9106,8.9106,8.9106,8.9106,8.9106,8.9106,8.9106,7.0919,7.0919,7.0919,7.0919,7.0919,7.0919,7.0919,7.0919,7.0919,7.0919,7.0919,7.0919,7.0919,7.0919,7.0919,7.0919,7.0919,7.0919,7.0919,7.0919,7.0919,7.0919,7.0919,7.0919,7.0919,7.0919,7.1373,7.23,7.3854,7.4684,7.5587,7.6792,7.7016,7.7016,7.7016,7.7016,7.7016,7.7016,7.7016,7.7016,7.7016,7.7016,7.7016,7.7016,7.7016,7.7016,7.7169,7.7262,7.7662,7.8093,7.8308,7.8524,7.8401,7.8154,7.7693,7.7416,7.7631,7.8339,7.9047,7.9755,8.0402,8.0832,8.1048,8.1048,8.1048,8.1048,8.1048,8.1048,8.1048,8.1048,8.1048,8.1048,8.1048,8.1048,8.1048,8.1048,8.1048,8.1048,8.1048,8.1048,8.1048,8.1048,8.1048,8.1048,8.1117,8.1392,8.228,8.2982,8.3736,8.4474,8.6338,8.7829,8.8267,8.8903,8.9072,8.9106,8.9106,8.9106,8.9106,8.9106,8.9106,8.9106,8.9106,8.9106,8.9106,8.9106,8.9106,8.9106,8.9106,8.9106,8.9106,8.9106,8.9106,8.9106,8.9106,7.0919,7.0919,7.0919,7.0919,7.0919,7.0919,7.0919,7.0919,7.0919,7.0919,7.0919,7.0919,7.0919,7.0919,7.0919,7.0919,7.0919,7.0919,7.0919,7.0919,7.0919,7.0919,7.0919,7.0919,7.0919,7.1283,7.1798,7.2731,7.4015,7.4902,7.5932,7.6823,7.7016,7.7016,7.7016,7.7016,7.7016,7.7016,7.7016,7.7016,7.7016,7.7016,7.7016,7.7016,7.7016,7.7016,7.7231,7.757,7.7873,7.8462,7.8832,7.8986,7.877,7.837,7.7693,7.7416,7.7908,7.8493,7.9109,7.9878,8.0494,8.0925,8.1017,8.1048,8.1048,8.1048,8.1048,8.1048,8.1048,8.1048,8.1048,8.1048,8.1048,8.1048,8.1048,8.1048,8.1048,8.1048,8.1048,8.1048,8.1048,8.1048,8.1048,8.1048,8.1186,8.1392,8.1771,8.2414,8.3048,8.3736,8.498,8.6398,8.7327,8.7978,8.8903,8.9106,8.9106,8.9106,8.9106,8.9106,8.9106,8.9106,8.9106,8.9106,8.9106,8.9106,8.9106,8.9106,8.9106,8.9106,8.9106,8.9106,8.9106,8.9106,8.9106,7.0919,7.0919,7.0919,7.0919,7.0919,7.0919,7.0919,7.0919,7.0919,7.0919,7.0919,7.0919,7.0919,7.0919,7.0919,7.0919,7.0919,7.0919,7.0919,7.0919,7.0919,7.0919,7.0919,7.0919,7.0919,7.1403,7.2259,7.3315,7.4254,7.5429,7.637,7.695,7.7016,7.7016,7.7016,7.7016,7.7016,7.7016,7.7016,7.7016,7.7016,7.7016,7.7016,7.7016,7.7016,7.7016,7.72,7.7693,7.8278,7.8893,7.9447,7.9509,7.9109,7.8585,7.8001,7.7816,7.8308,7.8832,7.9478,8.0217,8.0863,8.0986,8.1048,8.1048,8.1048,8.1048,8.1048,8.1048,8.1048,8.1048,8.1048,8.1048,8.1048,8.1048,8.1048,8.1048,8.1048,8.1048,8.1048,8.1048,8.1048,8.1048,8.1048,8.1048,8.1117,8.1255,8.1255,8.1771,8.1907,8.2783,8.3671,8.4854,8.6156,8.7712,8.8813,8.9072,8.9106,8.9106,8.9106,8.9106,8.9106,8.9106,8.9106,8.9106,8.9106,8.9106,8.9106,8.9106,8.9106,8.9106,8.9106,8.9106,8.9106,8.9106,8.9106]}]]